[[{"header":{"parameterUnit":"m.s-1","parameterCategory":1,"la1":30.6,"la2":28.766,"lo1":-90.7593,"lo2":-88.6598,"dy":0.0162,"dx":0.0183,"nx":116,"ny":114,"refTime":"2023-04-09T12:00:00:Z","depth":0,"parameterNumber":2,"parameterNumberName":"U-component_of_WINDS"},"data":[0.0,0.0,0.0,0.0,0.0,0.0,0.0,0.0,0.0,0.0,0.0,0.0,0.0,0.0,0.0,0.0,0.0,0.0,0.0,0.0,0.0,0.0,0.0,0.0,0.0,0.0,0.0,0.0,0.0,0.0,0.0,0.0,0.0,0.0,0.0,0.0,0.0,0.0,0.0,0.0,0.0,0.0,0.0,0.0,0.0,0.0,0.0,0.0,0.0,0.0,0.0,0.0,0.0,0.0,0.0,0.0,0.0,0.0,0.0,0.0,0.0,0.0,0.0,0.0,0.0,0.0,0.0,0.0,0.0,0.0,0.0,0.0,0.0,0.0,0.0,0.0,0.0,0.0,0.0,0.0,0.0,0.0,0.0,0.0,0.0,0.0,0.0,0.0,0.0,0.0,0.0,0.0,0.0,0.0,0.0,0.0,0.0,0.0,0.0,0.0,0.0,0.0,0.0,0.0,0.0,0.0,0.0,0.0,0.0,0.0,0.0,0.0,0.0,0.0,0.0,0.0,0.0,0.0,0.0,0.0,0.0,0.0,0.0,0.0,0.0,0.0,0.0,0.0,0.0,0.0,0.0,0.0,0.0,0.0,0.0,0.0,0.0,0.0,0.0,0.0,0.0,0.0,0.0,0.0,0.0,0.0,0.0,0.0,0.0,0.0,0.0,0.0,0.0,0.0,0.0,0.0,0.0,0.0,0.0,0.0,0.0,0.0,0.0,0.0,0.0,0.0,0.0,0.0,0.0,0.0,0.0,0.0,0.0,0.0,0.0,0.0,0.0,0.0,0.0,0.0,0.0,0.0,0.0,0.0,0.0,0.0,0.0,0.0,0.0,0.0,0.0,0.0,0.0,0.0,0.0,0.0,0.0,0.0,0.0,0.0,0.0,0.0,0.0,0.0,0.0,0.0,0.0,0.0,0.0,0.0,0.0,0.0,0.0,0.0,0.0,0.0,0.0,0.0,0.0,0.0,0.0,0.0,0.0,0.0,0.0,0.0,0.0,0.0,0.0,0.0,0.0,0.0,0.0,0.0,0.0,0.0,0.0,0.0,0.0,0.0,0.0,0.0,0.0,0.0,0.0,0.0,0.0,0.0,0.0,0.0,0.0,0.0,0.0,0.0,0.0,0.0,0.0,0.0,0.0,0.0,0.0,0.0,0.0,0.0,0.0,0.0,0.0,0.0,0.0,0.0,0.0,0.0,0.0,0.0,0.0,0.0,0.0,0.0,0.0,0.0,0.0,0.0,0.0,0.0,0.0,0.0,0.0,0.0,0.0,0.0,0.0,0.0,0.0,0.0,0.0,0.0,0.0,0.0,0.0,0.0,0.0,0.0,0.0,0.0,0.0,0.0,0.0,0.0,0.0,0.0,0.0,0.0,0.0,0.0,0.0,0.0,0.0,0.0,0.0,0.0,0.0,0.0,0.0,0.0,0.0,0.0,0.0,0.0,0.0,0.0,0.0,0.0,0.0,0.0,0.0,0.0,0.0,0.0,0.0,0.0,0.0,0.0,0.0,0.0,0.0,0.0,0.0,0.0,0.0,0.0,0.0,0.0,0.0,0.0,0.0,0.0,0.0,0.0,0.0,0.0,0.0,0.0,0.0,0.0,0.0,0.0,0.0,0.0,0.0,0.0,0.0,0.0,0.0,0.0,0.0,0.0,0.0,0.0,0.0,0.0,0.0,0.0,0.0,0.0,0.0,0.0,0.0,0.0,0.0,0.0,0.0,0.0,0.0,0.0,0.0,0.0,0.0,0.0,0.0,0.0,0.0,0.0,0.0,0.0,0.0,0.0,0.0,0.0,0.0,0.0,0.0,0.0,0.0,0.0,0.0,0.0,0.0,0.0,0.0,0.0,0.0,0.0,0.0,0.0,0.0,0.0,0.0,0.0,0.0,0.0,0.0,0.0,0.0,0.0,0.0,0.0,0.0,0.0,0.0,0.0,0.0,0.0,0.0,0.0,0.0,0.0,0.0,0.0,0.0,0.0,0.0,0.0,0.0,0.0,0.0,0.0,0.0,0.0,0.0,0.0,0.0,0.0,0.0,0.0,0.0,0.0,0.0,0.0,0.0,0.0,0.0,0.0,0.0,0.0,0.0,0.0,0.0,0.0,0.0,0.0,0.0,0.0,0.0,0.0,0.0,0.0,0.0,0.0,0.0,0.0,0.0,0.0,0.0,0.0,0.0,0.0,0.0,0.0,0.0,0.0,0.0,0.0,0.0,0.0,0.0,0.0,0.0,0.0,0.0,0.0,0.0,0.0,0.0,0.0,0.0,0.0,0.0,0.0,0.0,0.0,0.0,0.0,0.0,0.0,0.0,0.0,0.0,0.0,0.0,0.0,0.0,0.0,0.0,0.0,0.0,0.0,0.0,0.0,0.0,0.0,0.0,0.0,0.0,0.0,0.0,0.0,0.0,0.0,0.0,0.0,0.0,0.0,0.0,0.0,0.0,0.0,0.0,0.0,0.0,0.0,0.0,0.0,0.0,0.0,0.0,0.0,0.0,0.0,0.0,0.0,0.0,0.0,0.0,0.0,0.0,0.0,0.0,0.0,0.0,0.0,0.0,0.0,0.0,0.0,0.0,0.0,0.0,0.0,0.0,0.0,0.0,0.0,0.0,0.0,0.0,0.0,0.0,0.0,0.0,0.0,0.0,0.0,0.0,0.0,0.0,0.0,0.0,0.0,0.0,0.0,0.0,0.0,0.0,0.0,0.0,0.0,0.0,0.0,0.0,0.0,0.0,0.0,0.0,0.0,0.0,0.0,0.0,0.0,0.0,0.0,0.0,0.0,0.0,0.0,0.0,0.0,0.0,0.0,0.0,0.0,0.0,0.0,0.0,0.0,0.0,0.0,0.0,0.0,0.0,0.0,0.0,0.0,0.0,0.0,0.0,0.0,0.0,0.0,0.0,0.0,0.0,0.0,0.0,0.0,0.0,0.0,0.0,0.0,0.0,0.0,0.0,0.0,0.0,0.0,0.0,0.0,0.0,0.0,0.0,0.0,0.0,0.0,0.0,0.0,0.0,0.0,0.0,0.0,0.0,0.0,0.0,0.0,0.0,0.0,0.0,0.0,0.0,0.0,0.0,0.0,0.0,0.0,0.0,0.0,0.0,0.0,0.0,0.0,0.0,0.0,0.0,0.0,0.0,0.0,0.0,0.0,0.0,0.0,0.0,0.0,0.0,0.0,0.0,0.0,0.0,0.0,0.0,0.0,0.0,0.0,0.0,0.0,0.0,0.0,0.0,0.0,0.0,0.0,0.0,0.0,0.0,0.0,0.0,0.0,0.0,0.0,0.0,0.0,0.0,0.0,0.0,0.0,0.0,0.0,0.0,0.0,0.0,0.0,0.0,0.0,0.0,0.0,0.0,0.0,0.0,0.0,0.0,0.0,0.0,0.0,0.0,0.0,0.0,0.0,0.0,0.0,0.0,0.0,0.0,0.0,0.0,0.0,0.0,0.0,0.0,0.0,0.0,0.0,0.0,0.0,0.0,0.0,0.0,0.0,0.0,0.0,0.0,0.0,0.0,0.0,0.0,0.0,0.0,0.0,0.0,0.0,0.0,0.0,0.0,0.0,0.0,0.0,0.0,0.0,0.0,0.0,0.0,0.0,0.0,0.0,0.0,0.0,0.0,0.0,0.0,0.0,0.0,0.0,0.0,0.0,0.0,0.0,0.0,0.0,0.0,0.0,0.0,0.0,0.0,0.0,0.0,0.0,0.0,0.0,0.0,0.0,0.0,0.0,0.0,0.0,0.0,0.0,0.0,0.0,0.0,0.0,0.0,0.0,0.0,0.0,0.0,0.0,0.0,0.0,0.0,0.0,0.0,0.0,0.0,0.0,0.0,0.0,0.0,0.0,0.0,0.0,0.0,0.0,0.0,0.0,0.0,0.0,0.0,0.0,0.0,0.0,0.0,0.0,0.0,0.0,0.0,0.0,0.0,0.0,0.0,0.0,0.0,0.0,0.0,0.0,0.0,0.0,0.0,0.0,0.0,0.0,0.0,0.0,0.0,0.0,0.0,0.0,0.0,0.0,0.0,0.0,0.0,0.0,0.0,0.0,0.0,0.0,0.0,0.0,0.0,0.0,0.0,0.0,0.0,0.0,0.0,0.0,0.0,0.0,0.0,0.0,0.0,0.0,0.0,0.0,0.0,0.0,0.0,0.0,0.0,0.0,0.0,0.0,0.0,0.0,0.0,0.0,0.0,0.0,0.0,0.0,0.0,0.0,0.0,0.0,0.0,0.0,0.0,0.0,0.0,0.0,0.0,0.0,0.0,0.0,0.0,0.0,0.0,0.0,0.0,0.0,0.0,0.0,0.0,0.0,0.0,0.0,0.0,0.0,0.0,0.0,0.0,0.0,0.0,0.0,0.0,0.0,0.0,0.0,0.0,0.0,0.0,0.0,0.0,0.0,0.0,0.0,0.0,0.0,0.0,0.0,0.0,0.0,0.0,0.0,0.0,0.0,0.0,0.0,0.0,0.0,0.0,0.0,0.0,0.0,0.0,0.0,0.0,0.0,0.0,0.0,0.0,0.0,0.0,0.0,0.0,0.0,0.0,0.0,0.0,0.0,0.0,0.0,0.0,0.0,0.0,0.0,0.0,0.0,0.0,0.0,0.0,0.0,0.0,0.0,0.0,0.0,0.0,0.0,0.0,0.0,0.0,0.0,0.0,0.0,0.0,0.0,0.0,0.0,0.0,0.0,0.0,0.0,0.0,0.0,0.0,0.0,0.0,0.0,0.0,0.0,0.0,0.0,0.0,0.0,0.0,0.0,0.0,0.0,0.0,0.0,0.0,0.0,0.0,0.0,0.0,0.0,0.0,0.0,0.0,0.0,0.0,0.0,0.0,0.0,0.0,0.0,0.0,0.0,0.0,0.0,0.0,0.0,0.0,0.0,0.0,0.0,0.0,0.0,0.0,0.0,0.0,0.0,0.0,0.0,0.0,0.0,0.0,0.0,0.0,0.0,0.0,0.0,0.0,0.0,0.0,0.0,0.0,0.0,0.0,0.0,0.0,0.0,0.0,0.0,0.0,0.0,0.0,0.0,0.0,0.0,0.0,0.0,0.0,0.0,0.0,0.0,0.0,0.0,0.0,0.0,0.0,0.0,0.0,0.0,0.0,0.0,0.0,0.0,0.0,0.0,0.0,0.0,0.0,0.0,0.0,0.0,0.0,0.0,0.0,0.0,0.0,0.0,0.0,0.0,0.0,0.0,0.0,0.0,0.0,0.0,0.0,0.0,0.0,0.0,0.0,0.0,0.0,0.0,0.0,0.0,0.0,0.0,0.0,0.0,0.0,0.0,0.0,0.0,0.0,0.0,0.0,0.0,0.0,0.0,0.0,0.0,0.0,0.0,0.0,0.0,0.0,0.0,0.0,0.0,0.0,0.0,0.0,0.0,0.0,0.0,0.0,0.0,0.0,0.0,0.0,0.0,0.0,0.0,0.0,0.0,0.0,0.0,0.0,0.0,0.0,0.0,0.0,0.0,0.0,0.0,0.0,0.0,0.0,0.0,0.0,0.0,0.0,0.0,0.0,0.0,0.0,0.0,0.0,0.0,0.0,0.0,0.0,0.0,0.0,0.0,0.0,0.0,0.0,0.0,0.0,0.0,0.0,0.0,0.0,0.0,0.0,0.0,0.0,0.0,0.0,0.0,0.0,0.0,0.0,0.0,0.0,0.0,0.0,0.0,0.0,0.0,0.0,0.0,0.0,0.0,0.0,0.0,0.0,0.0,0.0,0.0,0.0,0.0,0.0,0.0,0.0,0.0,0.0,0.0,0.0,0.0,0.0,0.0,0.0,0.0,0.0,0.0,0.0,0.0,0.0,0.0,0.0,0.0,0.0,0.0,0.0,0.0,0.0,0.0,0.0,0.0,0.0,0.0,0.0,0.0,0.0,0.0,0.0,0.0,0.0,0.0,0.0,0.0,0.0,0.0,0.0,0.0,0.0,0.0,0.0,0.0,0.0,0.0,0.0,0.0,0.0,0.0,0.0,0.0,0.0,0.0,0.0,0.0,0.0,0.0,0.0,0.0,0.0,0.0,0.0,0.0,0.0,0.0,0.0,0.0,0.0,0.0,0.0,0.0,-1.7065,0.0,0.0,0.0,0.0,0.0,0.0,0.0,0.0,0.0,0.0,0.0,0.0,0.0,0.0,0.0,0.0,0.0,0.0,0.0,0.0,0.0,0.0,0.0,0.0,1.4304,1.3659,1.3244,1.2671,1.234,1.234,1.1944,1.1844,1.2059,1.1763,1.1709,1.1813,1.1616,1.1672,1.1973,1.1859,1.2385,1.3556,1.3227,1.2354,1.0914,0.0,0.0,0.0,0.0,0.0,0.0,0.0,0.0,0.0,0.0,0.0,0.0,0.0,0.0,0.0,0.0,0.0,0.0,0.0,0.0,0.0,0.0,0.0,0.0,0.0,0.0,0.0,0.0,0.0,0.0,0.0,0.0,0.0,0.0,0.0,0.0,0.0,0.0,0.0,0.0,0.0,0.0,0.0,0.0,0.0,0.0,0.0,0.0,0.0,0.0,0.0,0.0,0.0,0.0,0.0,0.0,0.0,0.0,0.0,0.0,0.0,0.0,0.0,0.0,0.0,0.0,0.0,0.0,0.0,0.0,0.0,-1.8722,0.0,0.0,0.0,0.0,0.0,0.0,0.0,0.0,0.0,0.0,0.0,0.0,0.0,0.0,0.0,0.0,0.0,0.0,0.0,0.0,0.0,1.4688,1.4063,1.3773,1.3347,1.2604,1.2374,1.2375,1.2284,1.2043,1.1928,1.2171,1.1944,1.185,1.1926,1.1559,1.1661,1.2354,1.2919,1.3645,1.4427,1.454,1.3669,1.207,1.2028,0.0,0.0,0.0,0.0,0.0,0.0,0.0,0.0,0.0,0.0,0.0,0.0,0.0,0.0,0.0,0.0,0.0,0.0,0.0,0.0,0.0,0.0,0.0,0.0,0.0,0.0,0.0,0.0,0.0,0.0,0.0,0.0,0.0,0.0,0.0,0.0,0.0,0.0,0.0,0.0,0.0,0.0,0.0,0.0,0.0,0.0,0.0,0.0,0.0,0.0,0.0,0.0,0.0,0.0,0.0,0.0,0.0,0.0,0.0,0.0,0.0,0.0,0.0,-2.2341,-2.2532,-2.2671,-2.352,-2.394,-2.4108,-2.3693,-2.2768,-2.1421,-1.9947,0.0,0.0,0.0,0.0,0.0,0.0,0.0,0.0,0.0,0.0,0.0,0.0,0.0,0.0,0.0,0.0,0.0,0.0,0.0,1.4087,1.4213,1.3579,1.3079,1.2955,1.269,1.2495,1.2186,1.1817,1.169,1.2077,1.1917,1.1983,1.2351,1.2224,1.2654,1.3447,1.4744,1.4896,1.4076,1.5671,1.5389,1.3718,1.3522,1.3189,1.2755,0.0,0.0,0.0,0.0,0.0,0.0,0.0,0.0,0.0,0.0,0.0,0.0,0.0,0.0,0.0,0.0,0.0,0.0,0.0,0.0,0.0,0.0,0.0,0.0,0.0,0.0,0.0,0.0,0.0,0.0,0.0,0.0,0.0,0.0,0.0,0.0,0.0,0.0,0.0,0.0,0.0,-1.0496,-1.05,0.0,0.0,0.0,0.0,0.0,0.0,0.0,0.0,0.0,0.0,0.0,0.0,0.0,-2.0035,-2.0784,-2.1294,-2.1735,-2.181,-2.3599,-2.4856,-2.557,-2.6761,-2.7757,-2.8442,-2.8395,0.0,-2.2316,-2.1748,0.0,0.0,0.0,0.0,0.0,0.0,0.0,0.0,0.0,0.0,0.0,0.0,0.0,0.0,0.0,0.0,0.0,0.0,0.0,0.0,0.0,1.3324,1.3029,1.3028,1.273,1.2481,1.2269,1.2087,1.2115,1.2304,1.2219,1.2257,1.2436,1.211,1.2655,1.4002,1.4341,1.4802,1.5162,1.6121,1.5993,1.5151,1.5616,1.4948,1.3473,1.2673,0.0,0.0,0.0,0.0,0.0,0.0,0.0,0.0,0.0,0.0,0.0,0.0,0.0,0.0,0.0,0.0,0.0,0.0,0.0,0.0,0.0,0.0,0.0,0.0,0.0,0.0,0.0,0.0,0.0,0.0,0.0,0.0,0.0,0.0,0.0,0.0,0.0,0.0,0.0,-1.026,-1.0789,-1.0929,-1.229,-1.3285,0.0,0.0,0.0,0.0,0.0,0.0,0.0,0.0,0.0,-2.1034,-2.1446,-2.2141,-2.3143,-2.3998,-2.4575,-2.4754,-2.5608,-2.633,-2.6894,-2.778,-2.8418,-2.8995,-2.9154,-2.8064,-2.5935,-2.4748,-2.385,-2.3187,0.0,0.0,0.0,0.0,-2.1175,-2.0919,0.0,0.0,0.0,0.0,0.0,0.0,0.0,0.0,0.0,0.0,0.0,0.0,1.3413,1.3277,1.3209,1.3116,1.284,1.2578,1.2521,1.2474,1.2436,1.2436,1.2389,1.2389,1.2436,1.2301,1.2878,1.4094,1.4091,1.456,1.5523,1.5825,1.5935,1.5883,1.6851,1.6294,1.451,1.3919,1.3107,1.2028,0.0,0.0,0.0,0.0,0.0,0.0,0.0,0.0,0.0,0.0,0.0,0.0,0.0,0.0,0.0,0.0,0.0,0.0,0.0,0.0,0.0,0.0,0.0,0.0,0.0,0.0,0.0,0.0,0.0,0.0,0.0,0.0,0.0,0.0,0.0,0.0,0.0,-1.0847,-1.1517,-1.1471,-1.3248,-1.453,0.0,0.0,0.0,0.0,0.0,0.0,-2.0561,-2.1306,-2.2013,-2.2782,-2.3298,-2.4303,-2.543,-2.6315,-2.691,-2.7232,-2.7232,-2.7526,-2.7951,-2.8243,-2.8681,-2.9101,-2.9407,-2.9407,-2.8925,-2.7311,-2.6442,-2.5953,-2.4501,-2.3641,-2.3209,-2.3275,-2.2962,-2.2688,0.0,0.0,0.0,0.0,0.0,0.0,0.0,0.0,0.0,0.0,0.0,1.2863,1.3321,1.3511,1.3576,1.3438,1.3487,1.3296,1.2767,1.2559,1.2436,1.2436,1.2257,1.2247,1.2436,1.326,1.3779,1.3948,1.4775,1.4634,1.3895,1.4778,1.5276,1.5391,1.6382,1.6834,1.6839,1.5654,1.5052,1.46,1.214,0.0,0.0,0.0,0.0,0.0,0.0,0.0,0.0,0.0,0.0,0.0,0.0,0.0,0.0,0.0,0.0,0.0,0.0,0.0,0.0,0.0,0.0,0.0,0.0,0.0,0.0,0.0,0.0,0.0,0.0,0.0,0.0,0.0,0.0,0.0,0.0,0.0,0.0,-1.2142,-1.3604,0.0,0.0,0.0,0.0,-2.0146,-2.2781,-2.4064,-2.3651,-2.4506,-2.5268,-2.5726,-2.5721,-2.6178,-2.7422,-2.7422,-2.7583,-2.7905,-2.7905,-2.8206,-2.9106,-2.9106,-2.9539,-3.0267,-3.0267,-3.0267,-3.0055,-2.9086,-2.8084,-2.7505,-2.7346,-2.6925,-2.6168,-2.6301,-2.6042,-2.5597,0.0,0.0,0.0,1.4867,1.4484,1.4063,1.3445,1.2886,1.2836,1.3318,1.3184,1.3316,1.3816,1.3659,1.3635,1.3702,1.35,1.3355,1.3173,1.2965,1.2786,1.2654,1.2578,1.2599,1.2722,1.3306,1.3732,1.3996,1.3825,1.3798,1.3681,1.4178,1.4421,1.4298,1.5037,1.5402,1.5529,1.6578,1.6272,1.5074,1.4188,1.2813,0.0,0.0,0.0,0.0,0.0,0.0,0.0,0.0,0.0,0.0,0.0,0.0,0.0,0.0,0.0,0.0,0.0,0.0,0.0,0.0,0.0,0.0,0.0,0.0,0.0,0.0,0.0,0.0,0.0,0.0,0.0,0.0,0.0,0.0,0.0,0.0,0.0,-1.3409,-1.5321,0.0,-1.8069,-2.0107,-2.1645,-2.2276,-2.3995,-2.4988,-2.4733,-2.5556,-2.6171,-2.6815,-2.6794,-2.7058,-2.7773,-2.7788,-2.7847,-2.7949,-2.7949,-2.8251,-2.9152,-2.9152,-2.9586,-3.0315,-3.0315,-3.0315,-3.0299,-2.9897,-2.9214,-2.8638,-2.8934,-2.8341,-2.7434,-2.7763,-2.7585,-2.7126,0.0,0.0,0.0,1.4004,1.3881,1.3705,1.3093,1.2715,1.2811,1.334,1.326,1.3267,1.382,1.366,1.3596,1.381,1.3603,1.3429,1.3287,1.2855,1.2584,1.2776,1.2899,1.3101,1.3217,1.3358,1.3555,1.3811,1.3302,1.3113,1.3369,1.3491,1.3611,1.3743,1.4252,1.4459,1.4625,1.6102,1.6299,1.5558,1.5601,1.4483,1.2632,0.0,0.0,0.0,0.0,0.0,0.0,0.0,0.0,0.0,0.0,0.0,0.0,0.0,0.0,0.0,0.0,0.0,0.0,0.0,0.0,0.0,0.0,0.0,0.0,0.0,0.0,0.0,0.0,0.0,0.0,0.0,0.0,0.0,0.0,-1.3142,-1.4534,-1.4509,-1.6957,-1.9038,-2.0086,-2.1798,-2.3104,-2.3754,-2.4933,-2.5506,-2.5364,-2.6004,-2.6664,-2.7013,-2.7344,-2.7553,-2.811,-2.8212,-2.8315,-2.8432,-2.8549,-2.9056,-2.9839,-2.9839,-3.0283,-3.1029,-3.1029,-3.1029,-3.1029,-3.1029,-3.0573,-2.9931,-2.9621,-2.9063,-2.8399,-2.8565,-2.8487,-2.8286,0.0,1.4949,1.3919,1.2953,1.2953,1.3014,1.2736,1.2445,1.2372,1.2803,1.2715,1.2811,1.3296,1.3615,1.381,1.3674,1.3693,1.3514,1.3107,1.2087,1.1902,1.2805,1.3192,1.3463,1.3806,1.3438,1.3378,1.3367,1.2972,1.284,1.284,1.284,1.3227,1.3884,1.3884,1.403,1.4473,1.4463,1.511,1.6156,1.6165,1.5926,1.5311,0.0,0.0,0.0,0.0,0.0,0.0,0.0,0.0,0.0,0.0,0.0,0.0,0.0,0.0,0.0,0.0,0.0,0.0,0.0,0.0,0.0,0.0,0.0,0.0,0.0,0.0,0.0,0.0,0.0,0.0,0.0,0.0,0.0,-1.2029,-1.5756,-1.771,-1.5612,-1.8212,-2.0306,-2.0994,-2.1738,-2.2985,-2.4462,-2.5527,-2.5978,-2.5504,-2.6281,-2.6752,-2.6766,-2.7236,-2.785,-2.8476,-2.8769,-2.9076,-2.9398,-2.972,-3.0349,-3.1167,-3.1167,-3.1631,-3.2412,-3.2412,-3.2412,-3.2412,-3.2412,-3.2094,-3.1651,-2.987,-2.9396,-2.9519,-2.8783,-2.8666,-2.8973,0.0,1.4376,1.3147,1.2856,1.2766,1.2878,1.2944,1.2698,1.2558,1.2707,1.286,1.2956,1.2975,1.3386,1.3746,1.3684,1.3693,1.3636,1.3523,1.2938,1.2818,1.3221,1.3027,1.3207,1.4025,1.3775,1.3648,1.3367,1.3235,1.3104,1.284,1.2576,1.264,1.2893,1.2227,1.2079,1.2406,1.4101,1.4919,1.5347,1.5971,1.5391,1.4185,0.0,0.0,0.0,0.0,0.0,0.0,0.0,0.0,0.0,0.0,0.0,0.0,0.0,0.0,0.0,0.0,0.0,0.0,0.0,0.0,0.0,0.0,0.0,0.0,0.0,0.0,0.0,0.0,0.0,0.0,0.0,-1.3372,-1.5106,-1.4055,-1.6301,-1.8073,-1.8258,-1.9823,-2.1331,-2.2608,-2.3864,-2.4776,-2.5264,-2.5813,-2.6142,-2.6289,-2.6959,-2.765,-2.8204,-2.8906,-2.9224,-2.9471,-2.9559,-2.9647,-2.9734,-2.9822,-3.0188,-3.0686,-3.1007,-3.1471,-3.1935,-3.2253,-3.2412,-3.2412,-3.2412,-3.2253,-3.2221,-3.1685,-3.112,-3.0739,-3.0581,-3.0166,-2.9603,0.0,1.4184,1.2759,1.2759,1.2851,1.2811,1.2833,1.2631,1.2529,1.2468,1.2796,1.2964,1.274,1.337,1.3693,1.3693,1.3769,1.3712,1.3447,1.3287,1.3175,1.3143,1.3242,1.3642,1.4235,1.3831,1.3621,1.3367,1.3235,1.2972,1.284,1.2648,1.2429,1.2193,1.1755,1.1361,1.1249,1.26,1.3341,1.384,1.4382,1.4604,1.449,1.3047,1.12,0.9529,0.8529,0.8156,0.8189,0.8355,0.0,0.0,0.0,0.0,0.0,0.0,0.0,0.0,0.0,0.0,0.0,0.0,0.0,0.0,0.0,0.0,0.0,0.0,0.0,0.0,0.0,0.0,0.0,0.0,-1.5162,-1.7321,-1.7388,-1.8686,-1.9757,-1.9883,-2.1418,-2.2863,-2.3794,-2.4967,-2.5692,-2.5692,-2.6074,-2.6615,-2.6949,-2.7713,-2.8283,-2.8948,-2.9603,-2.9866,-2.9866,-2.9998,-3.0071,-3.0071,-3.0203,-3.0498,-3.1138,-3.1629,-3.2181,0.0,-3.3122,-3.3286,-3.3286,-3.3286,-3.3286,0.0,0.0,0.0,0.0,0.0,-3.1091,-3.029,1.5615,1.4088,1.2759,1.2759,1.2957,1.2956,1.2648,1.2651,1.2497,1.2188,1.257,1.2794,1.2662,1.3324,1.3693,1.3693,1.3863,1.374,1.3173,1.3264,1.3107,1.2875,1.3602,1.4096,1.4399,1.3761,1.3367,1.3367,1.2972,1.2848,1.2873,1.3019,1.2626,1.1976,1.1955,1.1545,1.0905,1.1017,1.1541,1.2344,1.232,1.3639,1.5228,1.2123,1.0594,1.0086,0.8482,0.8024,0.8117,0.8363,0.0,0.0,0.0,0.0,0.0,0.0,0.0,0.0,0.0,0.0,0.0,0.0,0.0,0.0,0.0,0.0,0.0,0.0,0.0,0.0,0.0,0.0,0.0,0.0,-1.7292,-1.9637,-2.0813,-2.1755,-2.2079,-2.1117,-2.2919,-2.4329,-2.4483,-2.5386,-2.6052,-2.6052,-2.656,-2.7042,-2.7538,0.0,0.0,0.0,0.0,-3.0027,-3.0027,-3.0349,-3.051,-3.051,-3.0803,-3.1248,-3.2035,-3.254,-3.303,-3.3831,-3.417,-3.4509,-3.4509,-3.4509,-3.4509,-3.4382,-3.2655,-3.2211,-3.236,-3.2339,-3.1616,-3.0978,1.458,1.363,1.2759,1.2759,1.2957,1.2956,1.2648,1.278,1.2659,1.2196,1.2689,1.2952,1.2671,1.3324,1.3693,1.3693,1.3731,1.3703,1.358,1.296,1.3113,1.3987,1.3655,1.3709,1.4006,1.3621,1.3235,1.2972,1.284,1.2905,1.3043,1.2807,1.2616,1.2573,1.2195,1.1939,1.2027,1.2689,1.3108,1.3094,1.2681,1.2375,1.208,1.1395,1.0195,0.887,0.8585,0.8333,0.8091,0.8349,0.8365,0.826,0.8541,0.7867,0.0,0.0,0.0,0.0,0.0,0.0,0.0,0.0,0.0,0.0,0.0,0.0,0.0,0.0,0.0,0.0,0.0,0.0,0.0,-1.4137,-1.6438,-1.8782,-2.0436,-2.2171,-2.314,-2.3064,-2.394,-2.4764,-2.5089,-2.603,-2.6653,-2.6653,-2.6987,-2.75,-2.8311,-2.8767,-2.9428,-3.0098,-3.0759,-3.1022,-3.1022,-3.1359,-3.152,-3.152,0.0,0.0,-3.1866,-3.2379,-3.275,-3.3321,-3.3831,-3.417,-3.4509,-3.4509,-3.4509,-3.4477,-3.3704,-3.3305,-3.3045,-3.2614,-3.2119,-3.1622,0.0,1.3147,1.2759,1.2759,1.2957,1.2956,1.2648,1.281,1.2669,1.2081,1.257,1.2841,1.2539,1.3085,1.3466,1.3674,1.3693,1.3825,1.4137,1.3717,1.3743,1.4619,1.4169,1.3875,1.3875,1.363,1.3235,1.284,1.2921,1.3011,1.31,1.315,1.2956,1.2819,1.2681,1.2406,1.1986,1.2437,1.2316,1.1971,1.1481,1.0853,1.0367,1.0219,0.951,0.8595,0.8655,0.8412,0.8153,0.8611,0.8633,0.8507,0.8977,0.8402,0.7124,0.0,0.0,0.0,0.0,0.0,0.0,0.0,0.0,0.0,0.0,0.0,0.0,0.0,0.0,-0.9994,-1.0627,0.0,-1.4096,-1.5759,-1.8183,-2.0294,-2.1659,-2.2929,-2.3708,-2.3897,-2.4705,-2.5276,-2.5753,-2.6626,-2.7041,-2.7041,-2.7321,-2.7975,-2.8795,-2.9243,-2.9998,-3.0832,-3.13,-3.1549,-3.1549,-3.171,-3.1798,-3.1798,-3.1798,-3.1885,-3.2046,-3.255,-3.3157,-3.367,-3.4173,-3.469,-3.5033,-3.5033,-3.5033,-3.5065,-3.4359,-3.4047,-3.3738,-3.3383,-3.2744,-3.2377,0.0,1.3244,1.3147,1.2856,1.2915,1.2905,1.274,1.278,1.2692,1.2163,1.2534,1.2683,1.2579,1.2818,1.3221,1.3599,1.3583,1.3864,1.4534,1.4351,1.4454,1.4922,1.4539,1.4268,1.3875,1.363,1.3235,1.284,1.3011,1.3116,1.3157,1.349,1.3424,1.3011,1.3021,1.2719,1.1898,1.176,1.1358,1.0829,1.0385,0.9962,0.9515,0.9278,0.8923,0.8671,0.8769,0.8534,0.8275,0.8665,0.8847,0.8868,0.8986,0.8384,0.7314,0.5321,0.3665,0.0,0.0,0.0,0.0,0.0,0.0,0.0,0.0,-0.8682,-0.905,-0.9627,-1.0197,-1.1007,-1.1947,-1.4213,-1.6318,-1.7891,-1.9964,-2.1849,-2.3073,-2.3764,-2.4185,-2.4477,-2.5135,-2.5886,-2.641,-2.7012,-2.7348,-2.7348,-2.7682,-2.8203,-2.9201,-2.9733,-3.0553,-3.1402,-3.1724,-3.1885,-3.1885,-3.1959,-3.1988,-3.1988,-3.1988,-3.212,-3.2383,-3.2732,-3.3391,-3.4174,-3.4875,-3.5272,-3.5669,-3.5605,-3.5573,-3.5605,-3.5072,-3.474,-3.4626,-3.3908,-3.3482,-3.3085,0.0,1.4962,1.4388,1.305,1.2974,1.3021,1.2925,1.2955,1.2949,1.3024,1.2869,1.2852,1.2964,1.3079,1.3164,1.34,1.3147,1.3331,1.4326,1.4153,1.4223,1.4931,1.4539,1.4268,1.3875,1.363,1.3235,1.284,1.3011,1.3181,1.3344,1.3547,1.3636,1.3472,1.3216,1.3068,1.2912,1.2204,1.1719,1.1395,1.0992,1.0242,0.966,0.9515,0.9187,0.8772,0.8516,0.8377,0.8387,0.8499,0.854,0.8703,0.8673,0.7972,0.6773,0.5494,0.2938,0.0,-0.2336,-0.5128,-0.744,-0.8129,-0.8339,-0.8581,0.0,-0.9646,-0.9883,-1.0029,-1.1808,-1.3487,-1.3692,-1.5466,-1.7422,-1.9284,-2.0258,-2.1438,-2.3342,-2.4202,-2.5088,-2.5628,-2.5976,-2.6436,-2.7188,-2.7482,-2.7655,-2.7655,-2.8177,-2.8839,-2.9845,-3.0167,-3.0694,-3.1739,-3.2061,-3.2237,-3.2237,-3.2515,-3.2661,-3.2661,-3.2661,-3.2676,-3.2719,-3.2719,-3.3264,-3.4174,-3.505,-3.5764,-3.6018,-3.5701,-3.5573,-3.5605,-3.5794,-3.5885,-3.5521,-3.3918,-3.347,-3.3524,0.0,0.0,1.4867,1.4292,1.3924,1.3535,1.2951,1.2956,1.2936,1.2803,1.2612,1.2654,1.2871,1.2994,1.306,1.3032,1.2913,1.317,1.4128,1.3888,1.403,1.453,1.4408,1.4146,1.3621,1.3498,1.3235,1.284,1.3011,1.3189,1.3376,1.3555,1.3701,1.379,1.3365,1.3082,1.294,1.2379,1.1844,1.1606,1.0824,1.0376,1.0084,0.9319,0.8871,0.8713,0.8438,0.7831,0.0,0.8232,0.7988,0.7433,0.7675,0.7378,0.6309,0.3119,0.1136,-0.086,-0.4918,-0.6917,-0.8041,-0.9184,-0.9601,-0.9684,-0.9815,-1.0053,-1.0763,-1.2045,-1.3195,-1.4392,-1.554,-1.7199,-1.8541,-1.9302,-2.0648,-2.1981,-2.3073,-2.4371,-2.5236,-2.5841,-2.6579,-2.7211,-2.7509,-2.7949,-2.823,-2.823,-2.8789,-2.9535,-3.0209,-3.0864,-3.1382,-3.2076,-3.2398,-3.2573,-3.2573,-3.2705,-3.2778,-3.2778,-3.2778,-3.2778,-3.2778,-3.2778,-3.3398,-3.4479,-3.5728,-3.6257,-3.6384,-3.6241,-3.6177,-3.6209,-3.62,-3.6074,-3.5623,-3.4743,-3.4456,-3.4315,0.0,0.0,0.0,1.5439,1.5114,1.4496,1.3601,1.3346,1.311,1.2971,1.2636,1.2502,1.2663,1.2805,1.2862,1.2776,1.2812,1.3352,1.4475,1.4518,1.4833,1.5564,1.5183,1.466,1.4146,1.363,1.3235,1.2972,1.3011,1.3189,1.3376,1.3555,1.3734,1.3904,1.3325,1.3039,1.2753,1.2187,1.1763,1.1332,1.0599,1.0311,1.0167,0.9018,0.8709,0.8663,0.8067,0.717,0.6333,0.7222,0.6811,0.5969,0.6166,0.5726,0.4411,0.0993,-0.086,-0.2768,-0.6957,-0.8131,-0.8548,-0.9876,-1.0329,-1.0433,-1.0533,-1.0773,-1.1516,-1.3516,-1.4461,-1.5439,-1.7315,-1.875,-1.9866,-1.9855,-2.1381,-2.2729,-2.3138,-2.4625,-2.5699,-2.6049,-2.7278,-2.7976,-2.8056,-2.839,-2.8644,-2.8724,-2.9339,-3.001,-3.0531,-3.1364,-3.1901,-3.2412,-3.2646,-3.2778,-3.2778,-3.2778,-3.2778,-3.2778,-3.2778,-3.2822,-3.291,-3.3354,-3.4112,-3.5147,-3.6184,-3.6654,-3.6733,-3.6638,-3.659,-3.6638,-3.6625,-3.6219,-3.5853,-3.5517,-3.5242,-3.484,0.0,0.0,0.0,1.6292,1.6103,1.5925,1.5439,1.4406,1.374,1.3991,1.3056,1.2446,1.2446,1.2455,1.254,1.2748,1.3154,1.4153,1.5771,1.6366,1.7125,1.8267,1.712,1.6213,1.5944,1.4277,1.3367,1.3367,1.3144,1.3189,1.3376,1.3555,1.3734,1.3904,1.3182,1.2753,1.2753,1.19,1.1332,1.09,1.0173,0.9879,0.9735,0.8584,0.8519,0.8855,0.7132,0.6417,0.6264,0.52,0.4759,0.4619,0.434,0.2399,0.0142,0.0,-0.2988,-0.6813,-0.8601,-0.9102,-0.9174,-0.9957,-0.9966,-1.0173,-1.1065,-1.1666,-1.2437,-1.4003,-1.577,-1.7351,-1.8824,-2.0475,-2.1599,-2.1609,-2.2466,-2.3378,-2.3641,-2.5191,-2.6567,-2.7114,-2.805,-2.8684,-2.8965,-2.8764,-2.8724,-2.9005,-2.965,-3.034,-3.0853,-3.1515,-3.2218,-3.2763,-3.2763,-3.2778,-3.2778,-3.2778,-3.2778,-3.2778,-3.2778,-3.2939,-3.3246,-3.4472,-3.5515,-3.6355,-3.6569,-3.6797,-3.7083,-3.6733,-3.659,-3.6638,-3.6988,-3.6766,-3.6432,-3.6205,-3.56,-3.4651,0.0,0.0,0.0,1.6951,1.6951,1.6885,1.6714,1.5426,1.4707,1.4981,1.4239,0.0,0.0,0.0,0.0,0.0,1.2917,1.2915,1.4153,1.5176,1.596,1.6605,1.715,1.685,1.5294,1.4651,1.3875,1.2972,1.2897,1.3011,1.3189,1.3101,1.3137,1.331,1.2716,1.233,1.233,1.1763,1.1332,1.0906,1.0553,1.0245,0.9891,0.9248,0.829,0.7127,0.0,0.5181,0.4999,0.4425,0.3471,0.2661,0.2544,0.1136,-0.0998,-0.3866,-0.649,-0.8599,-0.9307,-0.9777,-1.0089,-1.0439,-1.0802,-1.1318,-1.1842,-1.2052,-1.2915,-1.5626,-1.6578,-1.7572,-2.0128,-2.0962,-2.1611,-2.1916,-2.2954,-2.3764,-2.4193,-2.5519,-2.6498,-2.6858,-2.7727,-2.847,-2.8771,-2.907,-2.9232,-2.9325,-3.0301,-3.0998,-3.1175,-3.1997,-3.2586,-3.2763,-3.2778,-3.2778,-3.2778,-3.2778,-3.288,-3.3085,-3.3305,-3.3529,-3.3814,-3.5076,-3.5928,-3.6401,-3.7075,-3.7385,-3.748,-3.7353,-3.7305,-3.7321,-3.7065,-3.6744,-3.6205,-3.6127,-3.563,-3.4695,0.0,0.0,0.0,0.0,0.0,0.0,0.0,0.0,0.0,0.0,0.0,0.0,0.0,0.0,0.0,0.0,0.0,1.2673,1.3933,1.4816,1.5592,1.6106,1.6844,1.6467,1.4952,1.4503,1.3769,1.2873,1.2808,1.2789,1.2966,1.287,1.2774,1.281,1.2408,1.2194,1.2194,1.1763,1.1332,1.0756,1.0408,0.9803,0.8868,0.8319,0.7094,0.0,0.3937,0.3477,0.331,0.2611,0.1662,0.0842,0.0569,-0.0862,-0.3184,-0.7007,-0.8867,-0.9893,-1.0056,-1.0526,-1.0987,-1.1227,-1.1543,-1.2005,-1.254,-1.2546,-1.3556,-1.6461,-1.7047,-1.7851,-2.0727,-2.1513,-2.1829,-2.2488,-2.3381,-2.4233,-2.4749,-2.5932,-2.6711,-2.7172,-2.7849,-2.8595,-2.8882,-2.9455,-2.9633,-2.981,-3.0684,-3.1329,-3.1507,-3.2409,-3.2778,-3.2778,-3.2778,-3.2822,-3.2939,-3.2939,-3.31,-3.3422,-3.3744,-3.4152,-3.4698,-3.541,-3.6221,-3.6971,-3.7391,-3.7671,-3.7671,-3.7671,-3.7671,-3.7671,-3.7285,-3.6915,-3.6359,-3.6173,-3.5615,-3.4882,0.0,0.0,0.0,0.0,0.0,0.0,0.0,0.0,0.0,0.0,0.0,0.0,0.0,0.0,0.0,0.0,0.0,0.0,1.4928,1.5373,1.6098,1.6943,1.6352,1.5628,1.4903,1.3725,1.3191,1.3071,1.2857,1.2765,1.2523,1.2694,1.2597,1.2485,1.223,1.2166,1.2173,1.1743,1.1162,1.0293,1.0017,0.8569,0.6817,0.6026,0.514,0.4132,0.1971,0.1401,0.1257,-0.0138,-0.0695,-0.0846,-0.1716,-0.3789,-0.6533,-0.8765,-1.0056,-1.0802,-1.0814,-1.1166,-1.1845,-1.2166,-1.2333,-1.2533,-1.3152,-1.3193,-1.4052,-1.682,-1.7346,-1.8164,-2.0811,-2.1807,-2.2444,-2.3123,-2.4097,-2.4937,-2.5442,-2.623,-2.7234,-2.8029,-2.8423,-2.8882,-2.9156,-2.9554,-3.0093,-3.0437,0.0,-3.1507,-3.2054,-3.2586,-3.2778,-3.2793,-3.2793,-3.2954,-3.3261,-3.329,-3.3436,-3.3729,-3.408,-3.478,-3.5669,-3.602,-3.673,-3.7671,-3.7671,-3.7671,-3.7671,-3.7671,-3.7671,-3.7671,-3.7671,-3.7301,-3.673,-3.6359,-3.5801,-3.5413,0.0,0.0,0.0,0.0,0.0,0.0,0.0,0.0,0.0,0.0,0.0,0.0,0.0,0.0,0.0,0.0,0.0,0.0,1.3374,1.453,1.5254,1.5152,1.6253,1.6122,1.4676,1.427,1.3627,1.2885,1.2545,1.2339,1.1993,1.1904,1.1674,1.1567,1.1323,1.1317,1.142,1.142,1.0296,0.862,0.8499,0.7221,0.5314,0.5107,0.4206,0.271,0.1849,0.113,0.0281,-0.0706,-0.1295,-0.1762,-0.3122,-0.494,-0.6788,-0.8449,-0.9943,-1.1149,-1.1354,-1.1851,-1.2469,-1.2469,-1.2873,-1.313,-1.3336,-1.3431,-1.4347,-1.7042,-1.7434,-1.8247,-2.1221,-2.2026,-2.2665,-2.3688,-2.4523,-2.5311,-2.5994,-2.6399,-2.6912,-2.7508,-2.7875,-2.8205,-2.8642,-2.9195,-2.9554,-3.0093,-3.0794,-3.1507,-3.2054,-3.2586,-3.288,-3.3115,-3.3129,-3.3276,-3.3612,-3.3846,-3.389,-3.3744,-3.43,-3.5003,-3.5669,-3.602,-3.673,-3.7671,-3.7671,-3.7671,-3.7671,-3.7671,-3.7671,-3.7671,-3.7285,-3.673,-3.6359,-3.6173,-3.5615,-3.4882,0.0,0.0,0.0,0.0,0.0,0.0,0.0,0.0,0.0,0.0,0.0,0.0,0.0,0.0,0.0,0.0,0.0,0.0,0.0,1.3588,1.3871,1.3317,1.4443,1.4559,1.3472,1.3432,1.3217,1.269,1.2389,1.2051,1.1553,1.1585,1.1359,1.0989,1.088,1.1029,1.1165,1.1027,0.9769,0.0,0.0,0.6166,0.3573,0.348,0.2612,0.1152,0.043,-0.0288,-0.0872,-0.1171,-0.1487,-0.2117,-0.3503,-0.5202,-0.708,-0.842,-1.0247,-1.1805,-1.2024,-1.2507,-1.2946,-1.2946,-1.3171,-1.3549,-1.3967,-1.4239,-1.5142,-1.7611,-1.8035,-1.877,-2.1424,-2.23,-2.3053,-2.443,-2.5125,-2.5782,-2.652,-2.6713,-2.699,-2.7696,-2.782,-2.792,-2.8655,-2.9002,-2.9541,-3.0093,-3.0973,-3.1507,-3.2054,-3.254,-3.3056,-3.3246,-3.3378,-3.3612,-3.3949,-3.4271,-3.4344,-3.4168,-3.4534,-3.5152,-3.5898,-3.6081,-3.673,-3.7671,0.0,-3.7285,-3.7301,-3.7116,-3.71,-3.6915,-3.673,-3.6359,-3.5786,-3.5786,-3.5428,-3.471,0.0,0.0,0.0,0.0,0.0,0.0,0.0,0.0,0.0,0.0,1.7574,1.7765,1.7808,1.7413,0.0,0.0,0.0,0.0,0.0,0.0,1.2386,1.1827,1.223,1.2303,1.1896,1.1988,1.2172,1.2331,1.2266,1.1854,1.1232,1.1239,1.1128,1.0636,1.0792,1.0941,1.1077,1.0685,0.9302,0.7511,0.72,0.4973,0.1995,0.0,0.0721,-0.0146,-0.1297,-0.1614,-0.1662,-0.1211,-0.1376,-0.2011,-0.3245,-0.5136,-0.7224,-0.8646,-1.0538,-1.2372,-1.2677,-1.2972,-1.3403,-1.3403,-1.3403,-1.3686,-1.483,-1.5241,-1.5926,-1.8154,-1.8876,-1.9584,-2.1643,-2.2515,-2.3488,-2.4846,-2.5723,-2.6411,-2.6954,-2.7027,-2.739,-2.8113,-2.792,-2.792,-2.8822,-2.9182,-2.9541,-3.0437,-3.1151,-3.1685,-3.2054,-3.2713,-3.329,-3.3363,-3.3685,-3.3993,-3.4285,-3.4563,-3.471,-3.471,-3.471,-3.5256,-3.6173,-3.6173,-3.673,-3.7486,-3.71,0.0,-3.6915,-3.6545,-3.6173,-3.6173,-3.6173,-3.5987,-3.56,-3.56,-3.5241,-3.4882,0.0,0.0,0.0,0.0,0.0,0.0,0.0,0.0,0.0,0.0,1.7384,1.7516,1.7794,1.7717,0.0,0.0,0.0,0.0,0.0,0.0,0.0,1.1617,1.1587,1.1594,1.1515,1.1612,1.1684,1.1708,1.1526,1.1119,1.0508,1.0537,1.039,1.0175,1.0324,1.0344,1.0221,1.0212,0.8365,0.5275,0.5273,0.3367,0.0423,0.0,-0.0291,0.0,-0.0728,-0.1029,-0.1194,-0.0453,-0.0769,-0.1722,-0.3595,-0.5507,-0.7473,-0.9631,-1.1212,-1.2514,-1.3157,-1.3045,-1.2899,-1.3231,-1.3403,-1.3686,-1.483,-1.5085,-1.5967,-1.8333,-1.894,-1.9702,-2.1605,-2.271,-2.3741,-2.4753,-2.5654,-2.6411,-2.6954,-2.7027,-2.7027,-2.7208,-2.7208,-2.739,-2.792,-2.8642,-2.9362,-2.9913,-3.1165,-3.2054,-3.2586,-3.3071,-3.3495,-3.4036,-3.4358,-3.4563,-3.4622,-3.468,-3.471,-3.471,-3.471,-3.5069,-3.56,-3.5987,-3.6545,-3.71,-3.7486,0.0,-3.6915,-3.673,-3.6545,-3.6173,-3.6173,-3.6173,-3.5987,-3.5987,-3.5801,-3.5428,0.0,0.0,0.0,0.0,0.0,0.0,0.0,1.7153,1.7153,1.7153,1.7246,1.729,1.737,1.7625,1.744,0.0,0.0,0.0,0.0,0.0,0.0,1.1345,1.144,1.1424,1.1414,1.1477,1.1429,1.15,0.0,1.0831,1.0308,1.0308,1.0148,1.0053,1.0002,0.9901,0.998,0.9658,0.772,0.4833,0.4661,0.2642,-0.0281,-0.0574,-0.087,0.0,-0.0584,-0.0735,-0.1041,-0.0449,-0.122,-0.2489,-0.3751,-0.5522,-0.7501,-0.9843,-1.1265,-1.2383,-1.3191,-1.3065,-1.2733,-1.3238,-1.3403,-1.383,-1.5522,-1.5917,-1.6776,-1.9035,-1.9779,-2.0398,-2.1687,-2.2695,-2.3522,-2.4453,-2.5778,-2.6668,-2.6568,-2.7026,-2.7377,-2.7377,-2.7377,-2.7739,-2.8822,-2.9362,-2.9913,-3.0987,-3.1699,-3.2054,-3.2409,-3.3052,-3.3802,-3.4446,-3.4622,-3.471,-3.471,-3.471,-3.471,-3.471,-3.471,-3.4882,-3.5413,-3.5987,-3.6545,-3.6915,-3.71,0.0,-3.6915,-3.673,-3.6359,-3.6173,-3.6173,-3.6173,-3.6173,-3.6173,-3.5987,-3.5786,0.0,0.0,0.0,0.0,0.0,0.0,0.0,1.6965,1.7059,1.6979,1.7059,1.7059,1.6885,1.7289,1.7159,0.0,0.0,0.0,0.0,0.0,0.0,0.0,1.1328,1.1313,1.1243,0.0,0.0,1.1153,1.0871,0.0,0.0,0.0,0.0,0.0,0.9666,0.9677,0.9626,0.9175,0.7271,0.0,0.0,0.2351,-0.0422,0.0,0.0,0.0,0.0,-0.0734,-0.148,-0.104,-0.2107,-0.3672,-0.4488,-0.5971,-0.7982,-1.0169,-1.1265,-1.1891,-1.286,-1.2899,-1.2733,-1.3065,-1.3424,-1.4016,-1.6056,-1.6738,-1.7572,-1.9688,-2.0404,-2.0863,-2.1834,-2.261,-2.3269,-2.4291,-2.5578,-2.6561,-2.6194,-2.6937,-2.7423,-2.7546,-2.7558,-2.8281,-2.9554,-2.9913,-3.0629,-3.1877,-3.2054,0.0,-3.2433,-3.327,-3.4036,-3.468,-3.471,-3.471,-3.471,-3.471,-3.471,-3.471,-3.471,-3.4882,-3.5241,-3.5987,-3.6359,-3.673,-3.6915,0.0,0.0,-3.6545,-3.6359,-3.6173,-3.6173,-3.6173,-3.6359,-3.6359,-3.6359,-3.6359,0.0,0.0,0.0,0.0,0.0,0.0,0.0,1.64,1.64,1.6588,1.6683,1.6588,1.6319,1.6725,1.7042,0.0,0.0,0.0,0.0,0.0,0.0,0.0,0.0,0.0,0.0,0.0,0.0,1.0114,1.0179,0.0,0.0,0.0,0.0,0.0,0.0,0.9193,0.8597,0.8834,0.0,0.0,0.0,0.0,0.0,0.0,0.0,0.0,0.0,-0.1459,-0.263,-0.2217,-0.3417,-0.5366,-0.6939,-0.8061,-0.9253,-1.0982,-1.1439,-1.14,-1.2032,-1.2235,-1.2235,-1.2733,-1.3171,-1.4152,-1.6082,-1.6747,-1.7422,-1.9688,-2.0404,-2.0863,-2.1834,-2.2448,-2.3269,-2.4291,-2.477,-2.5409,-2.6122,-2.6266,-2.6472,-2.6966,-2.7377,-2.8101,-2.9182,-3.0079,-3.0973,-3.1877,-3.2409,0.0,-3.3431,-3.37,-3.4036,-3.468,-3.471,-3.471,-3.471,-3.471,-3.471,-3.471,-3.471,-3.471,-3.4882,-3.5801,-3.6173,-3.6359,-3.7301,0.0,0.0,-3.6915,-3.6545,-3.6173,-3.6173,-3.6545,-3.6915,-3.6915,-3.6915,-3.6915,0.0,0.0,0.0,0.0,0.0,0.0,1.64,1.64,1.64,1.6414,1.6494,1.6494,1.6224,1.6414,1.655,1.658,0.0,0.0,0.0,0.0,0.0,0.0,0.0,0.0,0.0,0.0,1.0301,0.9957,0.9853,0.0,0.0,0.0,0.0,0.0,0.0,0.8977,0.8438,0.7842,0.0,0.0,0.0,0.0,0.0,0.0,0.0,0.0,0.0,0.0,-0.248,-0.2636,-0.442,-0.6522,-0.7455,-0.879,-1.0383,-1.1615,-1.1326,-1.0981,-1.2173,-1.2069,-1.1902,-1.2567,-1.301,-1.3839,-1.609,-1.6834,-1.7755,-2.0043,-2.0608,-2.1036,-2.1695,-2.2324,-2.2935,-2.3634,-2.4601,-2.5359,-2.5663,-2.62,-2.6778,-2.6966,-2.7752,-2.8642,-2.9528,-3.0437,-3.1507,-3.2409,-3.2601,0.0,-3.3422,-3.3627,-3.4036,-3.468,-3.471,-3.471,-3.471,-3.471,-3.471,-3.471,-3.471,-3.471,-3.4695,-3.5801,-3.6173,-3.6173,-3.7285,0.0,0.0,-3.7301,-3.7301,-3.71,-3.71,-3.7301,-3.7301,-3.7301,-3.7301,-3.7301,0.0,0.0,0.0,0.0,0.0,1.64,1.6116,1.6211,1.6305,1.613,1.6211,1.6305,1.613,1.6035,1.6021,1.6021,1.5547,0.0,0.0,0.0,0.0,0.0,0.0,0.0,0.0,0.0,1.0097,0.9771,0.9582,0.9516,0.0,0.0,0.9447,0.9214,0.0,0.0,0.0,0.0,0.0,0.0,0.0,0.0,0.0,0.0,0.0,0.0,0.0,0.0,0.0,0.0,0.0,-0.7659,-0.8108,-0.9192,-1.0542,-1.1323,-1.1219,-1.0873,-1.1818,-1.1902,-1.1748,-1.2451,-1.301,-1.3957,-1.6148,-1.7208,-1.8285,-2.0169,-2.0748,-2.1134,-2.2028,-2.2406,-2.2728,-2.3371,-2.445,-2.5102,-2.5144,-2.6068,-2.6783,-2.6807,-2.772,-2.8706,-2.9753,-3.0917,-3.1863,-3.2763,0.0,0.0,-3.3232,-3.3554,-3.3993,-3.4549,-3.4651,-3.471,-3.471,-3.471,-3.471,-3.471,-3.471,-3.471,-3.471,-3.5615,-3.5987,-3.6173,-3.71,0.0,0.0,-3.7671,-3.7671,-3.7671,-3.7486,-3.7486,-3.7671,-3.7486,-3.7486,-3.7671,0.0,0.0,0.0,0.0,0.0,0.0,1.5832,1.5832,1.5832,1.5832,1.5832,1.5832,1.5832,1.5642,1.5547,1.5547,1.5547,0.0,0.0,0.0,0.0,0.0,0.0,0.0,0.0,0.0,0.9706,0.9382,0.9307,0.9232,0.9388,0.9537,0.9327,0.8854,0.0,0.0,0.0,0.0,0.0,0.0,0.0,0.0,0.0,0.0,0.0,0.0,0.0,0.0,0.0,0.0,0.0,0.0,0.0,-0.9307,-0.9427,-1.0025,-1.0837,-1.1237,-1.0804,-1.1403,-1.2105,-1.224,-1.3505,-1.4998,-1.6444,-1.7851,-1.9075,-2.0294,-2.0748,-2.1293,-2.2361,-2.2567,-2.2889,-2.368,-2.4287,-2.4625,-2.4637,-2.5325,-2.6005,-2.6364,-2.7373,-2.841,-2.9459,-3.097,-3.2232,-3.2778,0.0,0.0,-3.3232,-3.3554,-3.3875,-3.4212,-3.4534,-3.471,-3.471,-3.471,-3.471,-3.471,-3.471,-3.471,-3.471,-3.5241,-3.5786,0.0,0.0,0.0,0.0,-3.7671,-3.7671,-3.7671,-3.71,-3.7285,-3.7671,-3.71,-3.7285,-3.7671,0.0,0.0,0.0,0.0,0.0,0.0,0.0,1.5832,1.5832,1.5832,1.5832,1.5832,1.5832,1.5642,1.5547,1.5547,1.5356,0.0,0.0,0.0,0.0,0.0,0.0,0.0,0.0,0.9723,0.9486,0.9382,0.9092,0.897,0.8889,0.9033,0.8467,0.7386,0.7469,0.6766,0.0,0.0,0.0,0.0,0.0,0.0137,0.0,0.0,0.0,0.0,0.0,0.0,0.0,0.0,0.0,0.0,0.0,0.0,0.0,-0.9882,-1.0355,-1.0808,-1.1201,-1.2274,-1.2929,-1.2501,-1.4009,-1.5917,-1.6406,-1.7919,-1.9423,-2.0326,-2.1195,-2.1823,-2.2545,-2.2889,-2.3316,-2.416,-2.4516,-2.4818,-2.5373,-2.6178,-2.6696,-2.7058,-2.8474,-2.9766,-3.1012,-3.1642,-3.2232,0.0,0.0,0.0,-3.291,-3.3436,-3.3875,-3.4212,-3.4534,-3.471,-3.471,-3.471,-3.471,-3.471,-3.471,-3.471,-3.471,-3.5241,-3.56,0.0,0.0,0.0,0.0,-3.7671,-3.8208,-3.9109,-3.8909,-3.8726,-3.8726,-3.9987,-3.9092,-3.7285,0.0,0.0,0.0,0.0,0.0,0.0,0.0,1.6008,1.5832,1.5832,1.5832,1.5737,1.5737,1.5452,1.5261,1.5166,1.4688,0.0,0.0,0.0,0.0,0.0,0.0,0.0,0.9572,0.9426,0.9327,0.9161,0.9051,0.8673,0.8243,0.8329,0.7529,0.6248,0.6315,0.5628,0.0,0.0,0.0,0.0,0.0398,0.0136,0.0,0.0,0.0,0.0,0.0,0.0,0.0,0.0,0.0,0.0,0.0,0.0,0.0,0.0,-0.9949,-1.0539,-1.1717,-1.2655,-1.3497,-1.3561,-1.5194,-1.6775,-1.7078,-1.8452,-1.9953,-2.0462,-2.126,-2.2084,-2.2567,-2.2889,-2.3466,-2.4112,-2.4673,-2.5035,-2.5507,-2.6487,-2.7321,-2.8017,-2.9277,-3.0506,0.0,-3.2054,0.0,0.0,0.0,0.0,-3.2778,-3.3378,-3.3832,-3.4022,-3.4475,-3.4882,-3.5428,-3.5615,-3.5801,-3.6344,-3.6344,-3.6344,-3.6344,-3.6158,-3.6344,0.0,0.0,0.0,0.0,-3.9109,-3.9822,-4.0549,-4.0351,-4.0351,-4.0351,-4.1256,-4.0532,-3.9092,0.0,0.0,0.0,0.0,0.0,0.0,0.0,1.648,1.5832,1.5832,1.5832,1.5737,1.5547,1.5261,1.4987,1.4688,1.3607,0.0,0.0,0.0,0.0,0.0,0.0,0.0,0.8891,0.9048,0.9096,0.892,0.8823,0.8332,0.7312,0.7323,0.6517,0.5279,0.5286,0.4488,0.0,0.0,0.0,0.0,0.0262,0.0,0.0,0.0,0.0,0.0,0.0,0.0,0.0,0.0,0.0,0.0,0.0,0.0,0.0,0.0,0.0,0.0,0.0,-1.2866,-1.3811,-1.539,-1.6877,-1.7883,-1.8407,-1.9573,0.0,-2.0565,-2.1249,-2.2061,-2.2567,-2.2889,-2.3383,-2.3764,-2.4782,-2.5446,-2.5483,-2.6698,-2.8042,-2.9486,-3.0015,-3.0668,-3.2026,-3.2054,0.0,0.0,0.0,0.0,-3.294,-3.3378,-3.3729,-3.4093,-3.4544,-3.5428,-3.6884,-3.7054,-3.7791,-3.9076,-3.9076,-3.9076,-3.9076,-3.7607,-3.7623,0.0,0.0,0.0,0.0,-4.1454,-4.1994,-4.2156,-4.1599,-4.1599,-4.1976,-4.1779,-4.1779,-4.1976,0.0,0.0,0.0,0.0,0.0,0.0,0.0,0.0,0.0,0.0,1.5832,1.5737,1.5547,1.5261,1.4783,0.0,0.0,0.0,0.0,0.0,0.0,0.0,0.0,0.0,0.8727,0.8884,0.8934,0.8764,0.8213,0.7499,0.6852,0.6266,0.5103,0.3669,0.3831,0.3037,0.0,0.0,0.0,0.0,0.0393,0.0268,0.0,0.0,0.0,0.0,-0.3514,-0.4837,0.0,0.0,0.0,0.0,0.0,0.0,0.0,0.0,-0.9635,-1.025,-1.1911,0.0,-1.5151,-1.5957,-1.7817,-1.917,0.0,-1.9234,-2.035,-2.0522,-2.1423,-2.2168,-2.2522,-2.3211,-2.3884,-2.4661,-2.5144,-2.5714,-2.6512,-2.8049,-2.9539,-3.1203,-3.1217,-3.1423,-3.2586,-3.2232,0.0,0.0,0.0,-3.3293,-3.4319,-3.3903,-3.4623,-3.6933,-3.6526,-3.6514,-3.6884,-3.7975,-3.871,-3.9076,-3.9076,-3.9076,-3.9076,-3.871,-3.9076,0.0,0.0,0.0,-4.1454,-4.1814,-4.2712,-4.3586,-4.3408,-4.3229,-4.3229,-4.4668,-4.3586,-4.1599,0.0,0.0,0.0,0.0,0.0,0.0,0.0,0.0,0.0,0.0,1.5832,1.5642,1.5356,1.5178,1.4592,0.0,0.0,0.0,0.0,0.0,0.0,0.0,0.0,0.8807,0.8568,0.8619,0.8666,0.871,0.7755,0.6927,0.6033,0.5081,0.3908,0.2594,0.2654,0.2195,0.0,0.0,0.0,0.0259,0.026,0.0,0.0,0.0,0.0,0.0,-0.4068,-0.5527,0.0,-0.8703,-0.9269,-0.9237,0.0,0.0,0.0,0.0,-0.9446,-1.0203,-1.2729,-1.4399,-1.5501,-1.6606,-1.8401,-1.9693,-1.9088,-1.9653,-2.0414,-2.0845,-2.1626,-2.2556,-2.2854,-2.3359,-2.4021,-2.4576,-2.5276,-2.6216,-2.7725,-2.8916,-2.992,-3.1301,-3.1507,-3.1863,0.0,0.0,0.0,0.0,0.0,-3.3807,-3.3792,-3.4441,-3.5331,-3.6916,-3.7606,-3.8159,-3.8893,-3.9623,-4.0368,-4.111,-4.111,-4.111,-4.111,-4.0713,-4.0894,0.0,0.0,0.0,-4.3069,-4.3604,-4.451,-4.504,-4.504,-4.5021,-4.4845,-4.5939,-4.5216,-4.3763,0.0,0.0,0.0,0.0,0.0,0.0,0.0,0.0,0.0,0.0,0.0,0.0,0.0,0.0,0.0,0.0,0.0,0.0,0.0,0.0,0.0,0.0,0.8726,0.8607,0.8269,0.8391,0.8533,0.8602,0.7627,0.6463,0.525,0.4139,0.2965,0.1888,0.1949,0.1717,0.1333,0.0982,0.0754,0.0388,0.0129,0.0,0.0,0.0,0.0,0.0,0.0,0.0,0.0,-0.8832,-0.9242,-0.9177,-0.9275,0.0,0.0,0.0,0.0,0.0,-1.3133,-1.4424,-1.538,-1.7534,-1.9093,-1.9995,-1.9995,-2.032,-2.079,-2.1168,-2.1987,-2.2636,-2.3187,-2.352,-2.3961,-2.4299,-2.5564,-2.7157,-2.9039,-2.9495,-2.9974,-3.0767,-3.1521,0.0,0.0,0.0,0.0,0.0,0.0,-3.4319,-3.347,-3.5095,-3.6332,-3.6916,-3.8465,-4.0118,-4.1652,-4.1652,-4.2209,-4.3499,-4.3499,-4.3499,-4.3499,-4.273,-4.2533,-4.3087,0.0,0.0,-4.4491,-4.5763,-4.6308,-4.6308,-4.6308,-4.6308,-4.6308,-4.6308,-4.6308,-4.6483,0.0,0.0,0.0,0.0,0.0,0.0,0.0,0.0,0.0,0.0,0.0,0.0,0.0,0.0,0.0,0.0,0.0,0.0,0.0,0.0,0.0,0.8825,0.8627,0.8407,0.8269,0.8289,0.8334,0.8393,0.7425,0.6279,0.492,0.403,0.2968,0.1888,0.1706,0.1357,0.0984,0.074,0.0377,0.0129,0.0,0.0,0.0,0.0,0.0,0.0,0.0,0.0,0.0,-0.9152,-0.9291,-0.928,-0.9296,0.0,0.0,0.0,0.0,0.0,-1.1231,-1.2585,-1.4676,-1.8662,-1.9962,-2.0447,-2.0447,-2.0664,-2.1148,-2.1556,-2.2171,-2.2682,-2.3128,-2.352,-2.4082,-2.4806,-2.6475,-2.8194,-2.9681,-3.0575,-3.1273,-3.1685,0.0,0.0,0.0,0.0,0.0,0.0,0.0,0.0,-3.6237,-3.6785,-3.8376,-4.1191,-4.0736,-4.13,-4.3124,-4.3124,-4.3303,-4.3499,-4.3837,-4.3837,-4.3499,-4.3837,-4.4174,-4.4548,0.0,-4.5236,-4.5939,-4.6133,-4.6308,-4.6308,-4.6308,-4.6308,-4.6308,-4.6308,-4.6308,-4.6483,0.0,0.0,0.0,0.0,0.0,0.0,0.0,0.0,0.0,0.0,0.0,0.0,0.0,0.0,0.0,0.0,0.0,0.0,0.0,0.0,0.8931,0.8825,0.8435,0.8172,0.8147,0.8228,0.8377,0.8375,0.7265,0.6155,0.5142,0.3423,0.2312,0.1631,0.1577,0.123,0.061,0.0492,0.0251,0.0,0.0,0.0,0.0,0.0,0.0,0.0,0.0,0.0,0.0,0.0,-0.9209,-0.9226,-0.9285,0.0,0.0,0.0,0.0,0.0,-1.1864,-1.2777,-1.4002,-1.7625,-1.951,-2.0436,-2.0554,-2.1794,-2.2839,-2.2792,-2.3174,-2.3365,-2.3329,-2.3864,-2.4862,-2.633,-2.7393,-2.8333,-2.9668,-3.0301,-3.0793,0.0,0.0,0.0,0.0,0.0,0.0,0.0,0.0,0.0,-3.6929,-3.7956,-3.9374,-4.1016,-4.086,-4.1604,-4.3499,-4.3499,-4.3499,-4.3499,-4.4015,-4.4015,-4.3837,-4.437,-4.4902,-4.5255,0.0,-4.5607,-4.6308,-4.6308,-4.6308,-4.6308,-4.6308,-4.6308,-4.6308,-4.6308,-4.6483,-4.6832,0.0,0.0,0.0,0.0,0.0,0.0,0.0,0.0,0.0,0.0,0.0,0.0,0.0,0.0,0.0,0.0,0.0,0.0,0.0,0.9031,0.8726,0.8825,0.8336,0.8058,0.8092,0.8106,0.8253,0.8322,0.7362,0.6265,0.5254,0.3014,0.1639,0.1275,0.1333,0.1104,0.0486,0.0493,0.0378,0.0129,0.0,0.0,0.0,0.0,0.0,0.0,0.0,0.0,0.0,0.0,0.0,0.0,0.0,0.0,0.0,-0.9302,-0.9302,-1.0047,-1.2641,-1.3103,-1.3484,-1.6492,-1.8485,-1.984,-2.0268,-2.2095,-2.3639,-2.3683,-2.411,-2.428,-2.3707,-2.4441,-2.579,-2.7499,-2.8043,-2.8686,-2.9847,-3.0424,-3.0724,0.0,0.0,0.0,0.0,0.0,0.0,0.0,0.0,0.0,-3.7447,-3.8925,-4.0172,-4.0666,-4.0949,-4.1888,-4.3499,-4.3499,-4.3499,-4.3499,-4.4015,-4.437,-4.4193,-4.4725,-4.5255,-4.5607,-4.5607,-4.5958,-4.6308,-4.6308,-4.6308,-4.6308,-4.6308,-4.6308,-4.6308,-4.6308,-4.6483,-4.7007,0.0,0.0,0.0,0.0,0.0,0.0,0.0,0.0,0.0,0.0,0.0,0.0,0.0,0.0,0.0,0.0,0.0,0.0,0.0,0.8733,0.8528,0.8825,0.8336,0.8106,0.8248,0.7948,0.7878,0.7828,0.7726,0.6702,0.4923,0.2898,0.1766,0.1414,0.1096,0.0987,0.0987,0.0627,0.0509,0.0517,0.0524,0.0,0.0,0.0,0.0,0.0,0.0,0.0,0.0,0.0,0.0,0.0,0.0,0.0,-0.9302,-0.9302,-0.959,-1.0191,-1.2067,-1.2809,-1.3837,-1.6676,-1.7539,-1.8319,-1.9851,-2.092,-2.218,-2.3758,-2.4539,-2.4714,-2.419,-2.5151,-2.6223,-2.6821,-2.8601,-2.986,-3.0437,0.0,0.0,0.0,0.0,0.0,0.0,0.0,0.0,0.0,0.0,0.0,-3.8819,-4.0216,-4.1294,-4.2079,-4.2134,-4.2692,-4.3481,-4.3499,-4.3499,-4.3499,-4.437,-4.4548,-4.4193,-4.5078,-4.5607,-4.5607,-4.5607,-4.5958,-4.6308,-4.6308,-4.6308,-4.6308,-4.6308,-4.6308,-4.6308,-4.6308,-4.6308,-4.6483,0.0,0.0,0.0,0.0,0.0,0.0,0.0,0.0,0.0,0.0,0.0,0.0,0.0,0.0,0.0,0.0,0.0,0.0,0.0,0.8627,0.8428,0.8528,0.8237,0.7965,0.7824,0.7808,0.7943,0.8249,0.6893,0.5806,0.4889,0.2911,0.1778,0.1437,0.1346,0.1235,0.0989,0.0879,0.0637,0.0517,0.0524,-0.0133,0.0,0.0,0.0,0.0,0.0,0.0,0.0,0.0,-0.9247,-0.9302,-0.9302,-0.9302,-0.9302,-0.9302,-0.9446,-0.9908,-1.1636,-1.303,-1.4382,-1.6277,-1.7946,-1.9533,-2.1402,-2.3246,-2.4596,-2.4808,-2.5108,-2.5347,-2.5009,-2.6293,-2.7599,-2.7603,-2.8921,-3.0093,-3.0437,0.0,0.0,0.0,0.0,0.0,0.0,0.0,0.0,0.0,0.0,0.0,0.0,-4.0892,-4.1427,-4.2252,-4.2271,-4.2674,-4.3481,-4.3837,-4.4015,-4.4015,-4.4548,-4.4725,-4.4725,-4.5255,-4.5783,-4.5958,-4.5783,-4.5958,-4.6308,-4.6308,-4.6308,-4.6308,-4.6308,-4.6308,-4.6308,-4.6308,-4.6308,-4.6483,0.0,0.0,0.0,0.0,0.0,0.0,0.0,0.0,0.0,0.0,0.0,0.0,0.0,0.0,0.0,0.0,0.0,0.0,0.8627,0.8428,0.8336,0.8428,0.8038,0.7766,0.7711,0.7642,0.7755,0.8059,0.6041,0.4961,0.4475,0.2688,0.1664,0.1449,0.1471,0.1362,0.112,0.1137,0.1026,0.0651,0.0264,-0.0533,0.0,0.0,0.0,0.0,0.0,0.0,0.0,0.0,-0.9215,-0.9258,-0.9291,-0.9302,-0.9302,-0.9446,-0.959,-1.0185,-1.2301,-1.3506,-1.4828,-1.7607,-1.9108,-2.0602,-2.3109,-2.4544,-2.5237,-2.5391,-2.5539,-2.56,-2.5929,-2.717,-2.8095,-2.8087,-2.9229,-3.0272,0.0,0.0,0.0,0.0,0.0,0.0,0.0,0.0,0.0,0.0,0.0,0.0,0.0,-4.106,-4.1542,-4.2223,-4.237,-4.295,-4.3653,-4.4137,-4.437,-4.437,-4.4902,-4.5078,-4.5078,-4.5607,-4.5958,-4.6308,-4.5958,-4.5958,-4.6308,-4.6308,-4.6308,-4.6308,-4.6308,-4.6308,-4.6308,-4.6308,-4.6308,-4.6483,0.0,0.0,0.0,0.0,0.0,0.0,0.0,0.0,0.0,0.0,0.0,0.0,0.0,0.0,0.0,0.0,0.0,0.0,0.8336,0.8137,0.8137,0.8428,0.7839,0.7711,0.7846,0.7363,0.7223,0.7223,0.5393,0.418,0.3558,0.2455,0.1664,0.1449,0.1472,0.1494,0.1515,0.1538,0.13,0.0923,-0.0134,-0.0941,-0.1881,0.0,0.0,0.0,0.0,0.0,0.0,0.0,-0.9226,-0.9155,-0.9269,-0.9302,-0.9446,-0.9735,-1.0167,-1.1168,-1.4156,-1.4457,-1.5219,-2.0923,-2.1371,-2.1279,-2.4486,-2.3962,-2.3279,-2.4985,-2.5433,-2.5775,-2.7317,-2.7599,-2.781,-2.8334,-2.9703,0.0,0.0,0.0,0.0,0.0,0.0,0.0,0.0,0.0,0.0,0.0,0.0,0.0,0.0,-4.106,-4.1413,-4.2329,-4.2739,-4.3322,-4.4258,-4.4693,-4.4902,-4.4902,-4.5431,-4.5607,-4.5607,-4.6133,-4.6308,-4.6308,-4.6308,-4.6308,-4.6308,-4.6308,-4.6308,-4.6308,-4.6308,-4.6308,-4.6308,-4.6308,-4.6308,-4.6483,0.0,0.0,0.0,0.0,0.0,0.0,0.0,0.0,0.0,0.0,0.0,0.0,0.0,0.0,0.0,0.0,0.0,0.0,0.8137,0.8038,0.8038,0.8137,0.7746,0.761,0.7539,0.7246,0.6861,0.6608,0.5402,0.436,0.3619,0.2258,0.1692,0.1842,0.1619,0.1508,0.1516,0.1295,0.0525,-0.0528,-0.0802,-0.215,-0.3897,0.0,0.0,0.0,0.0,0.0,0.0,0.0,0.0,0.0,-0.9171,-0.9188,-0.9182,-0.9325,-0.9752,-1.0643,-1.1701,-1.4482,-1.7404,-1.8876,-2.1402,-2.3752,-2.4656,-2.4615,-2.4675,-2.5689,-2.6607,-2.7209,-2.7004,-2.8113,-2.8921,-2.8548,-2.9703,0.0,0.0,0.0,0.0,0.0,0.0,0.0,0.0,0.0,0.0,0.0,0.0,0.0,0.0,-4.1378,-4.1732,-4.2329,-4.3063,-4.3668,-4.4258,-4.5026,-4.5431,-4.5431,-4.5958,-4.5958,-4.5607,-4.6133,-4.6308,-4.6308,-4.6308,-4.6308,-4.6308,-4.6308,-4.6308,-4.6308,-4.6308,-4.6308,-4.6308,-4.6308,-4.6308,-4.6308,0.0,0.0,0.0,0.0,0.0,0.0,0.0,0.0,0.0,0.0,1.1385,1.0314,0.0,0.0,0.0,0.0,0.0,0.0,0.8038,0.7939,0.7839,0.8038,0.7698,0.7412,0.7287,0.7277,0.6669,0.5539,0.5017,0.4162,0.2943,0.2035,0.1703,0.1978,0.1629,0.1518,0.1402,0.0652,-0.0264,-0.1196,-0.2009,-0.336,-0.4839,0.0,0.0,0.0,0.0,0.0,0.0,0.0,0.0,0.0,-0.9117,-0.9242,-0.9349,-1.01,-1.0896,-1.2036,-1.3444,-1.6071,-1.8663,-1.9913,-2.1998,-2.4064,-2.4972,-2.524,-2.5748,-2.6418,-2.7183,-2.7706,-2.7654,-2.8509,0.0,-2.9216,0.0,0.0,0.0,0.0,0.0,0.0,0.0,0.0,0.0,0.0,0.0,0.0,0.0,0.0,0.0,-4.1882,-4.2162,-4.2593,-4.3329,-4.3919,-4.453,-4.5319,-4.5784,-4.5958,-4.6133,-4.6133,-4.5958,-4.6133,-4.6308,-4.6308,-4.6308,-4.6308,-4.6308,-4.6308,-4.6308,-4.6308,-4.6308,-4.6308,-4.6308,-4.6308,-4.6308,-4.6308,0.0,0.0,0.0,0.0,0.0,0.0,0.0,0.0,0.0,0.0,1.158,1.0511,0.0,0.0,0.0,0.0,0.0,0.0,0.0,0.7746,0.7746,0.7939,0.7585,0.727,0.698,0.732,0.6542,0.4478,0.4485,0.3598,0.1891,0.1921,0.1951,0.1981,0.1633,0.1402,0.1423,-0.0131,-0.0931,-0.1481,-0.3629,-0.4574,-0.5117,-0.6857,0.0,0.0,0.0,0.0,0.0,0.0,0.0,0.0,-0.9063,-0.9305,-0.9787,-1.1314,-1.2851,-1.4591,-1.7438,-1.8438,-1.9375,-2.2603,-2.2993,-2.3179,-2.5518,-2.6273,-2.6443,-2.7304,-2.7341,-2.7612,-2.8804,-2.8894,-2.9172,0.0,0.0,0.0,0.0,0.0,0.0,0.0,0.0,0.0,0.0,0.0,0.0,0.0,0.0,0.0,0.0,-4.2402,-4.2735,-4.3068,-4.3472,-4.4233,-4.5019,-4.5449,-4.5879,-4.6308,-4.6308,-4.6308,-4.6308,-4.6308,-4.6308,-4.6308,-4.6308,-4.6308,-4.6308,-4.6308,-4.6308,-4.6308,-4.6308,-4.6308,-4.6308,-4.6308,-4.6308,-4.6308,0.0,0.0,0.0,0.0,0.0,0.0,0.0,0.0,0.0,0.0,0.0,0.0,0.0,0.0,0.0,0.0,0.0,0.0,0.0,0.7646,0.7646,0.7646,0.7576,0.7364,0.698,0.721,0.62,0.4131,0.4415,0.3656,0.1922,0.1708,0.1734,0.2011,0.1402,0.1164,0.1051,-0.0665,-0.2023,-0.3001,-0.4585,-0.5545,-0.6281,-0.7152,-0.7526,0.0,0.0,0.0,0.0,0.0,0.0,0.0,-0.9251,-0.9513,-0.9787,-1.0335,-1.2255,-1.4289,-1.4897,-1.7908,-2.088,-2.1279,-2.3105,-2.4955,-2.6293,-2.6965,-2.7304,-2.7487,-2.7695,-2.822,-2.9271,-2.9259,-2.9299,0.0,0.0,0.0,0.0,0.0,0.0,0.0,0.0,0.0,0.0,0.0,0.0,0.0,0.0,0.0,-4.2402,-4.2735,-4.3068,-4.3068,-4.3826,-4.4421,-4.5019,-4.5449,-4.5879,0.0,-4.6308,-4.6308,-4.6308,-4.6308,-4.6308,-4.6308,-4.6308,-4.6308,-4.6308,-4.6308,-4.6308,-4.6308,-4.6308,-4.6308,-4.6308,-4.6308,-4.6308,-4.6308,0.0,0.0,0.0,0.0,0.0,0.0,0.0,0.0,0.0,0.0,0.0,0.0,0.0,0.0,0.0,0.0,0.0,0.0,0.0,0.7347,0.7302,0.7431,0.7632,0.7481,0.6848,0.6512,0.5475,0.383,0.3774,0.2988,0.169,0.1729,0.1754,0.1768,0.1291,0.0654,-0.0132,-0.1738,-0.2969,-0.4208,-0.5389,-0.6207,-0.6922,-0.7545,-0.7922,-0.8066,-0.8789,0.0,0.0,0.0,0.0,0.0,0.0,0.0,-1.0335,-1.1769,-1.3316,-1.4997,-1.7183,-1.9517,-2.1592,-2.2385,-2.4214,-2.5778,-2.6669,-2.7304,-2.7812,-2.7812,-2.7981,-2.8493,-2.9271,-2.9206,0.0,0.0,0.0,0.0,0.0,0.0,0.0,0.0,0.0,0.0,0.0,0.0,0.0,0.0,0.0,-4.2902,-4.3048,-4.3214,-4.338,-4.338,-4.3779,-4.4277,-4.4726,-4.5156,-4.5586,-4.6016,-4.6211,-4.6638,-4.7314,-4.6638,-4.6308,-4.6308,-4.6308,-4.6308,-4.6308,-4.6308,-4.6308,-4.6308,-4.6987,-4.6813,-4.6308,-4.6987,-4.6813,-4.6308,0.0,0.0,0.0,0.0,0.0,0.0,0.0,0.0,0.0,0.0,0.0,0.0,0.0,0.0,0.0,0.0,0.0,0.0,0.0,0.0,0.0,0.724,0.7565,0.7368,0.674,0.5812,0.4749,0.3541,0.2992,0.2297,0.1339,0.1746,0.1768,0.1395,0.0911,0.0,-0.1191,-0.2811,-0.4039,-0.4992,-0.6191,-0.6862,-0.7143,-0.7927,-0.8456,-0.8734,-0.9642,-0.982,-0.9703,-0.9543,0.0,0.0,0.0,0.0,-1.1473,-1.3654,-1.4875,-1.6377,-2.034,-2.1636,-2.2303,-2.422,-2.5298,-2.6109,-2.6837,-2.763,-2.8136,-2.8136,-2.8305,-2.848,-2.9031,0.0,0.0,0.0,0.0,0.0,0.0,0.0,0.0,0.0,0.0,0.0,0.0,0.0,0.0,0.0,0.0,-4.338,-4.3711,-4.3711,-4.3711,-4.3711,-4.3711,-4.3926,-4.4394,-4.4824,-4.5405,-4.6009,-4.6789,-4.7661,-4.8675,-4.7488,-4.6987,-4.6987,-4.6987,-4.6987,-4.6987,-4.6987,-4.6987,-4.7161,-4.8179,-4.8007,-4.7161,-4.8007,-4.7661,-4.6638,0.0,0.0,0.0,0.0,0.0,0.0,0.0,0.0,0.0,0.0,1.2662,1.237,0.0,0.0,0.0,0.0,0.0,0.0,0.0,0.0,0.0,0.7696,0.751,0.7194,0.6744,0.5847,0.4774,0.336,0.2646,0.1956,0.1005,0.1385,0.1397,0.1029,-0.0262,-0.0928,-0.1206,-0.3627,-0.4738,-0.5062,-0.6753,-0.7444,-0.7645,-0.8622,-0.8984,-0.9123,-0.9546,-0.9685,-0.9692,-0.971,-1.0492,0.0,0.0,0.0,-1.4147,-1.3696,-1.5942,-1.872,-1.9927,-2.1889,-2.3716,-2.4972,-2.5627,-2.6274,-2.7175,-2.7812,-2.8136,-2.8136,-2.8487,-2.8919,0.0,0.0,0.0,0.0,0.0,0.0,0.0,0.0,0.0,0.0,0.0,0.0,0.0,0.0,0.0,0.0,-4.338,-4.3711,-4.3711,-4.3711,-4.3711,-4.3711,-4.3711,-4.3926,-4.4394,-4.4824,-4.5746,-4.7528,-4.9151,-4.9891,-5.0061,-4.987,-4.9891,-4.9891,-4.9891,-4.9891,-4.9891,-4.9891,-4.9891,-4.9891,-5.0061,-5.0061,-4.9721,-4.8675,-4.8159,-4.7834,0.0,0.0,0.0,0.0,0.0,0.0,0.0,0.0,0.0,0.0,0.0,1.2467,0.0,0.0,0.0,0.0,0.0,0.0,0.0,0.0,0.0,0.7516,0.7483,0.7271,0.6536,0.5092,0.3883,0.3011,0.1702,0.0865,0.0506,0.0636,0.0515,0.013,-0.0795,-0.188,-0.3399,-0.4583,-0.5555,-0.6309,-0.7491,-0.8078,-0.8581,-0.9354,-0.9787,-1.0122,-1.0457,-1.0914,-1.1242,-1.1108,-1.1844,-1.2816,-1.2165,0.0,0.0,0.0,-1.6491,-1.8007,-2.0147,-2.2494,-2.4652,-2.5527,-2.6084,-2.6812,-2.7706,-2.815,-2.8487,-2.8487,-2.8824,-2.9243,0.0,0.0,0.0,0.0,0.0,0.0,0.0,0.0,0.0,0.0,0.0,0.0,0.0,0.0,0.0,0.0,-4.3546,-4.3711,-4.3711,-4.3711,-4.3711,-4.3711,-4.3711,-4.3808,-4.4004,-4.5084,-4.6817,-4.884,-5.0795,-5.187,-5.187,-5.2725,-5.2059,-5.04,-5.04,-5.04,-5.04,-5.04,-5.0548,-5.0864,-5.1536,-5.1368,-5.0696,-5.0843,-5.0358,-4.9188,0.0,0.0,0.0,0.0,0.0,0.0,0.0,0.0,0.0,0.0,0.0,0.0,0.0,0.0,0.0,0.0,0.0,0.0,0.0,0.0,0.0,0.7506,0.7487,0.7161,0.6498,0.4581,0.3336,0.2909,0.0863,-0.0125,0.0,-0.0515,-0.0916,-0.1463,-0.1741,-0.3113,-0.5348,-0.5811,-0.6648,-0.758,-0.8402,-0.8878,-0.9405,-1.0107,-1.0735,-1.1228,-1.1317,-1.1847,-1.2546,-1.2365,-1.3195,-1.4399,-1.3928,-1.4865,0.0,0.0,0.0,-1.8237,-2.0592,-2.2757,-2.4579,-2.5476,-2.6298,-2.7118,-2.8043,-2.8642,-2.8992,0.0,-2.9328,0.0,0.0,0.0,0.0,0.0,0.0,0.0,0.0,0.0,0.0,0.0,0.0,0.0,0.0,0.0,0.0,0.0,-4.338,-4.3546,-4.3711,-4.3711,-4.3711,-4.3711,-4.4021,-4.4186,-4.4186,-4.6516,-4.8519,-5.0321,-5.2622,-5.367,-5.367,-5.4719,-5.3902,-5.1725,-5.1558,-5.139,-5.139,-5.139,-5.1725,-5.2204,-5.3176,-5.2868,-5.2204,-5.2846,-5.237,-5.0886,0.0,0.0,0.0,0.0,0.0,0.0,0.0,0.0,0.0,0.0,0.0,0.0,0.9706,0.9023,0.8528,0.8428,0.7572,0.7142,0.7385,0.7197,0.7194,0.7754,0.7437,0.0,0.6722,0.48,0.351,0.2952,0.0626,-0.0254,0.0,-0.1698,-0.2935,-0.3693,-0.3647,-0.46,-0.6161,-0.743,-0.8314,-0.8932,-0.9354,-0.9846,-1.0242,-1.1094,-1.1523,-1.1916,-1.161,-1.2165,-1.3068,-1.2889,-1.4128,-1.5854,-1.5404,-1.7086,-1.909,0.0,0.0,0.0,-2.1498,-2.2114,-2.323,-2.4794,-2.5853,-2.6769,-2.8451,-2.916,-2.9481,-2.9481,0.0,0.0,0.0,0.0,0.0,0.0,0.0,0.0,0.0,0.0,0.0,0.0,0.0,0.0,0.0,0.0,0.0,0.0,-4.3068,-4.3234,-4.3711,-4.3711,-4.3711,-4.3711,-4.4822,-4.5474,-4.5474,-4.9415,-5.1617,-5.2153,-5.4442,-5.553,-5.553,-5.5691,-5.553,-5.5368,-5.4556,-5.4252,-5.4252,-5.4252,-5.4416,-5.4905,-5.4905,-5.4905,-5.4742,-5.4043,-5.3363,-5.268,0.0,0.0,0.0,0.0,0.0,0.0,0.0,0.0,0.0,0.0,0.0,0.0,0.0,0.8914,0.8477,0.8275,0.7258,0.6921,0.7523,0.7171,0.7247,0.7783,0.6709,0.5998,0.5774,0.361,0.2195,0.1625,0.0,-0.0767,-0.0785,-0.2388,-0.3622,-0.4465,-0.4977,-0.6115,-0.7622,-0.8132,-0.9126,-1.0467,-1.1803,-1.2974,-1.4088,-1.4932,-1.5496,-1.5695,-1.5026,-1.5153,0.0,0.0,0.0,0.0,-1.7313,-1.8418,-1.9628,-1.9749,-2.0544,-2.1618,-2.175,-2.2608,-2.3741,-2.5127,-2.599,-2.6972,-2.8409,-2.8907,-2.9187,-2.9533,0.0,0.0,0.0,0.0,0.0,0.0,0.0,0.0,0.0,0.0,0.0,0.0,0.0,0.0,0.0,0.0,0.0,0.0,0.0,-4.3234,-4.3711,-4.3711,-4.3711,-4.3711,-4.4186,-4.5148,-4.693,-4.9635,-5.1672,-5.2673,-5.462,-5.5706,-5.5691,-5.6037,-5.6221,-5.606,-5.5553,-5.5206,-5.5206,-5.4905,-5.523,-5.59,-5.5553,-5.5715,-5.59,-5.5553,-5.5206,-5.451,0.0,0.0,0.0,0.0,0.0,0.0,0.0,0.0,0.9213,0.9114,0.0,0.0,0.0,0.0,0.7147,0.661,0.591,0.5709,0.6255,0.5908,0.586,0.623,0.5276,0.4647,0.4243,0.2548,0.1352,0.0757,-0.0507,-0.142,-0.1859,-0.3479,-0.4858,-0.5847,-0.713,-0.8143,-0.901,-0.952,-1.0548,-1.2073,-1.3957,-1.5381,-1.6402,-1.7204,-1.7703,-1.7872,0.0,0.0,0.0,0.0,0.0,0.0,-1.9586,-1.9899,-2.0299,-2.0617,-2.0919,-2.1363,-2.1864,-2.2484,-2.348,-2.4835,-2.5869,-2.6853,-2.8241,-2.8987,-2.9385,-2.9842,0.0,0.0,0.0,0.0,0.0,0.0,0.0,0.0,0.0,0.0,0.0,0.0,0.0,0.0,0.0,0.0,0.0,0.0,0.0,0.0,-4.3711,-4.3711,-4.3876,-4.435,-4.4822,-4.6123,-4.8208,-5.0433,-5.1989,-5.2806,-5.4768,-5.551,-5.5198,-5.6055,-5.631,-5.5984,-5.5966,-5.5876,-5.5691,-5.5368,-5.5715,-5.6405,-5.606,-5.606,-5.6405,-5.6542,-5.6382,-5.5876,0.0,0.0,0.0,0.0,0.0,0.0,0.0,0.0,0.823,0.7925,0.0,0.0,0.0,0.0,0.0,0.3485,0.3384,0.3408,0.3578,0.3297,0.3118,0.3281,0.3217,0.2907,0.2339,0.1724,0.0993,0.0252,-0.1025,-0.2356,-0.3497,-0.5238,-0.6669,-0.808,-1.0296,-1.0792,-1.0115,-1.1468,-1.2604,-1.3356,-1.5694,-1.6701,-1.7019,-1.7414,-1.8041,0.0,-1.758,-1.825,0.0,-2.019,0.0,0.0,-2.2179,-2.1849,-2.1207,-2.0804,-2.0678,-2.0877,0.0,0.0,0.0,-2.4091,-2.5277,-2.6487,-2.7843,0.0,-2.9939,-3.0261,0.0,0.0,0.0,0.0,0.0,0.0,0.0,0.0,0.0,0.0,0.0,0.0,0.0,0.0,0.0,0.0,0.0,0.0,-4.2402,-4.2735,-4.3711,-4.3711,-4.435,-4.5474,-4.6909,-4.8208,-4.9494,-5.1711,-5.2767,-5.279,-5.4713,-5.513,-5.4234,-5.5747,-5.5937,-5.5169,-5.6008,-5.6221,-5.5691,-5.5691,-5.6037,-5.6405,-5.6405,-5.6405,-5.6405,-5.6861,-5.6702,-5.6566,0.0,0.0,0.0,0.0,0.0,0.7952,0.7614,0.6531,0.5732,0.0,0.0,0.0,0.3718,0.3704,0.3705,0.361,0.3131,0.3019,0.3186,0.2892,0.2336,0.1873,0.0962,0.0,-0.1246,-0.2123,-0.2911,-0.3766,-0.4174,-0.4619,-0.5235,-0.6774,-0.8283,-0.9606,-1.1114,-1.2163,-1.2765,-1.2889,-1.3819,-1.5306,-1.7673,-1.8921,-1.978,-2.1266,-2.1834,0.0,0.0,-2.151,-2.1764,0.0,-2.2094,-2.1732,0.0,-2.1823,-2.1622,-2.122,-2.1356,-2.1798,-2.1745,0.0,0.0,0.0,0.0,0.0,0.0,0.0,0.0,0.0,0.0,0.0,0.0,0.0,0.0,0.0,0.0,0.0,0.0,0.0,0.0,0.0,0.0,0.0,0.0,0.0,0.0,0.0,-4.2235,-4.2735,-4.3234,-4.3546,-4.3856,-4.4186,-4.6426,-4.7709,-4.8208,-5.1167,-5.255,-5.2322,-5.4135,-5.4765,-5.4751,-5.551,-5.6089,-5.6486,-5.6334,-5.6542,-5.6678,-5.6382,-5.6382,-5.6861,-5.6566,-5.6542,-5.6861,-5.7021,-5.6861,-5.6861,0.0,0.0,0.7617,0.7466,0.6917,0.6355,0.6027,0.483,0.3937,0.0,0.0,0.0,0.2428,0.1626,0.111,0.1359,0.0565,0.0,0.0229,-0.0234,-0.0713,-0.1194,-0.1958,-0.287,-0.3928,-0.4567,-0.5137,-0.5784,-0.5784,-0.6237,-0.6901,-0.8397,-0.9734,-1.1185,-1.268,-1.4095,-1.5173,-1.5391,-1.582,-1.6624,-1.9345,-2.0793,-2.1412,-2.2904,-2.3529,0.0,0.0,0.0,-2.3709,-2.4539,-2.4156,0.0,0.0,-2.2562,-2.2199,-2.1761,-2.2052,-2.2652,-2.2743,-2.3209,-2.3931,-2.4488,0.0,0.0,-2.6612,-2.7622,0.0,0.0,0.0,0.0,0.0,0.0,0.0,0.0,0.0,0.0,0.0,0.0,0.0,0.0,0.0,0.0,0.0,-4.106,-4.1229,-4.1695,-4.1882,-4.2383,-4.3068,-4.3546,-4.3711,-4.3711,-4.6264,-4.7549,-4.7549,-5.0721,-5.2163,-5.1867,-5.3601,-5.4218,-5.3842,-5.4736,-5.543,-5.5874,-5.5716,-5.6136,-5.6702,-5.6486,-5.6669,-5.7021,-5.6702,-5.6861,-5.7021,-5.718,-5.718,-5.7021,0.0,0.0,0.6105,0.6116,0.5244,0.4545,0.4545,0.3439,0.2651,0.0,0.2181,0.1578,0.0761,-0.1219,-0.2354,-0.2138,-0.3188,-0.3908,-0.392,-0.4263,-0.4596,-0.4784,-0.5236,-0.5701,-0.6174,-0.6306,-0.6485,-0.6845,-0.6976,-0.7597,-0.8731,-1.0085,-1.1556,-1.3035,-1.4725,-1.6213,-1.726,-1.833,-1.8327,-1.7944,-2.0991,-2.2144,0.0,0.0,-2.4063,-2.4488,-2.4993,-2.5428,-2.5992,-2.7254,-2.6871,0.0,0.0,0.0,0.0,0.0,-2.2946,-2.3554,-2.4179,-2.463,-2.5015,-2.5157,0.0,0.0,-2.6391,-2.7636,-2.8919,0.0,0.0,0.0,0.0,0.0,0.0,0.0,0.0,0.0,0.0,0.0,0.0,0.0,0.0,0.0,-4.106,-4.106,-4.121,-4.1528,-4.1695,-4.2216,-4.3068,-4.3546,-4.3856,-4.4021,-4.6426,-4.7709,-4.7868,-5.0743,-5.187,-5.1431,-5.3082,-5.3412,-5.227,-5.3956,-5.4585,-5.4343,-5.4704,-5.543,-5.6423,-5.6262,-5.654,-5.7021,-5.7021,-5.7021,-5.7021,-5.7473,-5.7339,-5.718,0.623,0.5382,0.4724,0.4814,0.3872,0.3192,0.3192,0.2192,0.137,0.1162,-0.0535,-0.1948,-0.2615,-0.3208,-0.3616,-0.3714,-0.3923,-0.429,-0.4634,-0.5029,-0.5534,-0.6279,-0.6817,-0.7718,-0.8985,-0.9092,-0.9472,-0.9877,-1.1052,-1.1607,-1.1939,-1.335,-1.466,-1.5744,-1.6353,-1.7249,-1.8337,-1.9567,-2.0197,-2.0638,-2.1849,-2.2395,-2.2675,-2.4248,-2.5607,-2.6906,-2.7256,-2.8462,-2.9818,-3.0112,-3.0071,-2.9414,0.0,0.0,0.0,-2.3755,0.0,0.0,-2.4643,-2.5084,0.0,0.0,0.0,0.0,-2.589,-2.6847,-2.7734,0.0,0.0,0.0,0.0,0.0,0.0,0.0,0.0,0.0,0.0,0.0,0.0,0.0,0.0,0.0,-4.106,-4.106,-4.106,-4.1229,-4.19,-4.2569,-4.3068,-4.3546,-4.435,-4.5779,-4.7229,-4.8662,-5.0076,-5.1977,-5.2612,-5.187,-5.3162,-5.3528,-5.3069,-5.3921,-5.4539,-5.5123,-5.5397,-5.5707,-5.6238,-5.6275,-5.654,-5.7021,-5.7021,-5.7021,-5.7021,-5.7473,-5.7473,-5.7497,0.4548,0.4,0.3635,0.377,0.2799,0.1994,0.1994,0.0423,-0.0747,-0.0968,-0.2623,-0.399,-0.4355,-0.4953,-0.5484,-0.5502,-0.6102,-0.6847,-0.7655,-0.8136,-0.8842,-1.0019,-1.0489,-1.1075,-1.2009,-1.211,-1.2334,-1.2816,-1.3473,-1.3866,-1.3866,-1.5173,-1.6213,-1.7249,-1.777,-1.8735,-2.0077,-2.1279,-2.1997,-2.2571,-2.2986,0.0,-2.4802,-2.6291,-2.7807,-2.901,-2.9813,-3.0759,-3.1788,-3.1593,-3.13,0.0,0.0,-2.9202,-2.8694,0.0,-2.6559,-2.7055,0.0,0.0,0.0,-2.6093,0.0,0.0,0.0,-2.7079,-2.8075,0.0,0.0,0.0,0.0,0.0,0.0,0.0,0.0,0.0,0.0,0.0,0.0,0.0,0.0,0.0,-4.106,-4.106,-4.106,-4.106,-4.1714,-4.2216,-4.2735,-4.3234,-4.4041,-4.5311,-4.7229,-4.8662,-4.9763,-5.1977,-5.2916,-5.2307,-5.337,-5.3665,-5.3294,-5.3776,-5.4367,-5.5025,-5.5135,-5.5422,-5.6154,-5.6131,-5.6384,-5.6565,-5.6516,-5.678,-5.7021,-5.7655,-5.7813,-5.7631,0.2944,0.2783,0.2496,0.2706,0.1374,0.0428,0.0428,-0.1501,-0.3026,-0.3408,-0.4801,-0.5899,-0.6107,-0.7268,-0.8147,-0.8089,-0.9506,-1.0666,-1.1423,-1.2159,-1.2738,-1.3376,-1.3834,-1.4143,-1.4428,-1.4484,-1.4772,-1.5043,-1.5342,-1.5473,-1.5434,-1.6567,-1.7618,-1.8489,-1.9458,-2.0628,-2.193,-2.342,-2.4299,-2.4762,0.0,-2.5883,-2.713,-2.878,-3.0124,-3.1301,-3.2574,-3.3211,-3.3432,-3.2961,-3.2625,-3.2221,-3.1901,-3.1743,0.0,0.0,0.0,0.0,0.0,0.0,0.0,0.0,0.0,-2.8122,0.0,0.0,0.0,0.0,0.0,0.0,0.0,0.0,0.0,0.0,0.0,0.0,0.0,0.0,0.0,0.0,0.0,0.0,0.0,-4.1024,-4.106,-4.106,-4.1546,-4.1882,-4.2402,-4.2902,-4.3546,-4.4678,-4.6748,-4.8345,-4.9293,-5.1647,-5.2764,-5.2764,-5.3521,-5.3521,-5.3243,-5.3672,-5.4063,-5.4447,-5.4568,-5.5009,-5.5905,-5.5902,-5.6033,-5.6099,-5.6287,-5.6588,-5.7035,-5.7947,-5.8129,-5.7813,0.2431,0.1905,0.106,0.1061,-0.0968,-0.2502,-0.2286,-0.3413,-0.4697,-0.5917,-0.7721,-0.9109,-0.9628,-1.1395,-1.2776,-1.3322,-1.4921,-1.5494,-1.4528,-1.6273,-1.6344,-1.402,-1.4595,-1.4974,-1.4619,-1.5077,-1.5303,-1.5303,-1.6813,-1.7467,-1.726,-1.8765,-1.9652,-1.9943,-2.2413,-2.3314,-2.3159,-2.6479,-2.7921,0.0,-2.9361,-2.9367,0.0,-3.0969,-3.2639,-3.4239,-3.5685,-3.646,-3.6848,0.0,-3.6412,-3.6256,0.0,-3.348,-3.3813,-3.0739,0.0,0.0,0.0,0.0,0.0,0.0,-2.9822,0.0,0.0,0.0,0.0,0.0,0.0,0.0,0.0,0.0,0.0,0.0,0.0,0.0,0.0,0.0,0.0,0.0,0.0,0.0,0.0,-4.0859,-4.106,-4.106,-4.1546,-4.1882,-4.2402,-4.2902,-4.4021,-4.5941,-4.6426,-4.7985,-5.0985,-5.1293,-5.2107,-5.3068,-5.3521,-5.3521,-5.3243,-5.3672,-5.3846,-5.3942,-5.4399,-5.4792,-5.5297,-5.537,-5.579,-5.6609,-5.6855,-5.6684,-5.6371,-5.78,-5.831,-5.8286,0.0639,0.0215,-0.054,-0.1189,-0.2299,-0.3221,-0.3813,-0.5455,-0.7132,-0.8571,-1.0119,-1.1265,-1.1812,-1.2967,-1.4328,-1.5792,0.0,-1.7611,0.0,0.0,-1.9699,-1.8411,-1.9148,-1.921,-1.8475,-1.8465,-1.8396,-1.8396,-1.9157,-1.967,-2.0195,-2.1252,-2.2148,-2.2808,-2.4788,-2.5881,-2.6377,-2.8935,-2.9847,0.0,0.0,0.0,0.0,-3.3203,-3.4546,-3.5981,-3.6904,-3.7255,-3.7511,0.0,-3.7556,0.0,0.0,0.0,0.0,0.0,0.0,0.0,0.0,0.0,0.0,0.0,0.0,0.0,-3.0189,0.0,-3.1632,0.0,0.0,0.0,0.0,0.0,0.0,0.0,-3.5776,0.0,0.0,0.0,0.0,0.0,0.0,0.0,0.0,0.0,0.0,0.0,-4.1378,-4.1546,-4.2049,-4.2402,-4.338,-4.4822,-4.5779,-4.7048,-4.8776,-5.0498,-5.1624,-5.2107,-5.3195,-5.3672,-5.3521,-5.3672,-5.3822,-5.3846,-5.4375,-5.4727,-5.5135,-5.5911,-5.604,-5.6152,-5.6944,-5.6891,-5.6565,-5.7253,-5.7859,-5.8286,-0.1621,-0.1847,-0.2408,-0.3093,-0.3798,-0.475,-0.6203,-0.8037,-0.9771,-1.1105,-1.2328,-1.3517,-1.4371,-1.5582,0.0,-1.9038,-2.0232,-2.1155,0.0,0.0,-2.351,-2.2935,-2.3044,-2.286,-2.2441,-2.1655,-2.1321,-2.1447,-2.1611,-2.2032,-2.2734,-2.3464,-2.4282,-2.5246,-2.695,-2.8112,-2.911,-3.1201,-3.2051,-3.2244,-3.5119,-3.6253,-3.6109,-3.5705,-3.6238,-3.7402,-3.7549,-3.7843,-3.8097,-3.8445,-3.8234,0.0,-3.8583,0.0,0.0,0.0,0.0,0.0,-3.282,0.0,0.0,0.0,0.0,0.0,0.0,0.0,0.0,0.0,0.0,0.0,0.0,0.0,0.0,-3.5265,0.0,-3.583,0.0,0.0,0.0,0.0,0.0,0.0,0.0,0.0,0.0,-4.1027,-4.0713,-4.0824,-4.1528,-4.2046,-4.2602,-4.3546,-4.4985,-4.6103,-4.6888,-4.9406,-5.0985,-5.147,-5.3044,-5.3822,-5.3822,-5.3822,-5.3822,-5.3846,-5.4231,-5.4636,-5.5139,-5.5991,-5.6073,-5.5879,-5.6647,-5.6983,-5.6944,-5.7066,-5.7638,-5.8599,-0.4352,-0.4296,-0.4292,-0.4552,-0.6061,-0.804,-1.0364,-1.1695,-1.2578,-1.3241,0.0,0.0,0.0,0.0,0.0,0.0,0.0,-2.7827,-2.6143,0.0,-2.7844,0.0,0.0,-2.4568,0.0,-2.3873,-2.3201,-2.3435,-2.4059,-2.4336,-2.4179,-2.5388,-2.5942,-2.6205,-2.8759,-2.9984,-3.0684,-3.3539,-3.5313,-3.619,-3.7023,-3.8243,-3.9425,0.0,-3.8136,-3.8574,-3.8574,0.0,0.0,-3.8748,-3.8746,0.0,0.0,0.0,0.0,0.0,0.0,0.0,0.0,0.0,0.0,-3.5545,0.0,0.0,0.0,0.0,-3.5135,0.0,0.0,0.0,0.0,0.0,-3.4899,-3.4513,-3.4458,0.0,0.0,0.0,0.0,0.0,0.0,0.0,0.0,0.0,0.0,-3.9263,-3.9281,-3.9792,-4.108,-4.1612,-4.2296,-4.3048,-4.4041,-4.5311,-4.6888,-4.8618,-5.0365,-5.1954,-5.3195,-5.3822,-5.3822,-5.3822,-5.3822,-5.3822,-5.3846,-5.4296,-5.5041,-5.509,-5.5534,-5.6219,-5.5829,-5.6352,-5.7194,-5.7893,-5.844,-5.8887,-0.625,-0.6991,-0.7357,-0.6601,-0.7652,-0.9432,-1.1919,-1.3517,0.0,0.0,0.0,0.0,0.0,-2.5549,-2.7041,0.0,0.0,-3.0263,-2.9267,-3.0229,0.0,0.0,0.0,-2.7621,0.0,-2.6229,-2.55,-2.4778,-2.5375,-2.5943,-2.6487,-2.7582,-2.8303,-2.8605,-3.0538,-3.1914,-3.3145,0.0,0.0,0.0,0.0,-3.9516,-4.0709,0.0,0.0,-4.08,-4.1368,-4.163,0.0,-4.1872,-4.1278,-4.074,-4.1007,-4.037,-3.9579,-3.9416,-3.9151,0.0,0.0,0.0,-3.8271,-3.6704,0.0,0.0,0.0,0.0,0.0,0.0,0.0,0.0,0.0,0.0,-3.5736,-3.5327,-3.4968,-3.477,0.0,0.0,0.0,0.0,0.0,0.0,0.0,0.0,0.0,-4.0925,-4.1128,-4.1264,-4.1099,-4.1858,-4.2283,-4.2315,-4.339,-4.4822,-4.6426,-4.846,-5.0053,-5.1624,-5.3044,-5.3822,-5.3822,-5.3822,-5.3822,-5.3822,-5.4122,-5.457,-5.5065,-5.5732,-5.6103,-5.6244,-5.6473,-5.67,-5.7075,-5.7042,-5.7808,-5.9043,-0.8606,-0.9618,-0.9786,-0.8652,0.0,-1.1888,-1.3986,0.0,0.0,0.0,-2.2451,0.0,-2.8394,0.0,-3.0176,0.0,-3.2883,-3.2397,-3.1561,-3.2226,0.0,-3.1447,-3.1468,0.0,0.0,0.0,-2.8534,-2.8254,-2.7689,-2.7736,-2.8532,-2.9542,-3.0355,-3.0883,-3.1671,-3.3539,-3.5969,-3.5778,-3.7066,0.0,0.0,-4.1241,0.0,0.0,-4.2527,-4.2097,0.0,-4.3309,-4.347,-4.3769,-4.3463,-4.2861,-4.3049,-4.2538,-4.1648,-4.1259,-4.0901,-4.0532,-4.0236,-4.0266,0.0,-3.8457,-3.8524,0.0,-3.6463,0.0,0.0,0.0,0.0,0.0,0.0,0.0,0.0,-3.6067,-3.5358,-3.4784,0.0,-3.4807,0.0,0.0,0.0,0.0,0.0,0.0,-3.9839,-4.0769,-4.0981,-4.0978,-4.0834,0.0,-4.2449,-4.2315,-4.3574,-4.4678,-4.5799,-4.8324,-5.0053,-5.083,-5.2869,-5.3822,-5.3972,-5.3972,-5.3972,-5.4122,-5.4421,-5.4719,-5.5065,-5.5856,-5.6078,-5.6244,-5.6595,-5.6872,-5.6924,-5.6825,-5.7545,-5.8673,-1.1268,-1.1845,0.0,0.0,-1.3107,0.0,0.0,0.0,-2.0578,0.0,-2.4502,-2.652,-2.8977,-3.0585,-3.2095,-3.3534,-3.4141,-3.4133,-3.3126,-3.4007,0.0,0.0,-3.4866,-3.579,-3.8309,0.0,0.0,-3.3516,-3.1095,-3.0174,-3.0429,-3.1194,-3.2019,-3.2931,-3.2468,-3.4707,-3.8951,-3.6642,-3.8505,-4.2922,-4.3127,-4.3436,-4.4141,-4.5499,-4.455,-4.2672,-4.3454,-4.4045,-4.4321,-4.4458,-4.4934,-4.5571,-4.4507,-4.4678,-4.5157,-4.4054,-4.3462,-4.3157,-4.3157,-4.222,-4.1102,-4.0764,0.0,0.0,0.0,0.0,-3.905,0.0,0.0,0.0,0.0,0.0,0.0,-3.672,-3.5471,-3.426,-3.3925,0.0,0.0,0.0,0.0,0.0,0.0,-3.6997,-3.7221,-3.9201,-3.9005,-3.9381,0.0,0.0,-4.2606,-4.3029,-4.437,-4.5046,-4.5209,-4.8504,-5.0076,-5.0232,-5.2717,-5.3972,-5.4397,-5.4397,-5.4397,-5.4421,-5.4868,-5.5041,-5.5041,-5.5485,-5.5926,-5.6219,-5.6219,-5.652,-5.6997,-5.7072,-5.7474,-5.8102,-1.1933,-1.3738,-1.5356,0.0,-1.648,-1.7684,0.0,0.0,0.0,0.0,-2.9208,-3.1846,-3.6061,-3.6061,-3.6308,-3.8144,-3.7483,0.0,0.0,0.0,0.0,-3.6808,-3.6366,-3.6601,-3.7615,-3.6013,0.0,-3.4187,-3.357,-3.3074,-3.2878,-3.3434,-3.3934,-3.4505,-3.4369,-3.559,-3.7853,-3.7187,-3.9024,-4.2304,-4.3218,-4.4084,0.0,0.0,-4.6538,-4.6072,-4.6594,-4.6917,-4.7074,-4.734,-4.7274,-4.7205,-4.7167,-4.7092,-4.7023,-4.7108,-4.6381,-4.549,-4.5191,-4.4163,-4.2645,-4.1651,-4.1029,-4.0539,0.0,0.0,0.0,0.0,0.0,0.0,0.0,0.0,0.0,-3.6816,-3.5857,-3.5135,0.0,0.0,0.0,-3.5776,0.0,0.0,0.0,-3.7633,-3.8709,-4.0142,-4.0375,-4.1052,-4.1886,0.0,0.0,-4.3079,-4.4047,-4.5332,-4.693,-4.8978,-5.0543,-5.1493,-5.3346,-5.4248,-5.4397,-5.4719,-5.4892,-5.4868,-5.5337,-5.5485,-5.5485,-5.5926,-5.6072,-5.6219,-5.6219,-5.6294,-5.657,-5.7801,-5.8353,-5.8604,-1.4521,0.0,0.0,-1.9694,0.0,0.0,-2.3165,0.0,0.0,-2.9992,-3.174,0.0,-3.7412,-3.7573,-3.7911,-3.9243,-3.8635,0.0,-3.7292,0.0,0.0,-3.8273,-3.8698,-3.9187,-3.9892,-3.8336,0.0,-3.655,-3.5314,-3.4511,-3.4021,-3.4463,-3.5082,-3.5665,-3.5625,-3.7058,-3.9515,-4.0865,-4.2073,-4.3003,-4.4813,0.0,0.0,-4.7499,-4.7849,-4.7898,-4.8322,-4.842,-4.8313,-4.8576,-4.8802,-4.8899,-4.8779,-4.8962,-4.918,-4.8914,-4.8263,-4.7535,-4.7243,-4.5937,-4.4485,-4.3657,-4.2807,-4.1956,-4.1299,-4.1198,-4.134,0.0,0.0,0.0,0.0,0.0,0.0,0.0,0.0,0.0,0.0,0.0,0.0,0.0,-3.6337,0.0,0.0,-3.7689,-3.8765,-4.024,-4.0298,-4.0608,0.0,0.0,0.0,-4.3116,-4.4379,-4.582,-4.7549,-4.9293,-5.0698,-5.1977,-5.3648,-5.457,-5.4719,-5.5041,-5.5337,-5.5337,-5.5632,-5.5779,-5.5632,-5.6072,-5.6219,-5.6219,-5.6219,-5.6219,-5.6369,-5.7801,-5.8177,-5.8127,-1.7856,0.0,0.0,0.0,0.0,0.0,0.0,-2.6148,0.0,-3.1764,0.0,-3.4507,-3.5992,-3.7352,-3.8358,-3.8596,0.0,-3.8724,-3.8376,-3.9363,-4.0082,-4.0211,-4.1183,-4.2186,-4.3302,-4.0773,-3.9383,0.0,-3.6788,-3.5356,-3.4757,-3.5163,-3.579,-3.6652,-3.6763,-3.8916,-4.2514,-4.5191,-4.5586,-4.4677,-4.7075,-4.7898,-4.7918,-4.8509,-4.8706,-4.8706,-4.9072,-4.8967,-4.8706,-4.8706,-4.9686,-5.0578,-4.9607,-5.0312,-5.1163,-5.0175,-4.9605,-4.9151,-4.9151,-4.7681,-4.6211,-4.6211,-4.5063,-4.3746,-4.3462,-4.3157,-4.3004,-4.3004,-4.2373,-4.1968,0.0,0.0,0.0,0.0,0.0,0.0,0.0,0.0,0.0,0.0,0.0,0.0,0.0,0.0,-3.8116,-3.9829,-3.9639,0.0,0.0,0.0,0.0,-4.34,-4.5129,-4.6488,-4.7411,0.0,-5.0853,-5.1801,-5.3648,-5.4719,-5.5041,-5.5485,-5.5632,-5.5632,-5.6072,-5.6072,-5.5779,-5.6072,-5.6219,-5.6219,-5.6219,-5.6219,-5.6344,-5.7399,-5.7474,-5.7273,0.0,0.0,0.0,0.0,0.0,-2.9911,-3.0723,-3.269,-3.4282,-3.4656,-3.5641,-3.6603,-3.7495,-3.8908,-3.9826,-3.9849,-4.1044,0.0,0.0,0.0,0.0,-4.3578,-4.228,-4.2288,-4.3678,-4.2109,-4.0874,-3.9837,-3.9037,-3.8037,-3.6889,-3.6954,-3.7292,-3.7885,-3.8891,-4.0751,-4.3208,-4.4338,0.0,-4.5586,-4.7189,-4.7942,-4.8302,-4.8874,-4.9202,-4.9461,-4.9461,-4.9332,-4.9072,-4.9332,-5.0212,-5.1139,-5.1005,-5.1619,-5.2491,-5.2352,-5.1632,-5.0765,-5.0434,-4.9415,-4.8286,-4.7558,-4.6381,-4.5362,-4.5106,-4.4201,-4.3462,-4.3462,-4.3096,-4.2759,-4.2461,0.0,0.0,0.0,0.0,0.0,0.0,0.0,0.0,0.0,0.0,-3.8793,0.0,0.0,0.0,0.0,0.0,0.0,0.0,0.0,0.0,0.0,-4.6384,0.0,0.0,0.0,-5.1185,-5.0387,-5.3497,-5.4892,-5.5041,-5.5779,-5.6072,-5.6072,-5.6219,-5.6219,-5.6072,-5.6219,-5.6219,-5.6219,-5.6219,-5.6219,-5.6294,-5.6947,-5.7123,-5.7273,0.0,0.0,0.0,0.0,0.0,0.0,0.0,-3.6927,0.0,-3.6932,-3.7166,-3.7843,-3.8885,-4.0268,-4.1191,-4.1329,-4.2159,-4.2946,-4.3474,-4.3639,-4.4179,-4.5296,-4.4476,0.0,-4.4988,-4.4374,-4.3108,-4.1144,-4.1022,-3.9764,-3.7637,-3.8122,-3.8487,-3.8998,-4.0998,-4.2747,-4.4128,0.0,0.0,-4.7153,-4.8224,-4.8803,-4.8957,-4.9232,-4.9461,-4.959,-4.959,-4.9461,-4.9332,-4.959,-5.0343,-5.1272,-5.1272,-5.2051,-5.2929,-5.2929,-5.2491,-5.2074,-5.1886,-5.0882,-4.9724,-4.9295,-4.7972,-4.6677,-4.581,-4.5084,-4.4352,-4.3767,-4.3462,-4.3248,-4.2739,-4.1997,0.0,0.0,0.0,0.0,0.0,0.0,0.0,0.0,0.0,0.0,0.0,0.0,0.0,0.0,0.0,0.0,0.0,0.0,0.0,0.0,0.0,0.0,0.0,0.0,0.0,-5.2107,-5.4122,-5.5041,-5.5041,-5.5779,-5.6219,-5.6219,-5.6365,-5.6365,-5.6219,-5.6219,-5.6219,-5.6219,-5.6219,-5.6219,-5.6269,-5.6821,-5.7022,-5.7198,0.0,-2.6158,0.0,0.0,-3.3371,0.0,-3.6531,-3.9544,-4.0787,-3.8522,-3.8557,-3.9336,-4.0361,-4.1736,-4.26,-4.3087,-4.3387,-4.4051,-4.4835,-4.5128,-4.5748,-4.6654,-4.6295,-4.6175,-4.6534,-4.6421,-4.5275,0.0,-4.288,-4.1565,-3.9265,-3.9356,-3.9681,-4.041,-4.2621,0.0,0.0,0.0,-4.8071,-4.8604,-4.9286,-4.959,-4.959,-4.959,-4.959,-4.959,-4.959,-4.959,-4.959,-4.9719,-5.0474,-5.1272,-5.1272,-5.2051,-5.2929,-5.2929,-5.2929,-5.2929,-5.2929,-5.205,-5.1022,-5.1022,-4.9581,-4.7995,-4.6949,-4.6107,-4.5234,-4.4352,-4.3898,-4.3462,-4.3004,-4.2891,0.0,0.0,0.0,0.0,0.0,0.0,0.0,0.0,0.0,0.0,-4.0156,0.0,0.0,0.0,0.0,-4.0479,-4.211,-4.3399,-4.4457,0.0,0.0,-4.9157,-5.0076,0.0,-5.274,0.0,-5.457,-5.5189,-5.5189,-5.5926,-5.6219,-5.6219,-5.651,-5.651,-5.6219,-5.6219,-5.6219,-5.6219,-5.6219,-5.6219,-5.6269,-5.6696,-5.6872,-5.6922,0.0,0.0,0.0,0.0,0.0,0.0,0.0,-3.9989,-4.1492,-3.9403,-4.0616,-4.1647,-4.185,-4.3134,-4.4274,-4.4823,-4.5693,-4.6517,-4.7407,-4.6913,-4.7154,-4.8431,-4.6704,-4.632,-4.739,-4.7186,-4.6506,0.0,0.0,-4.4224,-4.3505,-4.1423,-4.1094,-4.2263,0.0,0.0,0.0,-4.7691,-4.8422,-4.9515,-4.9565,-4.959,-4.959,-4.959,-4.959,-4.959,-4.959,-4.959,-4.959,-4.9976,-5.0605,-5.1272,-5.1272,-5.2051,-5.2929,-5.2929,-5.2929,-5.2929,-5.2929,-5.2767,-5.2629,-5.2352,-5.1303,-5.0151,-4.9724,-4.7681,-4.5788,-4.5788,-4.4633,-4.3462,-4.3004,-4.3269,-4.34,0.0,0.0,0.0,0.0,0.0,0.0,0.0,0.0,0.0,0.0,-4.0373,0.0,0.0,-4.1325,-4.2149,-4.3458,-4.4805,-4.6041,-4.7262,0.0,-4.992,-5.0076,-5.2412,-5.3346,-5.2717,-5.4695,-5.5485,-5.5632,-5.6365,-5.651,-5.6219,-5.6219,-5.6219,-5.6219,-5.6219,-5.6219,-5.6219,-5.6219,-5.6219,-5.6219,-5.6269,-5.6294,-5.6294,0.0,0.0,0.0,0.0,0.0,0.0,0.0,-4.1432,-4.2485,-4.1761,-4.2637,-4.3441,-4.3551,-4.4696,-4.5474,-4.566,-4.6478,-4.7251,-4.7798,-4.7995,-4.8521,-4.924,-4.8495,-4.842,-4.9255,-4.935,-4.8826,0.0,0.0,-4.5639,-4.4116,-4.3976,-4.4759,0.0,0.0,-4.8451,-4.9618,-4.9698,-5.0104,-5.0461,-4.9847,-4.959,-4.959,-4.959,-4.959,-4.959,-4.9847,-4.9847,-4.9976,-5.0232,-5.0507,-5.082,-5.1412,-5.2068,-5.275,-5.2829,-5.3067,-5.3204,-5.2929,-5.3067,-5.3204,-5.3067,-5.2604,-5.2,-5.1279,-4.9843,-4.824,-4.6949,-4.5213,-4.3919,-4.3462,-4.3462,-4.3462,0.0,0.0,0.0,0.0,0.0,0.0,0.0,0.0,-4.2039,0.0,0.0,0.0,0.0,0.0,-4.131,-4.2781,-4.5084,-4.6584,-4.7211,0.0,-5.147,-5.1185,-5.3171,-5.4098,-5.4074,-5.5312,-5.6072,-5.6365,-5.6656,-5.6656,-5.651,-5.6365,-5.6365,-5.651,-5.6365,-5.6219,-5.6219,-5.6219,-5.6219,-5.6219,-5.6219,-5.6219,-5.6219,-3.2077,0.0,-3.4699,0.0,-3.8159,-3.9447,-4.1577,-4.2485,-4.3134,-4.3881,-4.4235,-4.467,-4.502,-4.5688,-4.6141,-4.6518,-4.7106,-4.7638,-4.8208,-4.8786,-4.924,-4.9556,-4.9556,0.0,-5.0586,-5.098,-5.0883,-5.0194,-4.9213,0.0,-4.6576,-4.6861,0.0,0.0,-5.027,-5.097,-5.1215,-5.1262,-5.1445,-5.1445,-5.0715,-5.0588,-5.0563,-5.0689,-5.0689,-5.0563,-5.0715,-5.0715,-5.0614,-5.0842,-5.0742,-5.0659,-5.1478,-5.2165,-5.2691,-5.2826,-5.3215,-5.3478,-5.3341,-5.3478,-5.3614,-5.3614,-5.3589,-5.3427,-5.2554,-5.1558,-5.0127,-4.7535,-4.6085,-4.5213,-4.4482,-4.4633,-4.4784,-4.418,0.0,0.0,0.0,0.0,0.0,0.0,-4.2837,-4.2543,-4.1785,-4.134,0.0,0.0,0.0,0.0,-4.3392,-4.5566,0.0,0.0,0.0,0.0,0.0,-5.3948,-5.4843,-5.5287,-5.6194,-5.6631,-5.6946,-5.6946,-5.6946,-5.6946,-5.6656,-5.6656,-5.6801,-5.651,-5.6365,-5.6219,-5.6219,-5.6219,-5.6219,-5.6219,-5.6219,-5.6219,-3.4511,-3.5088,-3.6072,-3.8223,-3.9216,-4.0384,-4.255,-4.2911,-4.3492,-4.5368,-4.5395,-4.5395,-4.5901,-4.6007,-4.6491,-4.7701,-4.7588,-4.7873,-4.9019,-4.9125,-4.924,0.0,0.0,-4.9966,-5.0878,-5.1502,-5.2099,-5.2696,0.0,0.0,-5.2164,0.0,-4.9482,-4.9456,-4.9793,-5.069,-5.2015,-5.2015,-5.2192,-5.2588,-5.2588,-5.2685,-5.3025,-5.3389,-5.3268,-5.2903,-5.2631,-5.2041,-5.1596,-5.1596,-5.1094,-5.0716,-5.128,-5.1966,-5.2615,-5.3017,-5.3317,-5.3614,-5.3861,-5.3997,-5.3997,-5.3997,-5.3997,-5.3997,-5.3997,-5.2829,-5.0668,-4.7198,-4.7366,-4.7827,-4.6211,-4.7243,-4.7827,-4.6655,0.0,0.0,0.0,0.0,0.0,0.0,-4.3898,-4.3898,-4.3004,0.0,0.0,0.0,0.0,0.0,0.0,0.0,0.0,-5.2342,-5.226,0.0,-5.4397,-5.4843,-5.5435,-5.6219,-5.6921,-5.7354,-5.7379,-5.7379,-5.7379,-5.7379,-5.7379,-5.7091,-5.6801,-5.6801,-5.651,-5.6219,-5.6219,-5.6219,-5.6219,-5.6219,-5.6219,-5.6219,-3.7199,-3.755,-3.8291,-4.0036,-4.1076,-4.1899,-4.2774,-4.3492,-4.4287,-4.5502,-4.5395,-4.5502,-4.6245,-4.635,-4.6675,0.0,-4.7785,-4.8241,0.0,-4.9341,-4.9442,-4.9556,-4.9959,-5.0586,-5.1179,-5.2009,-5.2723,-5.332,0.0,0.0,0.0,-5.213,-5.2369,-5.3563,-5.3917,-5.4138,-5.4378,-5.4112,-5.4112,-5.4139,-5.3537,-5.3389,-5.3577,-5.3697,-5.3817,-5.3817,-5.312,-5.2903,-5.278,-5.2094,-5.1872,-5.1648,-5.1831,-5.2024,-5.2205,-5.2459,-5.313,-5.3567,-5.3433,-5.3824,-5.4376,-5.4376,-5.4537,-5.4697,-5.4697,-5.3538,-5.1951,-5.0362,-4.9653,-4.9081,-4.8338,-4.8529,-4.8552,-4.8118,-4.7827,0.0,0.0,0.0,0.0,0.0,-4.5331,-4.4888,0.0,-4.3869,0.0,0.0,0.0,0.0,0.0,0.0,0.0,0.0,-5.3562,0.0,-5.5164,-5.5607,-5.6194,-5.7091,-5.7498,-5.7784,-5.7784,-5.7784,-5.7667,-5.7379,-5.7379,-5.7235,-5.6801,-5.6801,-5.651,-5.6219,-5.6219,-5.6219,-5.6219,-5.6219,-5.6219,-5.6219,-3.9265,-3.9592,-4.0059,-4.1533,-4.2238,-4.2911,-4.3466,-4.3958,-4.4531,-4.5502,-4.5287,-4.5395,-4.6377,-4.6672,0.0,-4.7541,-4.8137,-4.8706,-4.9189,-4.9594,-4.9783,-4.9783,-5.0378,-5.0972,-5.1593,0.0,0.0,-5.3833,-5.3097,-5.3069,-5.3508,-5.3768,-5.4418,-5.5496,-5.5961,-5.6077,-5.5845,-5.5584,-5.5556,-5.544,-5.4825,-5.4797,-5.5122,-5.5355,-5.5472,-5.5616,-5.4887,-5.4533,-5.4442,-5.3752,-5.3416,-5.3295,-5.2956,-5.2704,-5.2476,-5.2465,-5.2775,-5.3372,-5.324,-5.3631,-5.4022,-5.4022,-5.4313,-5.4524,-5.4707,-5.4061,-5.3078,-5.209,-5.1648,-5.123,-5.0362,-5.0527,-5.0551,-4.9985,-4.9557,-4.9128,-4.8552,0.0,0.0,0.0,0.0,0.0,0.0,-4.6067,-4.6,0.0,0.0,0.0,0.0,0.0,0.0,-5.3351,-5.4941,0.0,-5.5779,-5.6365,-5.6946,-5.7667,-5.7927,-5.807,-5.807,-5.807,-5.7953,-5.781,-5.781,-5.7523,-5.721,-5.7091,-5.6801,-5.6365,-5.6365,-5.6365,-5.6219,-5.651,-5.651,-5.6219,-4.0639,-4.0985,0.0,0.0,-4.2997,0.0,-4.4505,-4.4203,-4.4313,-4.5502,-4.5046,-4.518,-4.6431,-4.7079,-4.7541,-4.7808,0.0,0.0,0.0,-4.9897,-5.0037,-5.0064,-5.0634,-5.1258,-5.1882,-5.2806,-5.3526,-5.4074,-5.446,-5.446,-5.4194,-5.5026,-5.5496,-5.5496,-5.6193,-5.6394,-5.6394,-5.6394,-5.6509,-5.6509,-5.6509,-5.6851,-5.7416,-5.7781,-5.7892,-5.7892,-5.7358,-5.6849,-5.6308,-5.5992,-5.5644,-5.5295,-5.4378,-5.3872,-5.3498,-5.2628,-5.2568,-5.2907,-5.3244,-5.34,-5.34,-5.3452,-5.3426,-5.353,-5.4027,-5.4285,-5.3952,-5.2703,-5.3164,-5.3649,-5.2253,-5.3128,-5.3563,-5.2139,-5.1558,-5.0857,-4.9438,0.0,0.0,0.0,0.0,0.0,0.0,-4.865,-4.846,0.0,0.0,0.0,0.0,0.0,-5.2588,-5.6093,-5.6194,-5.6365,-5.6365,-5.7091,-5.7667,-5.7927,-5.8355,-5.8523,-5.8523,-5.8523,-5.8523,-5.8523,-5.8523,-5.8212,-5.7927,-5.7523,-5.7235,-5.6801,-5.6801,-5.6656,-5.6365,-5.7091,-5.6801,-5.6219,0.0,0.0,-4.2575,-4.4042,-4.4068,-4.4177,-4.4613,-4.4422,-4.4531,-4.5502,-4.5287,-4.5661,-4.7,-4.7676,-4.8273,-4.876,-4.8922,-4.9386,-4.987,-5.001,-5.0227,-5.0661,-5.1285,-5.1999,-5.2834,-5.3554,-5.4057,-5.446,-5.4341,-5.4433,-5.479,-5.5261,-5.5613,-5.5874,-5.6537,-5.6766,-5.6766,-5.6964,-5.7078,-5.7078,-5.7332,-5.7669,-5.7974,-5.8335,-5.8555,-5.8634,-5.7552,-5.7216,-5.7245,-5.6222,-5.5876,-5.5761,-5.5528,-5.5178,-5.4588,-5.2474,-5.2223,-5.267,-5.3269,-5.34,-5.3504,-5.3896,-5.3687,-5.3426,-5.3556,-5.3687,-5.3635,-5.376,-5.3996,-5.4152,-5.4299,-5.4376,-5.4241,-5.3945,-5.3538,-5.3128,-5.2466,-5.2579,0.0,0.0,-5.1279,-5.1138,-5.0293,-5.0833,-5.0974,0.0,0.0,0.0,0.0,-5.3948,-5.4974,-5.6377,-5.6861,-5.7235,-5.7498,-5.7641,-5.7927,-5.8381,-5.8523,-5.8523,-5.8523,-5.8523,-5.8523,-5.8523,-5.8523,-5.8212,-5.7927,-5.7784,-5.7523,-5.7235,-5.7235,-5.6946,-5.6656,-5.6801,-5.6656,-5.6219,-4.3381,-4.3492,-4.3713,-4.4613,-4.4613,-4.4531,-4.4722,-4.4531,-4.4639,-4.5502,-4.5395,-4.5714,-4.7296,-4.7893,-4.849,-4.9087,-4.9386,-4.9657,-4.9983,-5.001,-5.0395,-5.1135,-5.1502,-5.2334,-5.3406,-5.4011,-5.446,-5.4817,-5.479,-5.4908,-5.5261,-5.5729,-5.6077,-5.6423,-5.688,-5.7078,-5.7078,-5.7191,-5.7416,-5.7528,-5.7781,-5.8003,-5.8445,-5.8664,-5.8882,-5.8991,-5.8276,-5.8166,-5.8195,-5.7611,-5.7387,-5.7245,-5.6651,-5.6423,-5.5905,-5.4293,-5.3359,-5.2952,-5.2926,-5.2772,-5.2642,-5.2929,-5.3008,-5.2981,-5.2981,-5.3191,-5.3478,-5.3766,-5.3844,-5.4001,-5.4576,-5.4548,-5.4334,-5.4459,-5.4376,-5.4106,-5.3725,-5.3861,0.0,-5.2854,-5.2991,-5.2854,-5.2278,-5.2829,-5.3103,-5.2391,0.0,0.0,-5.4381,-5.5235,-5.6046,-5.6765,-5.75,-5.7953,-5.7927,-5.807,-5.8212,-5.8523,-5.8523,-5.8523,-5.8523,-5.8523,-5.8523,-5.8523,-5.8523,-5.8381,-5.8212,-5.7927,-5.7784,-5.7667,-5.7667,-5.7379,-5.7091,-5.7523,-5.7235,-5.6801,-4.4313,-4.4531,-4.4722,-4.4722,-4.4722,-4.4722,-4.4722,-4.4531,-4.4748,-4.5502,-4.5395,-4.5848,-4.7296,-4.7893,-4.849,-4.9087,-4.9657,-5.001,-5.001,-5.001,-5.0449,-5.15,-5.1789,-5.2506,-5.3896,-5.4422,-5.4817,-5.5026,-5.5261,-5.5496,-5.5613,-5.6193,-5.6623,-5.6993,-5.7191,-5.7303,-5.7303,-5.7303,-5.7528,-5.7781,-5.7892,-5.8225,-5.8664,-5.8773,-5.8882,-5.9099,-5.9099,-5.9099,-5.9099,-5.9099,-5.9099,-5.8882,-5.7804,-5.744,-5.7332,-5.6818,-5.5388,-5.3888,-5.3164,-5.2297,-5.1701,-5.1622,-5.1988,-5.2354,-5.2354,-5.2746,-5.3138,-5.3243,-5.3269,-5.3426,-5.3975,-5.4158,-5.4235,-5.4437,-5.4515,-5.4407,-5.4106,0.0,-5.4029,-5.4106,-5.4132,-5.4132,-5.4132,-5.4376,-5.4645,-5.4645,-5.4939,-5.5099,0.0,-5.5621,-5.6269,-5.7058,-5.7937,-5.8276,-5.7927,-5.8355,-5.8523,-5.8523,-5.8523,-5.8523,-5.8523,-5.8523,-5.8523,-5.8523,-5.8523,-5.8523,-5.8523,-5.807,-5.7927,-5.7927,-5.7927,-5.7784,-5.7523,-5.8239,-5.7953,-5.7379,-4.4313,-4.4531,-4.4722,-4.4722,-4.4964,-4.5072,-4.4722,-4.4964,-4.518,-4.5609,-4.5609,-4.6036,-4.7296,-4.7893,-4.849,-4.9087,-4.9657,-5.001,-5.001,-5.001,-5.0639,-5.2103,-5.224,-5.3048,-5.4741,-5.4852,-5.5144,-5.5379,-5.5144,-5.5496,-5.6279,-5.6394,-5.6737,-5.7191,-5.7303,-5.7303,-5.7303,-5.7303,-5.7528,-5.7781,-5.8114,-5.8335,-5.8694,-5.8991,-5.9099,-5.9099,-5.9099,-5.9099,-5.9099,-5.9099,-5.9099,-5.9099,-5.8852,-5.8852,-5.8643,-5.8,-5.7254,-5.6422,-5.5183,-5.3635,-5.2223,-5.1727,-5.1675,-5.1727,-5.1727,-5.1805,-5.2014,-5.2537,-5.2642,-5.2825,-5.34,-5.3896,-5.4236,-5.4183,-5.4209,-5.4233,-5.4433,0.0,-5.4233,-5.4433,-5.4671,-5.4965,-5.4965,-5.4965,-5.4965,-5.4965,-5.5099,-5.5099,-5.5099,-5.5621,-5.6223,-5.679,-5.7503,-5.8026,-5.8355,-5.8523,-5.8523,-5.8523,-5.8523,-5.8523,-5.8523,-5.8523,-5.8523,-5.8523,-5.8523,-5.8523,-5.8523,-5.8381,-5.8381,-5.8381,-5.8381,-5.8212,-5.7784,-5.7927,-5.781,-5.7379,-4.4531,-4.4613,-4.4722,-4.4722,-4.4856,-4.4856,-4.4722,-4.483,-4.5072,-4.5502,-4.5609,-4.6036,-4.7296,-4.8001,-4.86,-4.906,-4.9796,-5.046,-5.0851,-5.032,-5.0531,-5.1774,-5.1801,-5.2724,-5.4525,-5.4976,-5.5379,-5.5496,-5.5379,-5.5613,-5.6394,-5.6394,-5.6737,-5.7303,-5.7303,-5.7303,-5.7303,-5.7303,-5.7528,-5.8003,-5.8195,-5.8445,-5.8882,-5.8991,-5.9099,-5.9099,-5.9099,-5.9099,-5.9099,-5.9099,-5.9099,-5.9099,-5.9099,-5.9099,-5.911,-5.9185,-5.7971,-5.6358,-5.4731,-5.3643,-5.2784,-5.1773,-5.1596,-5.1596,-5.1596,-5.1596,-5.1675,-5.1962,-5.2014,-5.2197,-5.2798,-5.3112,-5.3478,-5.4105,-5.421,0.0,0.0,-5.4704,-5.4785,-5.4779,-5.4965,-5.5099,-5.5099,-5.5099,-5.5099,-5.5099,-5.5099,-5.5099,-5.5099,-5.5334,-5.5726,-5.6301,-5.7503,-5.8261,-5.8523,-5.8523,-5.8523,-5.8523,-5.8523,-5.8523,-5.8523,-5.8523,-5.8523,-5.8523,-5.8523,-5.8523,-5.8523,-5.8523,-5.8523,-5.8523,-5.8523,-5.8381,-5.8212,-5.8212,-5.8096,-5.7953,-4.4531,-4.4613,-4.4722,-4.483,-4.5046,-4.5154,-4.4938,-4.5154,-4.5342,-4.5688,-4.5715,-4.6089,-4.7106,-4.8078,-4.8841,-4.8982,-4.9803,-5.0739,-5.1478,-5.0768,-5.0905,-5.21,-5.2321,-5.3101,-5.4418,-5.5126,-5.5496,-5.5496,-5.5496,-5.5845,-5.6394,-5.6394,-5.6737,-5.7303,-5.7303,-5.7303,-5.7303,-5.7416,-5.7751,-5.8335,-5.8415,-5.8773,-5.9315,-5.9207,-5.9207,-5.9207,-5.9099,-5.9099,-5.9099,-5.9099,-5.9099,-5.9099,-5.9099,-5.9099,-5.9327,-5.9697,-5.8311,-5.6326,-5.4314,-5.3631,-5.3268,-5.2315,-5.1846,-5.1596,-5.1596,-5.1596,-5.1596,-5.1596,-5.1596,-5.1727,-5.2197,-5.2406,-5.2825,-5.3844,0.0,0.0,0.0,-5.4994,-5.4942,-5.5072,-5.5099,-5.5099,-5.5099,-5.5232,-5.5232,-5.5232,-5.5232,-5.5232,-5.5232,-5.5099,-5.5412,-5.6092,-5.7556,-5.8366,-5.8523,-5.8523,-5.8523,-5.8523,-5.8523,-5.8523,-5.8523,-5.8523,-5.8523,-5.8523,-5.8523,-5.8523,-5.8523,-5.8523,-5.8523,-5.8523,-5.8523,-5.8523,-5.8523,-5.8523,-5.8523,-5.8381,-4.4313,-4.4531,-4.483,-4.5072,-4.598,-4.6374,-4.5688,-4.6401,-4.6791,-4.6112,-4.6007,-4.6139,-4.6537,-4.7944,-4.8826,-4.8597,-4.9546,-5.0375,-5.0888,-5.0995,-5.2145,-5.442,-5.5094,-5.5396,-5.5412,-5.5468,-5.5496,-5.5496,-5.5496,-5.5845,-5.6394,-5.6394,-5.6737,-5.7303,-5.7303,-5.7303,-5.7303,-5.7669,-5.8114,-5.8664,-5.8882,-5.9452,-5.988,-5.9529,-5.9422,-5.9422,-5.9207,-5.9099,-5.9099,-5.9099,-5.9099,-5.9099,-5.9099,-5.9315,-5.9422,-5.8942,-5.8643,-5.7921,-5.5528,-5.4204,-5.351,-5.3389,-5.2439,-5.1596,-5.1596,-5.1596,-5.1596,-5.1596,-5.1596,-5.1622,-5.1648,-5.2119,-5.2694,-5.3347,0.0,0.0,-5.4942,-5.4628,-5.4471,-5.5046,-5.5099,-5.5099,-5.5099,-5.5365,-5.5604,-5.5604,-5.5604,-5.5604,-5.5604,-5.5232,-5.5595,-5.6719,-5.7373,-5.7974,-5.8497,-5.8523,-5.8523,-5.8523,-5.8523,-5.8523,-5.8523,-5.8523,-5.8523,-5.8523,-5.8523,-5.8523,-5.8523,-5.8523,-5.8523,-5.8523,-5.8523,-5.8523,-5.8523,-5.8523,-5.8523,-5.8381,-4.4203,-4.4531,-4.4856,-4.518,-4.598,-4.6478,-4.6401,-4.7074,-4.7689,-4.7485,-4.6998,-4.7026,-4.7819,-4.8583,-4.9052,-4.9461,-5.044,-5.1308,-5.215,-5.1671,-5.222,-5.4124,-5.4685,-5.5077,-5.511,-5.5334,-5.5496,-5.5496,-5.5729,-5.5961,-5.6394,-5.6652,-5.6964,-5.7303,-5.7303,-5.7528,-5.7863,-5.7781,-5.8335,-5.9207,-5.9099,-5.9452,-6.0016,-5.988,-5.9773,-5.9773,-5.9667,-5.9667,-5.9667,-5.9422,-5.9315,-5.9315,-5.9315,-5.9422,-5.9422,-5.9207,-5.9315,-5.9207,-5.7833,-5.6651,-5.5355,-5.3631,-5.3052,-5.2535,-5.1846,-5.1596,-5.1596,-5.1596,-5.1596,-5.1596,-5.1596,-5.1931,-5.2397,-5.3102,0.0,-5.4281,-5.5101,-5.5313,-5.5472,-5.571,-5.5736,-5.5736,-5.5736,-5.5868,-5.5868,-5.5868,-5.5868,-5.5868,-5.5868,-5.5736,-5.6107,-5.69,-5.7509,-5.7999,-5.8497,-5.8523,-5.8779,-5.9455,-5.8779,-5.9315,-6.0811,-5.9175,-5.9035,-5.9707,-5.892,-5.8523,-5.8523,-5.8523,-5.8523,-5.8523,-5.8523,-5.8523,-5.8523,-5.8523,-5.8523,-5.8381,-4.4748,-4.5154,-4.5662,-4.598,-4.6687,-4.728,-4.7308,-4.8094,-4.8596,-4.8424,-4.8021,-4.7993,-4.8696,-4.9223,-4.9681,-5.015,-5.0854,-5.1699,-5.2659,-5.2288,-5.2486,-5.3743,-5.4672,-5.5047,-5.495,-5.514,-5.5252,-5.5049,-5.5478,-5.5908,-5.6222,-5.668,-5.7107,-5.7416,-5.7416,-5.7751,-5.8335,-5.8114,-5.8664,-5.9606,-5.9422,-5.9773,-6.0197,-6.0197,-6.0092,-6.0092,-5.9986,-6.0016,-6.0016,-5.9773,-5.9636,-5.9636,-5.9636,-5.9529,-5.9529,-5.9606,-5.9743,-5.9773,-5.9207,-5.8605,-5.744,-5.5032,-5.4204,-5.3844,-5.3025,-5.2562,-5.2315,-5.2315,-5.2094,-5.197,-5.197,-5.2094,-5.243,-5.3012,-5.3874,-5.4586,-5.5172,-5.5759,-5.6132,-5.6132,-5.6,-5.6,-5.6132,-5.6132,-5.6132,-5.6263,-5.6263,-5.6263,-5.6132,-5.6132,-5.6398,-5.6957,-5.741,-5.791,-5.8517,-5.8701,-5.9342,-6.0399,-5.9595,-5.9985,-6.1356,-5.9846,-5.9568,-6.0123,-5.8894,-5.8523,-5.8523,-5.8523,-5.8523,-5.8523,-5.8523,-5.8523,-5.8523,-5.8523,-5.8523,-5.8523,-4.5901,-4.661,-4.741,-4.792,-4.8724,-4.9022,-4.8581,-4.9346,-4.964,-4.8681,-4.8724,-4.8795,-4.8795,-4.9805,-5.0383,-5.0383,-5.0887,-5.1439,-5.2097,-5.2892,-5.3494,-5.3669,-5.5381,-5.5961,-5.4921,-5.495,-5.4648,-5.4148,-5.4715,-5.5367,-5.5958,-5.6592,-5.722,-5.7781,-5.7781,-5.8114,-5.8694,-5.8664,-5.9207,-5.9895,-5.9986,-6.0302,-6.0794,-6.0481,-6.0377,-6.0377,-6.0092,-6.0016,-6.0016,-6.0016,-6.0016,-6.0016,-6.0016,-5.9773,-5.9529,-5.9789,-5.9713,-5.9422,-5.9207,-5.956,-5.9529,-5.7664,-5.6308,-5.5383,-5.5412,-5.4706,-5.4019,-5.4019,-5.3322,-5.2588,-5.2588,-5.2588,-5.2801,-5.3414,-5.4,-5.4586,-5.5172,-5.5732,-5.6105,-5.6132,-5.5868,-5.5736,-5.6132,-5.6132,-5.6263,-5.6682,-5.6682,-5.6524,-5.6132,-5.6132,-5.6371,-5.6957,-5.6984,-5.7543,-5.8689,-5.8911,-5.9761,-6.122,-6.0784,-6.0261,-5.9648,-6.0261,-5.9985,-5.9088,-5.8664,-5.8523,-5.8523,-5.8523,-5.8523,-5.8523,-5.8523,-5.8523,-5.8523,-5.8523,-5.8523,-5.8523,-4.5635,-4.6478,-4.741,-4.792,-4.8724,-4.9219,-4.9375,-5.025,-5.0632,-5.0124,-4.9834,-4.9834,-5.0412,-5.022,-5.0508,-5.1386,-5.1695,-5.2152,-5.3192,-5.4046,-5.4809,-5.5323,-5.5478,-5.5753,-5.6243,-5.606,-5.6025,-5.5945,-5.634,-5.6578,-5.6592,-5.7245,-5.7669,-5.7781,-5.8003,-5.8555,-5.9207,-5.9099,-5.9636,-6.0481,-6.0377,-6.0481,-6.0794,-6.069,-6.069,-6.069,-6.0617,-6.0617,-6.0481,-6.0377,-6.0302,-6.0302,-6.0302,-6.0377,-6.0481,-6.0481,-6.0481,-6.0377,-6.0061,-6.0167,-5.9819,-5.7775,-5.7104,-5.6764,-5.5616,-5.5178,-5.4942,-5.4942,-5.4706,-5.435,-5.3658,-5.3537,-5.3498,-5.3225,-5.3761,-5.4351,-5.5222,-5.5815,-5.6455,-5.6861,-5.6785,-5.6785,-5.6915,-5.6915,-5.6915,-5.7044,-5.7044,-5.7044,-5.6915,-5.6915,-5.7228,-5.8136,-5.8549,-5.9349,-6.0326,-6.007,-6.043,-6.1247,-6.1084,-6.1464,-6.2164,-6.0426,-5.9873,-6.0564,-5.9061,-5.8523,-5.8523,-5.8523,-5.8523,-5.8523,-5.8523,-5.8523,-5.8523,-5.8523,-5.8523,-5.8523,-4.666,-4.7513,-4.8324,-4.8951,-4.9346,-4.9834,-5.0057,-5.0728,-5.1105,-5.0822,-5.0632,-5.0632,-5.1135,-5.0728,-5.0822,-5.1787,-5.1972,-5.2429,-5.3283,-5.3837,-5.47,-5.5844,-5.5425,-5.5621,-5.6594,-5.6556,-5.6436,-5.6301,-5.6885,-5.7107,-5.7232,-5.8059,-5.8435,-5.8248,-5.8624,-5.9177,-5.9636,-5.9422,-5.9849,-6.0794,-6.0481,-6.0586,-6.0794,-6.0794,-6.0794,-6.0794,-6.0794,-6.0794,-6.0794,-6.0586,-6.0586,-6.0586,-6.0586,-6.069,-6.0794,-6.0794,-6.0794,-6.0794,-6.0586,-6.0586,-6.0241,-5.8793,-5.8575,-5.8386,-5.7245,-5.6793,-5.6451,-5.6337,-5.5992,-5.5673,-5.5088,-5.497,-5.4852,-5.4405,-5.4901,-5.5331,-5.5593,-5.6389,-5.6795,-5.6794,-5.6909,-5.7044,-5.7174,-5.7044,-5.7044,-5.7174,-5.7174,-5.7174,-5.7174,-5.7174,-5.7661,-5.862,-5.8982,-5.9795,-6.1051,-6.1161,-6.1463,-6.1936,-6.2025,-6.2536,-6.3516,-6.1247,-6.0838,-6.1761,-5.9595,-5.8947,-5.9061,-5.8638,-5.8523,-5.8523,-5.8523,-5.8523,-5.8523,-5.8523,-5.8523,-5.8523,-4.8581,-4.9178,-4.9892,-5.0405,-5.0501,-5.0567,-5.0822,-5.1011,-5.1105,-5.0822,-5.1011,-5.1229,-5.1229,-5.1229,-5.1323,-5.1572,-5.2094,-5.2489,-5.279,-5.3009,-5.3837,-5.553,-5.544,-5.5674,-5.6475,-5.6638,-5.6445,-5.5918,-5.6793,-5.7358,-5.758,-5.8908,-5.9287,-5.8832,-5.9439,-5.9909,-6.0,-5.9652,-6.0,-6.0794,-6.0481,-6.0586,-6.0794,-6.0794,-6.0794,-6.0794,-6.0794,-6.0794,-6.0794,-6.0794,-6.0794,-6.0794,-6.0794,-6.0794,-6.0794,-6.0794,-6.0794,-6.0794,-6.0794,-6.0794,-6.069,-6.0377,-6.0197,-5.9986,-5.9636,-5.8961,-5.8305,-5.7944,-5.7191,-5.6623,-5.6509,-5.6509,-5.6509,-5.6394,-5.688,-5.6929,-5.6157,-5.7042,-5.7453,-5.6658,-5.6692,-5.7044,-5.7303,-5.6915,-5.6942,-5.7303,-5.7303,-5.7303,-5.7431,-5.7431,-5.7916,-5.8871,-5.8843,-5.9623,-6.1089,-6.2157,-6.2826,-6.2936,-6.322,-6.3533,-6.3908,-6.2592,-6.2326,-6.2697,-6.0288,-5.9621,-6.0261,-5.9008,-5.8418,-5.856,-5.8444,-5.8444,-5.8444,-5.8638,-5.8523,-5.8523,-4.8481,-4.9277,-5.0086,-5.0405,-5.0662,-5.0728,-5.0793,-5.1011,-5.1105,-5.0822,-5.1011,-5.1229,-5.1229,-5.1229,-5.1323,-5.1572,-5.2704,-5.3407,-5.3498,-5.4572,-5.559,-5.6492,-5.6649,-5.7149,-5.7871,-5.784,-5.7588,-5.6976,-5.7983,-5.8128,-5.7474,-5.8662,-5.9085,-5.8985,-5.8767,-5.9134,-6.0065,-5.9375,-5.9784,-6.0794,-6.069,-6.0794,-6.0794,-6.0794,-6.0794,-6.0794,-6.0794,-6.0794,-6.0794,-6.0794,-6.0794,-6.0794,-6.0794,-6.0794,-6.0794,-6.0794,-6.0794,-6.0794,-6.0586,-6.0481,-6.0377,-6.0197,-6.0197,-6.0302,-5.9986,-5.9773,-5.956,-5.9177,-5.8961,-5.8525,-5.7611,-5.7245,-5.6907,-5.6509,-5.6249,-5.6389,-5.6901,-5.761,-5.8143,-5.8503,-5.8355,-5.8242,-5.8242,-5.7532,-5.7431,-5.827,-5.8242,-5.862,-5.9397,-5.9521,-5.9891,-6.0986,-6.0986,-6.1164,-6.143,-6.2913,-6.3436,-6.2936,-6.3688,-6.4034,-6.3908,-6.3225,-6.3066,-6.3066,-6.1165,-6.1029,-6.1947,-5.9089,-5.8487,-5.9424,-5.8236,-5.7843,-5.8035,-5.9296,-5.9175,-5.8523,-4.9079,-4.96,-5.0183,-5.0501,-5.0662,-5.0822,-5.1011,-5.1105,-5.1105,-5.1011,-5.1105,-5.1229,-5.1229,-5.1323,-5.1509,-5.1787,-5.2673,-5.3221,-5.3402,-5.4563,-5.5732,-5.6514,-5.6951,-5.7639,-5.8427,-5.8518,-5.8401,-5.809,-5.8468,-5.8625,-5.8494,-5.8998,-5.9283,-5.9283,-5.9336,-5.9679,-6.0152,-5.9756,-5.9873,-6.0346,-6.0687,-6.0608,-6.0363,-6.0671,-6.0794,-6.0794,-6.0794,-6.0794,-6.0794,-6.0794,-6.0794,-6.0794,-6.0794,-6.0794,-6.0794,-6.0794,-6.0794,-6.0794,-6.0586,-6.0481,-6.0377,-6.0407,-6.0302,-6.0197,-5.9986,-6.0092,-6.0092,-5.9773,-5.9636,-5.9315,-5.8634,-5.8276,-5.8055,-5.7751,-5.7499,-5.7503,-5.7739,-5.809,-5.8464,-5.8889,-5.8888,-5.8907,-5.9341,-5.8899,-5.8774,-5.9245,-5.9369,-5.9493,-6.0137,-6.0137,-6.0624,-6.1584,-6.1613,-6.185,-6.2321,-6.3145,-6.3565,-6.3421,-6.4034,-6.4677,-6.5319,-6.4138,-6.4009,-6.4781,-6.2773,-6.2109,-6.2347,-6.0266,-5.9508,-5.9508,-5.8716,-5.8716,-5.918,-5.9908,-5.9734,-5.9315,-4.9892,-4.999,-5.0279,-5.0501,-5.0757,-5.0917,-5.1229,-5.1229,-5.1229,-5.1229,-5.1229,-5.1229,-5.1229,-5.1479,-5.1787,-5.1972,-5.2518,-5.2877,-5.3024,-5.4304,-5.5411,-5.6157,-5.6979,-5.7825,-5.8578,-5.8882,-5.8972,-5.8882,-5.8792,-5.9062,-5.954,-5.9639,-5.9621,-5.9685,-6.0134,-6.0265,-6.0202,-6.0107,-6.0075,-6.0168,-6.0638,-6.0563,-6.0059,-6.0617,-6.0825,-6.0815,-6.0815,-6.0805,-6.0794,-6.0794,-6.0794,-6.0794,-6.0794,-6.0794,-6.0794,-6.0794,-6.0794,-6.0794,-6.069,-6.0586,-6.0481,-6.0586,-6.0407,-6.0092,-6.0092,-6.0197,-6.0377,-6.0092,-5.9773,-5.9529,-5.9529,-5.9315,-5.9099,-5.9099,-5.9099,-5.8991,-5.8525,-5.8726,-5.8977,-5.9045,-5.9302,-5.9635,-6.0173,-6.0137,-6.0137,-6.0381,-6.0381,-6.0381,-6.0624,-6.0624,-6.0986,-6.185,-6.185,-6.2204,-6.3079,-6.3079,-6.3378,-6.4006,-6.4242,-6.5158,-6.6819,-6.5134,-6.5192,-6.6476,-6.4381,-6.3158,-6.2868,-6.1697,-6.0601,-5.9614,-5.9562,-5.9993,-6.0634,-6.0403,-6.0537,-6.0674,-5.0405,-5.0405,-5.0471,-5.0728,-5.1011,-5.1135,-5.1229,-5.1229,-5.1229,-5.1229,-5.1229,-5.1229,-5.1229,-5.1572,-5.1941,-5.2215,-5.2935,-5.329,-5.3377,-5.504,-5.6094,-5.6189,-5.7603,-5.8514,-5.861,-5.9062,-5.894,-5.8303,-5.9152,-5.9241,-5.8792,-5.9605,-5.9934,-5.9669,-5.9287,-5.9548,-6.0248,-5.9568,-5.9885,-6.0801,-6.0897,-6.0835,-6.0772,-6.0868,-6.0929,-6.0908,-6.0908,-6.0913,-6.0794,-6.0794,-6.0794,-6.0794,-6.0794,-6.0794,-6.0794,-6.0794,-6.0794,-6.0794,-6.0481,-6.0377,-6.0377,-6.0197,-6.0197,-6.0377,-6.0377,-6.0377,-6.0377,-6.0377,-6.0092,-5.988,-5.9529,-5.9315,-5.9099,-5.9099,-5.9315,-5.9422,-5.9315,-6.0072,-6.0633,-6.0615,-6.066,-6.0706,-6.0537,-6.023,-6.0502,-6.1346,-6.1346,-6.1732,-6.2701,-6.2701,-6.2701,-6.2933,-6.2963,-6.2963,-6.3079,-6.3079,-6.3378,-6.4006,-6.4068,-6.4785,-6.6161,-6.6485,-6.6723,-6.6816,-6.4706,-6.4443,-6.5187,-6.1955,-6.0878,-6.1269,-6.0802,-6.0386,-6.0187,-6.1213,-6.2192,-6.283,-5.0316,-5.0501,-5.0567,-5.0728,-5.1011,-5.1229,-5.1229,-5.1229,-5.1229,-5.1229,-5.1229,-5.1229,-5.1416,-5.1972,-5.2487,-5.2846,-5.3321,-5.3584,-5.3584,-5.5311,-5.6335,-5.6335,-5.7936,-5.8882,-5.8972,-5.9241,-5.9241,-5.9062,-5.9062,-5.9152,-5.9241,-5.9331,-5.9596,-5.9892,-5.9684,-5.9934,-6.0489,-6.0049,-6.0121,-6.0412,-6.0799,-6.0688,-6.0352,-6.0735,-6.0899,-6.09,-6.09,-6.0638,-6.0322,-6.0695,-6.0515,-6.0301,-6.0671,-6.0794,-6.0794,-6.0794,-6.0794,-6.0794,-6.069,-6.0481,-6.0377,-6.0407,-6.0302,-6.0302,-6.0586,-6.0481,-6.0481,-6.0586,-6.0377,-6.0092,-5.988,-5.9529,-5.9315,-5.9099,-5.9207,-5.9422,-5.9773,-6.0015,-6.0318,-6.0789,-6.1528,-6.2007,-6.173,-6.1851,-6.2087,-6.2468,-6.2585,-6.2817,-6.3309,-6.3309,-6.3424,-6.3652,-6.3309,-6.3194,-6.3309,-6.3194,-6.3199,-6.3498,-6.3827,-6.4695,-6.6011,-6.6311,-6.664,-6.6969,-6.564,-6.5182,-6.5264,-6.3022,-6.213,-6.1968,-6.1784,-6.188,-6.2145,-6.279,-6.3204,-6.3225]},{"header":{"parameterUnit":"m.s-1","parameterCategory":1,"la1":30.6,"la2":28.766,"lo1":-90.7593,"lo2":-88.6598,"dy":0.0162,"dx":0.0183,"nx":116,"ny":114,"refTime":"2023-04-09T12:00:00:Z","depth":0,"parameterNumber":3,"parameterNumberName":"V-component_of_WINDS"},"data":[0.0,0.0,0.0,0.0,0.0,0.0,0.0,0.0,0.0,0.0,0.0,0.0,0.0,0.0,0.0,0.0,0.0,0.0,0.0,0.0,0.0,0.0,0.0,0.0,0.0,0.0,0.0,0.0,0.0,0.0,0.0,0.0,0.0,0.0,0.0,0.0,0.0,0.0,0.0,0.0,0.0,0.0,0.0,0.0,0.0,0.0,0.0,0.0,0.0,0.0,0.0,0.0,0.0,0.0,0.0,0.0,0.0,0.0,0.0,0.0,0.0,0.0,0.0,0.0,0.0,0.0,0.0,0.0,0.0,0.0,0.0,0.0,0.0,0.0,0.0,0.0,0.0,0.0,0.0,0.0,0.0,0.0,0.0,0.0,0.0,0.0,0.0,0.0,0.0,0.0,0.0,0.0,0.0,0.0,0.0,0.0,0.0,0.0,0.0,0.0,0.0,0.0,0.0,0.0,0.0,0.0,0.0,0.0,0.0,0.0,0.0,0.0,0.0,0.0,0.0,0.0,0.0,0.0,0.0,0.0,0.0,0.0,0.0,0.0,0.0,0.0,0.0,0.0,0.0,0.0,0.0,0.0,0.0,0.0,0.0,0.0,0.0,0.0,0.0,0.0,0.0,0.0,0.0,0.0,0.0,0.0,0.0,0.0,0.0,0.0,0.0,0.0,0.0,0.0,0.0,0.0,0.0,0.0,0.0,0.0,0.0,0.0,0.0,0.0,0.0,0.0,0.0,0.0,0.0,0.0,0.0,0.0,0.0,0.0,0.0,0.0,0.0,0.0,0.0,0.0,0.0,0.0,0.0,0.0,0.0,0.0,0.0,0.0,0.0,0.0,0.0,0.0,0.0,0.0,0.0,0.0,0.0,0.0,0.0,0.0,0.0,0.0,0.0,0.0,0.0,0.0,0.0,0.0,0.0,0.0,0.0,0.0,0.0,0.0,0.0,0.0,0.0,0.0,0.0,0.0,0.0,0.0,0.0,0.0,0.0,0.0,0.0,0.0,0.0,0.0,0.0,0.0,0.0,0.0,0.0,0.0,0.0,0.0,0.0,0.0,0.0,0.0,0.0,0.0,0.0,0.0,0.0,0.0,0.0,0.0,0.0,0.0,0.0,0.0,0.0,0.0,0.0,0.0,0.0,0.0,0.0,0.0,0.0,0.0,0.0,0.0,0.0,0.0,0.0,0.0,0.0,0.0,0.0,0.0,0.0,0.0,0.0,0.0,0.0,0.0,0.0,0.0,0.0,0.0,0.0,0.0,0.0,0.0,0.0,0.0,0.0,0.0,0.0,0.0,0.0,0.0,0.0,0.0,0.0,0.0,0.0,0.0,0.0,0.0,0.0,0.0,0.0,0.0,0.0,0.0,0.0,0.0,0.0,0.0,0.0,0.0,0.0,0.0,0.0,0.0,0.0,0.0,0.0,0.0,0.0,0.0,0.0,0.0,0.0,0.0,0.0,0.0,0.0,0.0,0.0,0.0,0.0,0.0,0.0,0.0,0.0,0.0,0.0,0.0,0.0,0.0,0.0,0.0,0.0,0.0,0.0,0.0,0.0,0.0,0.0,0.0,0.0,0.0,0.0,0.0,0.0,0.0,0.0,0.0,0.0,0.0,0.0,0.0,0.0,0.0,0.0,0.0,0.0,0.0,0.0,0.0,0.0,0.0,0.0,0.0,0.0,0.0,0.0,0.0,0.0,0.0,0.0,0.0,0.0,0.0,0.0,0.0,0.0,0.0,0.0,0.0,0.0,0.0,0.0,0.0,0.0,0.0,0.0,0.0,0.0,0.0,0.0,0.0,0.0,0.0,0.0,0.0,0.0,0.0,0.0,0.0,0.0,0.0,0.0,0.0,0.0,0.0,0.0,0.0,0.0,0.0,0.0,0.0,0.0,0.0,0.0,0.0,0.0,0.0,0.0,0.0,0.0,0.0,0.0,0.0,0.0,0.0,0.0,0.0,0.0,0.0,0.0,0.0,0.0,0.0,0.0,0.0,0.0,0.0,0.0,0.0,0.0,0.0,0.0,0.0,0.0,0.0,0.0,0.0,0.0,0.0,0.0,0.0,0.0,0.0,0.0,0.0,0.0,0.0,0.0,0.0,0.0,0.0,0.0,0.0,0.0,0.0,0.0,0.0,0.0,0.0,0.0,0.0,0.0,0.0,0.0,0.0,0.0,0.0,0.0,0.0,0.0,0.0,0.0,0.0,0.0,0.0,0.0,0.0,0.0,0.0,0.0,0.0,0.0,0.0,0.0,0.0,0.0,0.0,0.0,0.0,0.0,0.0,0.0,0.0,0.0,0.0,0.0,0.0,0.0,0.0,0.0,0.0,0.0,0.0,0.0,0.0,0.0,0.0,0.0,0.0,0.0,0.0,0.0,0.0,0.0,0.0,0.0,0.0,0.0,0.0,0.0,0.0,0.0,0.0,0.0,0.0,0.0,0.0,0.0,0.0,0.0,0.0,0.0,0.0,0.0,0.0,0.0,0.0,0.0,0.0,0.0,0.0,0.0,0.0,0.0,0.0,0.0,0.0,0.0,0.0,0.0,0.0,0.0,0.0,0.0,0.0,0.0,0.0,0.0,0.0,0.0,0.0,0.0,0.0,0.0,0.0,0.0,0.0,0.0,0.0,0.0,0.0,0.0,0.0,0.0,0.0,0.0,0.0,0.0,0.0,0.0,0.0,0.0,0.0,0.0,0.0,0.0,0.0,0.0,0.0,0.0,0.0,0.0,0.0,0.0,0.0,0.0,0.0,0.0,0.0,0.0,0.0,0.0,0.0,0.0,0.0,0.0,0.0,0.0,0.0,0.0,0.0,0.0,0.0,0.0,0.0,0.0,0.0,0.0,0.0,0.0,0.0,0.0,0.0,0.0,0.0,0.0,0.0,0.0,0.0,0.0,0.0,0.0,0.0,0.0,0.0,0.0,0.0,0.0,0.0,0.0,0.0,0.0,0.0,0.0,0.0,0.0,0.0,0.0,0.0,0.0,0.0,0.0,0.0,0.0,0.0,0.0,0.0,0.0,0.0,0.0,0.0,0.0,0.0,0.0,0.0,0.0,0.0,0.0,0.0,0.0,0.0,0.0,0.0,0.0,0.0,0.0,0.0,0.0,0.0,0.0,0.0,0.0,0.0,0.0,0.0,0.0,0.0,0.0,0.0,0.0,0.0,0.0,0.0,0.0,0.0,0.0,0.0,0.0,0.0,0.0,0.0,0.0,0.0,0.0,0.0,0.0,0.0,0.0,0.0,0.0,0.0,0.0,0.0,0.0,0.0,0.0,0.0,0.0,0.0,0.0,0.0,0.0,0.0,0.0,0.0,0.0,0.0,0.0,0.0,0.0,0.0,0.0,0.0,0.0,0.0,0.0,0.0,0.0,0.0,0.0,0.0,0.0,0.0,0.0,0.0,0.0,0.0,0.0,0.0,0.0,0.0,0.0,0.0,0.0,0.0,0.0,0.0,0.0,0.0,0.0,0.0,0.0,0.0,0.0,0.0,0.0,0.0,0.0,0.0,0.0,0.0,0.0,0.0,0.0,0.0,0.0,0.0,0.0,0.0,0.0,0.0,0.0,0.0,0.0,0.0,0.0,0.0,0.0,0.0,0.0,0.0,0.0,0.0,0.0,0.0,0.0,0.0,0.0,0.0,0.0,0.0,0.0,0.0,0.0,0.0,0.0,0.0,0.0,0.0,0.0,0.0,0.0,0.0,0.0,0.0,0.0,0.0,0.0,0.0,0.0,0.0,0.0,0.0,0.0,0.0,0.0,0.0,0.0,0.0,0.0,0.0,0.0,0.0,0.0,0.0,0.0,0.0,0.0,0.0,0.0,0.0,0.0,0.0,0.0,0.0,0.0,0.0,0.0,0.0,0.0,0.0,0.0,0.0,0.0,0.0,0.0,0.0,0.0,0.0,0.0,0.0,0.0,0.0,0.0,0.0,0.0,0.0,0.0,0.0,0.0,0.0,0.0,0.0,0.0,0.0,0.0,0.0,0.0,0.0,0.0,0.0,0.0,0.0,0.0,0.0,0.0,0.0,0.0,0.0,0.0,0.0,0.0,0.0,0.0,0.0,0.0,0.0,0.0,0.0,0.0,0.0,0.0,0.0,0.0,0.0,0.0,0.0,0.0,0.0,0.0,0.0,0.0,0.0,0.0,0.0,0.0,0.0,0.0,0.0,0.0,0.0,0.0,0.0,0.0,0.0,0.0,0.0,0.0,0.0,0.0,0.0,0.0,0.0,0.0,0.0,0.0,0.0,0.0,0.0,0.0,0.0,0.0,0.0,0.0,0.0,0.0,0.0,0.0,0.0,0.0,0.0,0.0,0.0,0.0,0.0,0.0,0.0,0.0,0.0,0.0,0.0,0.0,0.0,0.0,0.0,0.0,0.0,0.0,0.0,0.0,0.0,0.0,0.0,0.0,0.0,0.0,0.0,0.0,0.0,0.0,0.0,0.0,0.0,0.0,0.0,0.0,0.0,0.0,0.0,0.0,0.0,0.0,0.0,0.0,0.0,0.0,0.0,0.0,0.0,0.0,0.0,0.0,0.0,0.0,0.0,0.0,0.0,0.0,0.0,0.0,0.0,0.0,0.0,0.0,0.0,0.0,0.0,0.0,0.0,0.0,0.0,0.0,0.0,0.0,0.0,0.0,0.0,0.0,0.0,0.0,0.0,0.0,0.0,0.0,0.0,0.0,0.0,0.0,0.0,0.0,0.0,0.0,0.0,0.0,0.0,0.0,0.0,0.0,0.0,0.0,0.0,0.0,0.0,0.0,0.0,0.0,0.0,0.0,0.0,0.0,0.0,0.0,0.0,0.0,0.0,0.0,0.0,0.0,0.0,0.0,0.0,0.0,0.0,0.0,0.0,0.0,0.0,0.0,0.0,0.0,0.0,0.0,0.0,0.0,0.0,0.0,0.0,0.0,0.0,0.0,0.0,0.0,0.0,0.0,0.0,0.0,0.0,0.0,0.0,0.0,0.0,0.0,0.0,0.0,0.0,0.0,0.0,0.0,0.0,0.0,0.0,0.0,0.0,0.0,0.0,0.0,0.0,0.0,0.0,0.0,0.0,0.0,0.0,0.0,0.0,0.0,0.0,0.0,0.0,0.0,0.0,0.0,0.0,0.0,0.0,0.0,0.0,0.0,0.0,0.0,0.0,0.0,0.0,0.0,0.0,0.0,0.0,0.0,0.0,0.0,0.0,0.0,0.0,0.0,0.0,0.0,0.0,0.0,0.0,0.0,0.0,0.0,0.0,0.0,0.0,0.0,0.0,0.0,0.0,0.0,0.0,0.0,0.0,0.0,0.0,0.0,0.0,0.0,0.0,0.0,0.0,0.0,0.0,0.0,0.0,0.0,0.0,0.0,0.0,0.0,0.0,0.0,0.0,0.0,0.0,0.0,0.0,0.0,0.0,0.0,0.0,0.0,0.0,0.0,0.0,0.0,0.0,0.0,0.0,0.0,0.0,0.0,0.0,0.0,0.0,0.0,0.0,0.0,0.0,0.0,0.0,0.0,0.0,0.0,0.0,0.0,0.0,0.0,0.0,0.0,0.0,0.0,0.0,0.0,0.0,0.0,0.0,0.0,0.0,0.0,0.0,0.0,0.0,0.0,0.0,0.0,0.0,0.0,0.0,0.0,0.0,0.0,0.0,0.0,0.0,0.0,0.0,0.0,0.0,0.0,0.0,0.0,0.0,0.0,0.0,0.0,0.0,0.0,0.0,0.0,0.0,0.0,0.0,0.0,0.0,0.0,0.0,0.0,0.0,0.0,0.0,0.0,0.0,0.0,0.0,0.0,0.0,0.0,0.0,0.0,0.0,0.0,0.0,0.0,0.0,0.0,0.0,0.0,0.0,0.0,0.0,0.0,0.0,0.0,0.0,0.0,0.0,0.0,0.0,0.0,0.0,0.0,0.0,0.0,0.0,0.0,0.0,0.0,0.0,0.0,0.0,0.0,0.0,0.0,0.0,0.0,0.0,0.0,0.0,0.0,0.0,0.0,0.0,0.0,0.0,0.0,0.0,0.0,0.0,0.0,0.0,0.0,0.0,0.0,0.0,0.0,0.0,0.0,0.0,0.0,0.0,0.0,0.0,5.9028,0.0,0.0,0.0,0.0,0.0,0.0,0.0,0.0,0.0,0.0,0.0,0.0,0.0,0.0,0.0,0.0,0.0,0.0,0.0,0.0,0.0,0.0,0.0,0.0,4.4352,4.4677,4.4354,4.4927,4.5262,4.5262,4.5368,4.5798,4.663,4.6746,4.6961,4.7378,4.7024,4.7252,4.8022,4.801,4.8764,5.0153,4.9797,4.9094,4.8234,0.0,0.0,0.0,0.0,0.0,0.0,0.0,0.0,0.0,0.0,0.0,0.0,0.0,0.0,0.0,0.0,0.0,0.0,0.0,0.0,0.0,0.0,0.0,0.0,0.0,0.0,0.0,0.0,0.0,0.0,0.0,0.0,0.0,0.0,0.0,0.0,0.0,0.0,0.0,0.0,0.0,0.0,0.0,0.0,0.0,0.0,0.0,0.0,0.0,0.0,0.0,0.0,0.0,0.0,0.0,0.0,0.0,0.0,0.0,0.0,0.0,0.0,0.0,0.0,0.0,0.0,0.0,0.0,0.0,0.0,0.0,5.9834,0.0,0.0,0.0,0.0,0.0,0.0,0.0,0.0,0.0,0.0,0.0,0.0,0.0,0.0,0.0,0.0,0.0,0.0,0.0,0.0,0.0,4.3897,4.4265,4.5051,4.5423,4.5067,4.5779,4.6183,4.6248,4.615,4.6542,4.7488,4.7465,4.7529,4.7832,4.7239,4.7656,4.9094,4.907,5.0048,5.2021,5.1989,5.1013,4.9326,5.01,0.0,0.0,0.0,0.0,0.0,0.0,0.0,0.0,0.0,0.0,0.0,0.0,0.0,0.0,0.0,0.0,0.0,0.0,0.0,0.0,0.0,0.0,0.0,0.0,0.0,0.0,0.0,0.0,0.0,0.0,0.0,0.0,0.0,0.0,0.0,0.0,0.0,0.0,0.0,0.0,0.0,0.0,0.0,0.0,0.0,0.0,0.0,0.0,0.0,0.0,0.0,0.0,0.0,0.0,0.0,0.0,0.0,0.0,0.0,0.0,0.0,0.0,0.0,6.353,6.3628,6.3579,6.4185,6.403,6.3215,6.2537,6.1715,6.0913,6.2315,0.0,0.0,0.0,0.0,0.0,0.0,0.0,0.0,0.0,0.0,0.0,0.0,0.0,0.0,0.0,0.0,0.0,0.0,0.0,4.4339,4.5078,4.5477,4.5989,4.6713,4.6948,4.7041,4.7121,4.6531,4.6885,4.8439,4.7795,4.806,4.9538,4.9489,4.9824,5.0627,5.0997,5.1523,5.2076,5.166,5.154,5.1647,5.1819,5.1462,5.0685,0.0,0.0,0.0,0.0,0.0,0.0,0.0,0.0,0.0,0.0,0.0,0.0,0.0,0.0,0.0,0.0,0.0,0.0,0.0,0.0,0.0,0.0,0.0,0.0,0.0,0.0,0.0,0.0,0.0,0.0,0.0,0.0,0.0,0.0,0.0,0.0,0.0,0.0,0.0,0.0,0.0,5.7328,5.6652,0.0,0.0,0.0,0.0,0.0,0.0,0.0,0.0,0.0,0.0,0.0,0.0,0.0,6.2122,6.3029,6.3641,6.4029,6.4251,6.5279,6.5605,6.533,6.5822,6.579,6.5412,6.5305,0.0,6.2585,6.3611,0.0,0.0,0.0,0.0,0.0,0.0,0.0,0.0,0.0,0.0,0.0,0.0,0.0,0.0,0.0,0.0,0.0,0.0,0.0,0.0,0.0,4.6853,4.7382,4.7787,4.8352,4.8699,4.8753,4.8477,4.859,4.9349,4.9007,4.9159,4.9879,5.0442,5.1233,5.2258,5.3057,5.3376,5.3316,5.3564,5.3562,5.3278,5.3144,5.2564,5.163,5.1792,0.0,0.0,0.0,0.0,0.0,0.0,0.0,0.0,0.0,0.0,0.0,0.0,0.0,0.0,0.0,0.0,0.0,0.0,0.0,0.0,0.0,0.0,0.0,0.0,0.0,0.0,0.0,0.0,0.0,0.0,0.0,0.0,0.0,0.0,0.0,0.0,0.0,0.0,0.0,5.6736,5.7512,5.7565,5.8448,5.8711,0.0,0.0,0.0,0.0,0.0,0.0,0.0,0.0,0.0,6.2863,6.3178,6.3848,6.4903,6.505,6.5294,6.5769,6.6279,6.6417,6.6148,6.6247,6.6146,6.5895,6.5867,6.532,6.4597,6.4894,6.4647,6.4141,0.0,0.0,0.0,0.0,6.4216,6.4382,0.0,0.0,0.0,0.0,0.0,0.0,0.0,0.0,0.0,0.0,0.0,0.0,4.7559,4.8286,4.8871,4.9381,5.0099,5.0448,5.022,5.0031,4.9879,4.9879,4.969,4.969,4.9879,5.1239,5.2627,5.4012,5.4981,5.5303,5.504,5.5645,5.5573,5.4938,5.4689,5.3716,5.2322,5.2402,5.2087,5.1585,0.0,0.0,0.0,0.0,0.0,0.0,0.0,0.0,0.0,0.0,0.0,0.0,0.0,0.0,0.0,0.0,0.0,0.0,0.0,0.0,0.0,0.0,0.0,0.0,0.0,0.0,0.0,0.0,0.0,0.0,0.0,0.0,0.0,0.0,0.0,0.0,0.0,5.7819,5.8566,5.9013,5.976,5.9944,0.0,0.0,0.0,0.0,0.0,0.0,6.2814,6.3678,6.4388,6.4783,6.489,6.5437,6.6682,6.638,6.6605,6.7402,6.7402,6.7282,6.7065,6.6942,6.6756,6.6531,6.6439,6.6439,6.6523,6.5935,6.5446,6.5053,6.553,6.5845,6.5999,6.5727,6.5754,6.5891,0.0,0.0,0.0,0.0,0.0,0.0,0.0,0.0,0.0,0.0,0.0,4.6779,4.9286,4.9558,5.0229,5.1962,5.2151,5.1878,5.1206,5.0372,4.9879,4.9879,4.9159,4.9121,4.9879,5.221,5.4254,5.5943,5.662,5.71,5.7324,5.7143,5.7012,5.6941,5.6664,5.5062,5.2605,5.2847,5.2494,5.1769,5.1559,0.0,0.0,0.0,0.0,0.0,0.0,0.0,0.0,0.0,0.0,0.0,0.0,0.0,0.0,0.0,0.0,0.0,0.0,0.0,0.0,0.0,0.0,0.0,0.0,0.0,0.0,0.0,0.0,0.0,0.0,0.0,0.0,0.0,0.0,0.0,0.0,0.0,0.0,6.1747,6.1362,0.0,0.0,0.0,0.0,6.2004,6.2168,6.2688,6.3679,6.5111,6.5825,6.5731,6.6571,6.7316,6.7873,6.7873,6.8271,6.9068,6.9068,6.8945,6.857,6.857,6.8342,6.798,6.798,6.798,6.7903,6.6495,6.6161,6.6404,6.6427,6.6641,6.6858,6.5924,6.569,6.5823,0.0,0.0,0.0,4.3795,4.3923,4.4265,4.5028,4.5313,4.5895,4.722,4.7947,4.8842,5.0244,5.0975,5.179,5.2983,5.3156,5.3072,5.2836,5.2002,5.1282,5.0751,5.0448,5.1489,5.403,5.4895,5.6118,5.7742,5.8144,5.803,5.7536,5.7939,5.7839,5.7346,5.7116,5.6493,5.5525,5.465,5.3641,5.2569,5.2491,5.2361,0.0,0.0,0.0,0.0,0.0,0.0,0.0,0.0,0.0,0.0,0.0,0.0,0.0,0.0,0.0,0.0,0.0,0.0,0.0,0.0,0.0,0.0,0.0,0.0,0.0,0.0,0.0,0.0,0.0,0.0,0.0,0.0,0.0,0.0,0.0,0.0,0.0,6.3083,6.3209,0.0,6.1991,6.2345,6.2862,6.3346,6.4177,6.5095,6.6152,6.7011,6.7737,6.8073,6.8459,6.8691,6.8742,6.8778,6.8923,6.9176,6.9176,6.9054,6.8678,6.8678,6.845,6.8088,6.8088,6.8088,6.8052,6.7546,6.7589,6.7878,6.7752,6.8002,6.8331,6.7861,6.7849,6.7992,0.0,0.0,0.0,4.4079,4.4363,4.4827,4.566,4.5848,4.6591,4.8512,4.906,4.9948,5.1579,5.2349,5.3051,5.3883,5.4057,5.3859,5.329,5.3034,5.2417,5.1244,5.1736,5.3538,5.6683,5.673,5.7566,5.9231,5.9388,5.915,5.8491,5.9024,5.8957,5.8365,5.8242,5.799,5.7586,5.6622,5.5467,5.4259,5.3962,5.3585,5.3128,0.0,0.0,0.0,0.0,0.0,0.0,0.0,0.0,0.0,0.0,0.0,0.0,0.0,0.0,0.0,0.0,0.0,0.0,0.0,0.0,0.0,0.0,0.0,0.0,0.0,0.0,0.0,0.0,0.0,0.0,0.0,0.0,0.0,0.0,6.25,6.2953,6.4121,6.4407,6.4271,6.3705,6.4214,6.4793,6.5264,6.6244,6.7322,6.8293,6.8637,6.9012,6.9464,6.9418,6.9503,6.9575,6.9828,7.0082,7.0372,7.0661,7.0581,7.0296,7.0296,7.0064,6.9693,6.9693,6.9693,6.9693,6.9693,6.9895,7.0087,6.8945,6.8886,6.9415,6.9389,6.9632,7.0009,0.0,4.3726,4.4147,4.444,4.5172,4.5763,4.5923,4.6043,4.6992,4.9504,4.9164,4.9986,5.3328,5.361,5.3883,5.4844,5.492,5.42,5.257,5.3415,5.3136,5.1357,5.2911,5.5017,5.7506,5.7634,5.8529,6.0294,6.038,6.0408,6.0408,6.0408,6.0285,6.0137,6.0137,5.9581,5.859,5.8553,5.7905,5.681,5.5913,5.5088,5.4288,0.0,0.0,0.0,0.0,0.0,0.0,0.0,0.0,0.0,0.0,0.0,0.0,0.0,0.0,0.0,0.0,0.0,0.0,0.0,0.0,0.0,0.0,0.0,0.0,0.0,0.0,0.0,0.0,0.0,0.0,0.0,0.0,0.0,6.336,6.3786,6.4406,6.5027,6.5118,6.5396,6.6081,6.5922,6.6284,6.7667,6.8274,6.9023,7.0073,6.9827,6.969,6.9727,6.9586,6.9806,7.048,7.1205,7.1965,7.2762,7.3559,7.3724,7.3424,7.3424,7.3183,7.2798,7.2798,7.2798,7.2798,7.2798,7.2939,7.2791,6.9944,6.9253,6.9965,7.0355,7.0951,7.1712,0.0,4.3918,4.4383,4.4468,4.5265,4.6045,4.6676,4.7391,4.8559,5.0496,5.1102,5.1964,5.3528,5.4191,5.4625,5.4882,5.492,5.4693,5.4238,5.3376,5.2883,5.3025,5.5323,5.7206,5.8418,5.9079,5.971,6.0294,6.0323,6.0352,6.0408,6.0464,6.077,6.1315,6.0774,6.0724,6.0977,5.9885,5.9284,5.8812,5.7105,5.6455,5.6367,0.0,0.0,0.0,0.0,0.0,0.0,0.0,0.0,0.0,0.0,0.0,0.0,0.0,0.0,0.0,0.0,0.0,0.0,0.0,0.0,0.0,0.0,0.0,0.0,0.0,0.0,0.0,0.0,0.0,0.0,0.0,6.4288,6.4785,6.5421,6.5381,6.5724,6.697,6.746,6.7654,6.7568,6.8336,6.9007,6.9412,6.9502,6.9921,7.0783,7.1158,7.1563,7.206,7.2454,7.279,7.2943,7.316,7.3378,7.3595,7.3812,7.379,7.3627,7.3492,7.3252,7.3009,7.2869,7.2798,7.2798,7.2798,7.2869,7.2797,7.2009,7.2,7.2418,7.2485,7.2828,7.3269,0.0,4.398,4.4496,4.4496,4.5566,4.6591,4.7071,4.7974,4.9332,5.144,5.1802,5.2485,5.4106,5.4638,5.492,5.492,5.5223,5.4996,5.3935,5.329,5.3841,5.5817,5.7358,5.8509,5.9292,5.9908,6.0197,6.0294,6.0323,6.038,6.0408,6.0808,6.1092,6.1299,6.1186,6.13,6.144,6.0578,6.0179,5.9946,5.8774,5.8034,5.758,5.7082,5.6956,5.6942,5.6232,5.6248,5.648,5.5902,0.0,0.0,0.0,0.0,0.0,0.0,0.0,0.0,0.0,0.0,0.0,0.0,0.0,0.0,0.0,0.0,0.0,0.0,0.0,0.0,0.0,0.0,0.0,0.0,6.6336,6.6976,6.7846,6.7379,6.7235,6.8216,6.8978,6.9335,6.9104,7.0018,7.0587,7.0587,7.1154,7.1662,7.208,7.2668,7.3202,7.3488,7.3732,7.3921,7.3921,7.4247,7.4428,7.4428,7.4754,7.5014,7.5173,7.4968,7.4903,0.0,7.4833,7.4761,7.4761,7.4761,7.4761,0.0,0.0,0.0,0.0,0.0,7.46,7.4971,4.3493,4.4011,4.4496,4.4496,4.5942,4.7118,4.7202,4.805,4.9662,5.227,5.1858,5.2285,5.4846,5.4971,5.492,5.492,5.5602,5.511,5.2836,5.3698,5.5665,5.8682,5.8919,5.9285,5.9975,6.0205,6.0294,6.0294,6.038,6.0446,6.0561,6.1249,6.1371,6.0904,6.1505,6.1543,6.1065,6.0926,6.0789,6.0671,6.0556,5.9672,5.8358,5.8284,5.7866,5.7203,5.6752,5.7095,5.7753,5.7678,0.0,0.0,0.0,0.0,0.0,0.0,0.0,0.0,0.0,0.0,0.0,0.0,0.0,0.0,0.0,0.0,0.0,0.0,0.0,0.0,0.0,0.0,0.0,0.0,6.8717,6.9627,7.0263,6.9527,6.8974,6.907,7.0016,7.0655,7.0602,7.1195,7.1578,7.1578,7.2973,7.3795,7.3653,0.0,0.0,0.0,0.0,7.4319,7.4319,7.5116,7.5515,7.5515,7.6239,7.6859,7.7339,7.7127,7.7344,7.7807,7.7658,7.7508,7.7508,7.7508,7.7508,7.7223,7.4655,7.4081,7.4868,7.5727,7.6328,7.6674,4.3892,4.4237,4.4496,4.4496,4.5942,4.7118,4.7202,4.8541,5.0306,5.2308,5.2351,5.293,5.4884,5.4971,5.492,5.492,5.5072,5.4958,5.4465,5.6702,5.7949,5.7704,5.9147,5.9977,6.0068,6.0197,6.0323,6.038,6.0408,6.0714,6.1363,6.1573,6.2011,6.2498,6.2015,6.2145,6.2605,6.1677,6.1669,6.2271,6.1639,6.0824,6.0047,6.0021,6.0118,6.0249,6.0132,6.0247,6.0437,6.0363,6.0479,6.069,6.077,6.0782,0.0,0.0,0.0,0.0,0.0,0.0,0.0,0.0,0.0,0.0,0.0,0.0,0.0,0.0,0.0,0.0,0.0,0.0,0.0,6.8717,6.9809,7.0712,7.1268,7.1402,7.1218,7.0462,7.1035,7.1414,7.1342,7.25,7.323,7.323,7.4147,7.4542,7.4238,7.4942,7.5188,7.4965,7.613,7.6782,7.6782,7.7615,7.8014,7.8014,0.0,0.0,7.8379,7.8169,7.8099,7.8026,7.7807,7.7658,7.7508,7.7508,7.7508,7.7437,7.7053,7.7056,7.738,7.7775,7.8022,7.8267,0.0,4.4383,4.4496,4.4496,4.5942,4.7118,4.7202,4.8654,5.0344,5.1813,5.1858,5.2475,5.4313,5.3984,5.401,5.4844,5.492,5.5451,5.6702,5.7688,5.8365,5.8635,5.9589,6.0099,6.0099,6.0235,6.0323,6.0408,6.079,6.1211,6.1631,6.2538,6.2978,6.3006,6.3034,6.3088,6.313,6.2525,6.2629,6.3053,6.2708,6.2344,6.1951,6.1065,6.0902,6.1157,6.1582,6.1813,6.1926,6.2259,6.2413,6.251,6.2878,6.276,6.2525,0.0,0.0,0.0,0.0,0.0,0.0,0.0,0.0,0.0,0.0,0.0,0.0,0.0,0.0,6.5887,6.7093,0.0,6.9284,7.1086,7.1594,7.1958,7.2538,7.2721,7.2429,7.142,7.226,7.289,7.2723,7.3655,7.4294,7.4294,7.5065,7.5324,7.5014,7.6181,7.6643,7.6311,7.747,7.8086,7.8086,7.8484,7.8702,7.8702,7.8702,7.8919,7.9318,7.907,7.9071,7.9321,7.9064,7.8838,7.8686,7.8686,7.8686,7.8757,7.9494,7.9246,7.8528,7.817,7.8567,7.9141,0.0,4.4354,4.4383,4.4468,4.5792,4.693,4.7137,4.8541,4.9976,5.1152,5.1223,5.183,5.3422,5.2883,5.3025,5.4541,5.4988,5.6125,5.8293,5.8097,5.8515,5.9847,5.9982,6.0007,6.0099,6.0235,6.0323,6.0408,6.1211,6.1707,6.1898,6.3465,6.3838,6.3246,6.4001,6.3942,6.3425,6.3451,6.3603,6.3854,6.3769,6.3797,6.3668,6.2084,6.1544,6.1698,6.2394,6.2703,6.2856,6.3671,6.3961,6.4116,6.4967,6.4772,6.4194,6.4037,6.4544,0.0,0.0,0.0,0.0,0.0,0.0,0.0,0.0,6.4851,6.5432,6.5389,6.6251,6.7586,6.9528,6.9858,7.068,7.3116,7.3226,7.3175,7.374,7.3684,7.3342,7.2627,7.3517,7.4126,7.4065,7.472,7.5139,7.5139,7.6056,7.6448,7.6072,7.7458,7.8062,7.7724,7.8521,7.8919,7.8919,7.91,7.9173,7.9173,7.9173,7.9499,8.0151,8.0008,8.0117,8.0508,8.0207,8.0161,8.0113,7.9971,7.9899,7.9971,8.1143,8.0861,7.9634,7.8923,7.9359,8.037,0.0,4.3763,4.3955,4.4411,4.5247,4.6168,4.7005,4.7928,4.9183,5.0818,5.114,5.1547,5.2485,5.2456,5.2798,5.3745,5.5294,5.6616,5.746,5.895,5.9817,5.9885,5.9982,6.0007,6.0099,6.0235,6.0323,6.0408,6.1211,6.2013,6.2777,6.3732,6.4153,6.4067,6.424,6.4231,6.4183,6.4281,6.4808,6.5461,6.4817,6.4663,6.4634,6.3668,6.3361,6.342,6.3612,6.363,6.3708,6.456,6.487,6.5006,6.5877,6.6123,6.5824,6.4414,6.4073,6.3945,6.2964,6.3387,6.4061,6.3899,6.4423,6.518,0.0,6.6531,6.7128,6.7106,6.8719,7.02,7.0439,7.199,7.327,7.3246,7.3672,7.4151,7.4597,7.4487,7.4441,7.4959,7.4384,7.4139,7.4698,7.5506,7.5983,7.5983,7.7414,7.817,7.775,7.8588,7.8929,7.8557,7.9354,7.9788,7.9788,8.0476,8.0839,8.0839,8.0839,8.0875,8.0984,8.0984,8.0804,8.0508,8.013,8.0328,8.0899,8.0185,7.9899,7.9971,8.087,8.1555,8.2183,8.1886,8.2323,8.2976,0.0,0.0,4.3795,4.3986,4.4841,4.5694,4.6309,4.7523,4.8702,4.9504,5.0117,5.0751,5.1623,5.2115,5.2381,5.2267,5.4306,5.5931,5.6664,5.841,5.9581,5.9944,6.0013,6.0076,6.0197,6.0264,6.0323,6.0408,6.1211,6.2051,6.293,6.377,6.4458,6.4879,6.4967,6.5025,6.5053,6.5202,6.55,6.582,6.5558,6.5511,6.5517,6.5275,6.518,6.5083,6.4095,6.3779,0.0,6.4713,6.5058,6.5242,6.6079,6.6034,6.5517,6.4925,6.5107,6.5658,6.6185,6.5809,6.5485,6.6399,6.7248,6.7828,6.769,6.8287,6.893,6.9194,7.0335,7.1535,7.2334,7.3041,7.3679,7.3968,7.4455,7.4806,7.4885,7.5007,7.5421,7.6124,7.558,7.5271,7.5579,7.679,7.7561,7.7561,7.8563,7.8995,7.8698,7.9366,7.9667,7.939,8.0187,8.0621,8.0621,8.0947,8.1128,8.1128,8.1128,8.1128,8.1128,8.1128,8.1129,8.1227,8.1198,8.1434,8.1719,8.1398,8.1255,8.1327,8.2271,8.2965,8.3415,8.2854,8.3185,8.3877,0.0,0.0,0.0,4.3597,4.4206,4.4947,4.5552,4.6928,4.8089,4.8409,4.9305,5.0144,5.0789,5.1357,5.1585,5.1244,5.3366,5.5084,5.5971,5.7693,5.8943,5.9643,5.9782,5.9912,6.0076,6.0235,6.0323,6.038,6.1211,6.2051,6.293,6.377,6.4611,6.5413,6.5494,6.5552,6.5608,6.5755,6.5872,6.5947,6.599,6.6036,6.6058,6.6264,6.6148,6.5799,6.4537,6.4171,6.4298,6.4637,6.4799,6.4961,6.5531,6.5453,6.5124,6.4992,6.5697,6.6739,6.7612,6.7441,6.7193,6.8116,6.9115,6.981,6.944,6.9996,7.0709,7.1189,7.188,7.2635,7.3536,7.3828,7.4142,7.4752,7.5183,7.5521,7.5682,7.5787,7.6254,7.7291,7.7031,7.6864,7.7084,7.8002,7.8699,7.8919,7.9526,7.9735,7.9536,8.0135,8.047,8.0223,8.0802,8.1128,8.1128,8.1128,8.1128,8.1128,8.1128,8.1237,8.1454,8.1527,8.1848,8.2301,8.2235,8.2326,8.2504,8.229,8.2183,8.229,8.3236,8.3797,8.3954,8.3672,8.4043,8.4633,0.0,0.0,0.0,4.3286,4.3356,4.3754,4.4838,4.6041,4.714,4.8002,4.9155,4.9917,4.9917,4.9955,5.0296,5.113,5.276,5.4238,5.5457,5.7075,5.8278,5.8831,5.9215,5.947,5.9502,6.0045,6.0294,6.0294,6.1182,6.2051,6.293,6.377,6.4611,6.5413,6.5523,6.5608,6.5608,6.5808,6.5947,6.602,6.6097,6.6102,6.6123,6.6322,6.5818,6.5064,6.5118,6.5153,6.5051,6.4282,6.4042,6.4052,6.4072,6.4643,6.5117,6.4297,6.5166,6.6213,6.5335,6.6883,6.8529,6.763,6.8734,7.0165,7.086,7.1634,7.2377,7.2886,7.3403,7.3688,7.3446,7.4463,7.5324,7.5361,7.5844,7.6467,7.7326,7.6958,7.7156,7.8744,7.8664,7.8809,7.958,7.9029,7.8919,7.969,8.0369,8.0612,8.0375,8.1041,8.1269,8.1092,8.1092,8.1128,8.1128,8.1128,8.1128,8.1128,8.1128,8.1527,8.2287,8.2713,8.3163,8.361,8.262,8.2647,8.3289,8.2504,8.2183,8.229,8.3075,8.3558,8.3789,8.478,8.5417,8.5764,0.0,0.0,0.0,4.3032,4.3032,4.3141,4.3543,4.4801,4.5946,4.6801,4.8459,0.0,0.0,0.0,0.0,0.0,5.1329,5.2779,5.4238,5.5664,5.7068,5.8388,5.884,5.9252,5.9673,5.9874,6.0099,6.038,6.0676,6.1211,6.2051,6.2988,6.3858,6.47,6.5416,6.5728,6.5728,6.5872,6.5947,6.6059,6.663,6.656,6.6179,6.6863,6.632,6.5079,0.0,6.4048,6.3514,6.3283,6.3577,6.4163,6.4755,6.5107,6.5344,6.555,6.5892,6.6438,6.7289,6.8485,6.9585,6.9849,7.1216,7.2481,7.2714,7.2996,7.3245,7.3514,7.3265,7.3193,7.3829,7.4327,7.4751,7.5191,7.6269,7.7125,7.7319,7.7961,7.8623,7.912,7.9399,7.9841,8.0688,8.0414,8.0314,8.0571,8.1044,8.1282,8.1214,8.123,8.1163,8.1092,8.1128,8.1128,8.1128,8.1128,8.1382,8.1889,8.2432,8.2468,8.214,8.3138,8.3624,8.3717,8.3763,8.3967,8.4182,8.3896,8.3789,8.3825,8.4237,8.4505,8.478,8.5111,8.5489,8.5873,0.0,0.0,0.0,0.0,0.0,0.0,0.0,0.0,0.0,0.0,0.0,0.0,0.0,0.0,0.0,0.0,0.0,5.1792,5.2923,5.4345,5.5751,5.7108,5.779,5.8386,5.8873,5.9267,5.9642,5.9922,6.0255,6.0818,6.1659,6.2557,6.3493,6.4402,6.5356,6.5793,6.5793,6.5872,6.5947,6.6044,6.6653,6.6587,6.6245,6.6552,6.6105,0.0,6.4372,6.3694,6.3155,6.2954,6.3455,6.433,6.5193,6.5815,6.6291,6.6664,6.7348,6.8232,6.9353,7.0429,7.1386,7.1902,7.288,7.3716,7.3944,7.3983,7.4043,7.4252,7.3839,7.3648,7.4109,7.4413,7.4891,7.5919,7.7078,7.8043,7.8495,7.9223,7.9829,8.0045,8.0308,8.075,8.156,8.148,8.1415,8.1351,8.1526,8.1615,8.1547,8.1234,8.1128,8.1128,8.1128,8.1237,8.1527,8.1527,8.1925,8.2722,8.3519,8.3479,8.2746,8.3929,8.4306,8.4023,8.4477,8.461,8.461,8.461,8.461,8.461,8.4738,8.49,8.5139,8.5218,8.5453,8.5797,0.0,0.0,0.0,0.0,0.0,0.0,0.0,0.0,0.0,0.0,0.0,0.0,0.0,0.0,0.0,0.0,0.0,0.0,5.1635,5.3174,5.4345,5.4988,5.6103,5.6836,5.7111,5.8289,5.8892,5.8959,5.9845,6.0704,6.1551,6.2393,6.3329,6.4227,6.5191,6.564,6.5678,6.5756,6.5818,6.592,6.6041,6.6205,6.6252,6.5583,6.5306,6.5221,6.4501,6.4203,6.4011,6.3359,6.3746,6.4643,6.5524,6.6728,6.785,6.7716,6.9353,7.1216,7.1294,7.2544,7.3742,7.369,7.3702,7.3906,7.4591,7.4822,7.4904,7.5092,7.5133,7.4939,7.441,7.4816,7.5769,7.7442,7.8208,7.9091,8.0693,8.0728,8.0807,8.1403,8.1391,8.156,8.2334,8.2316,8.2121,8.1952,0.0,8.1547,8.1375,8.1163,8.1128,8.1165,8.1165,8.1563,8.2324,8.2396,8.2758,8.3483,8.4352,8.4488,8.4032,8.4859,8.498,8.461,8.461,8.461,8.461,8.461,8.461,8.461,8.461,8.4773,8.498,8.5139,8.5375,8.5495,0.0,0.0,0.0,0.0,0.0,0.0,0.0,0.0,0.0,0.0,0.0,0.0,0.0,0.0,0.0,0.0,0.0,0.0,5.1252,5.1952,5.2761,5.3724,5.487,5.5763,5.6242,5.7232,5.787,5.812,5.8394,5.8678,5.8948,5.9843,6.0764,6.1659,6.2617,6.3372,6.3949,6.3949,6.41,6.4386,6.5663,6.5934,6.5684,6.6758,6.639,6.5334,6.5169,6.4717,6.4335,6.4762,6.5925,6.7281,6.8092,6.8494,6.8924,7.0078,7.075,7.14,7.2712,7.3781,7.4511,7.4511,7.4917,7.5428,7.563,7.6169,7.6478,7.6083,7.5514,7.5281,7.5877,7.5566,7.5907,7.8088,7.8975,7.967,8.0599,8.1248,8.1615,8.1622,8.2116,8.2499,8.2597,8.2444,8.2316,8.2121,8.1818,8.1547,8.1375,8.1163,8.1382,8.1961,8.1998,8.236,8.3193,8.3772,8.3881,8.3519,8.4895,8.503,8.4032,8.4859,8.498,8.461,8.461,8.461,8.461,8.461,8.461,8.461,8.4738,8.498,8.5139,8.5218,8.5453,8.5797,0.0,0.0,0.0,0.0,0.0,0.0,0.0,0.0,0.0,0.0,0.0,0.0,0.0,0.0,0.0,0.0,0.0,0.0,0.0,5.1156,5.1767,5.2437,5.3434,5.4333,5.5055,5.5949,5.6683,5.7243,5.7668,5.7939,5.8081,5.8911,5.983,6.0772,6.1704,6.2551,6.332,6.3344,6.3471,0.0,0.0,6.5531,6.5449,6.6393,6.6472,6.6005,6.5623,6.5937,6.6596,6.7099,6.8148,6.9303,6.9756,7.0002,7.0308,7.1144,7.1772,7.2482,7.3832,7.4742,7.5341,7.5341,7.5659,7.587,7.5357,7.5902,7.6126,7.479,7.4408,7.4588,7.5333,7.5282,7.5994,7.8677,7.9687,8.0544,8.162,8.2214,8.2453,8.2177,8.2547,8.2843,8.2633,8.2471,8.2279,8.2121,8.1751,8.1547,8.1375,8.1561,8.1817,8.2287,8.2613,8.3193,8.4026,8.4823,8.5004,8.4569,8.5475,8.5391,8.4571,8.5003,8.498,8.461,0.0,8.4738,8.4773,8.4855,8.4819,8.49,8.498,8.5139,8.5339,8.5339,8.5531,8.5909,0.0,0.0,0.0,0.0,0.0,0.0,0.0,0.0,0.0,0.0,4.3498,4.3969,4.4077,4.5659,0.0,0.0,0.0,0.0,0.0,0.0,5.1098,5.123,5.1939,5.2764,5.3658,5.4638,5.5477,5.6202,5.7096,5.7621,5.7785,5.85,5.9317,6.0319,6.1204,6.205,6.282,6.3007,6.3186,6.3463,6.4443,6.5005,6.5282,0.0,6.6129,6.6797,6.6042,6.7246,6.9238,6.9364,7.0064,7.087,7.0785,7.1221,7.1746,7.1707,7.2677,7.3933,7.4753,7.5495,7.6015,7.6015,7.6015,7.5686,7.4555,7.491,7.4927,7.281,7.2989,7.3732,7.4254,7.481,7.6229,7.9406,8.0358,8.1285,8.2957,8.318,8.3061,8.2819,8.2843,8.2843,8.2534,8.2407,8.2279,8.1952,8.1683,8.1478,8.1375,8.1996,8.2396,8.2577,8.3374,8.4135,8.4859,8.5547,8.5909,8.5909,8.5909,8.5644,8.5218,8.5218,8.498,8.4692,8.4819,0.0,8.49,8.506,8.5218,8.5218,8.5218,8.5297,8.5417,8.5417,8.5608,8.5797,0.0,0.0,0.0,0.0,0.0,0.0,0.0,0.0,0.0,0.0,4.3027,4.3353,4.4041,4.4409,0.0,0.0,0.0,0.0,0.0,0.0,0.0,5.0317,5.1205,5.1764,5.1942,5.348,5.4384,5.4499,5.5415,5.5897,5.6015,5.6168,5.6752,5.7703,5.855,5.9419,6.0272,6.1026,6.1465,6.1846,6.3453,6.4248,6.4647,6.6094,6.6757,0.0,6.6715,6.7375,6.8427,6.9217,7.0503,7.1737,7.1589,7.1977,7.2624,7.3158,7.392,7.478,7.5582,7.5918,7.6062,7.6005,7.6015,7.5686,7.4555,7.4982,7.5119,7.353,7.39,7.4833,7.5972,7.6057,7.705,8.0335,8.0749,8.1285,8.2957,8.318,8.318,8.3121,8.3121,8.3061,8.2843,8.2597,8.2343,8.2186,8.172,8.1375,8.1163,8.1853,8.2903,8.4243,8.504,8.5547,8.5692,8.5837,8.5909,8.5909,8.5909,8.5721,8.5417,8.5297,8.506,8.4819,8.4692,0.0,8.49,8.498,8.506,8.5218,8.5218,8.5218,8.5297,8.5297,8.5375,8.5531,0.0,0.0,0.0,0.0,0.0,0.0,0.0,4.2994,4.2994,4.2994,4.2956,4.3065,4.3538,4.3899,4.456,0.0,0.0,0.0,0.0,0.0,0.0,5.0139,5.0558,5.1002,5.1484,5.231,5.32,5.4104,0.0,5.5078,5.5615,5.5615,5.6121,5.7011,5.7456,5.8385,5.9639,6.0128,6.0683,6.1412,6.2718,6.3695,6.4452,6.574,6.6479,0.0,6.6872,6.7418,6.8156,6.867,6.9872,7.1285,7.1581,7.2172,7.2896,7.3524,7.4268,7.5,7.5774,7.6034,7.609,7.6044,7.6015,7.5541,7.3815,7.4091,7.4141,7.2302,7.2547,7.3552,7.5014,7.5409,7.6341,7.8752,7.993,8.0873,8.1768,8.2564,8.3024,8.3024,8.3024,8.2904,8.2534,8.2343,8.2186,8.1788,8.1514,8.1375,8.1234,8.2323,8.3664,8.5257,8.5692,8.5909,8.5909,8.5909,8.5909,8.5909,8.5909,8.5797,8.5495,8.5297,8.506,8.49,8.4819,0.0,8.49,8.498,8.5139,8.5218,8.5218,8.5218,8.5218,8.5218,8.5297,8.5339,0.0,0.0,0.0,0.0,0.0,0.0,0.0,4.3068,4.3031,4.3104,4.3031,4.3031,4.3141,4.3612,4.4125,0.0,0.0,0.0,0.0,0.0,0.0,0.0,5.0062,5.0506,5.1242,0.0,0.0,5.3618,5.4034,0.0,0.0,0.0,0.0,0.0,5.6999,5.7829,5.9104,5.961,6.0305,0.0,0.0,6.3355,6.4413,0.0,0.0,0.0,0.0,6.7301,6.7835,6.8078,6.8952,7.006,7.0834,7.1862,7.2884,7.3519,7.4268,7.508,7.5831,7.6062,7.609,7.6034,7.613,7.5626,7.3181,7.3228,7.3193,7.0992,7.1156,7.2162,7.3709,7.4537,7.552,7.7042,7.8722,7.9962,8.0617,8.1689,8.2557,8.2927,8.2964,8.2721,8.2316,8.2186,8.1922,8.1445,8.1375,0.0,8.1813,8.2867,8.4243,8.5837,8.5909,8.5909,8.5909,8.5909,8.5909,8.5909,8.5909,8.5797,8.5608,8.5297,8.5139,8.498,8.49,0.0,0.0,8.506,8.5139,8.5218,8.5218,8.5218,8.5139,8.5139,8.5139,8.5139,0.0,0.0,0.0,0.0,0.0,0.0,0.0,4.3286,4.3286,4.3214,4.3178,4.3214,4.3359,4.3287,4.3541,0.0,0.0,0.0,0.0,0.0,0.0,0.0,0.0,0.0,0.0,0.0,0.0,5.2034,5.3612,0.0,0.0,0.0,0.0,0.0,0.0,5.7235,5.7525,5.9109,0.0,0.0,0.0,0.0,0.0,0.0,0.0,0.0,0.0,6.6859,6.694,6.7737,6.8039,6.8187,6.8909,7.0753,7.2734,7.3481,7.432,7.5156,7.5967,7.6172,7.6172,7.609,7.665,7.6356,7.3295,7.3267,7.327,7.0992,7.1156,7.2162,7.3709,7.4586,7.552,7.7042,7.7382,7.8202,8.0394,8.084,8.1471,8.2994,8.3024,8.2782,8.2407,8.2084,8.1751,8.1445,8.1234,0.0,8.3266,8.341,8.4243,8.5837,8.5909,8.5909,8.5909,8.5909,8.5909,8.5909,8.5909,8.5909,8.5797,8.5375,8.5218,8.5139,8.4773,0.0,0.0,8.49,8.506,8.5218,8.5218,8.506,8.49,8.49,8.49,8.49,0.0,0.0,0.0,0.0,0.0,0.0,4.3286,4.3286,4.3286,4.3323,4.3251,4.3251,4.3394,4.3323,4.3397,4.3761,0.0,0.0,0.0,0.0,0.0,0.0,0.0,0.0,0.0,0.0,5.1201,5.1826,5.2521,0.0,0.0,0.0,0.0,0.0,0.0,5.6676,5.7312,5.8579,0.0,0.0,0.0,0.0,0.0,0.0,0.0,0.0,0.0,0.0,6.6829,6.7097,6.7433,6.7733,6.8069,6.9091,7.0529,7.2315,7.3586,7.4586,7.5786,7.6198,7.6225,7.6118,7.6717,7.6532,7.3334,7.3647,7.3953,7.1664,7.1869,7.2762,7.3832,7.4174,7.4437,7.4956,7.5713,7.6903,7.8982,8.004,8.1207,8.2994,8.2941,8.2597,8.2242,8.1952,8.1547,8.1234,8.12,0.0,8.2722,8.3229,8.4243,8.5837,8.5909,8.5909,8.5909,8.5909,8.5909,8.5909,8.5909,8.5909,8.5873,8.5375,8.5218,8.5218,8.4738,0.0,0.0,8.4773,8.4773,8.4819,8.4819,8.4773,8.4773,8.4773,8.4773,8.4773,0.0,0.0,0.0,0.0,0.0,4.3286,4.3393,4.3358,4.3322,4.3429,4.3358,4.3322,4.3429,4.3465,4.3428,4.3428,4.36,0.0,0.0,0.0,0.0,0.0,0.0,0.0,0.0,0.0,5.0763,5.1463,5.1698,5.2623,0.0,0.0,5.4975,5.5807,0.0,0.0,0.0,0.0,0.0,0.0,0.0,0.0,0.0,0.0,0.0,0.0,0.0,0.0,0.0,0.0,0.0,6.7221,6.7247,6.7541,6.849,7.1491,7.2891,7.3852,7.5684,7.6225,7.6328,7.6453,7.6717,7.6233,7.3601,7.3801,7.4025,7.2115,7.2357,7.31,7.3774,7.3864,7.3765,7.3564,7.4694,7.6124,7.7385,7.9055,8.0629,8.1896,8.2251,8.2202,8.1746,8.1605,8.1408,8.1092,0.0,0.0,8.2251,8.3048,8.4135,8.5511,8.5764,8.5909,8.5909,8.5909,8.5909,8.5909,8.5909,8.5909,8.5909,8.5453,8.5297,8.5218,8.4819,0.0,0.0,8.461,8.461,8.461,8.4692,8.4692,8.461,8.4692,8.4692,8.461,0.0,0.0,0.0,0.0,0.0,0.0,4.3497,4.3497,4.3497,4.3497,4.3497,4.3497,4.3497,4.3566,4.36,4.36,4.36,0.0,0.0,0.0,0.0,0.0,0.0,0.0,0.0,0.0,5.0521,5.0622,5.147,5.2356,5.3241,5.4087,5.4996,5.5905,0.0,0.0,0.0,0.0,0.0,0.0,0.0,0.0,6.4297,0.0,0.0,0.0,0.0,0.0,0.0,0.0,0.0,0.0,0.0,6.6224,6.7075,7.133,7.2515,7.3007,7.5678,7.6301,7.643,7.7279,7.6592,7.5398,7.4175,7.3648,7.3099,7.1958,7.2357,7.3054,7.3714,7.3815,7.3715,7.3424,7.4747,7.5787,7.5824,7.7942,7.9446,7.9368,8.0637,8.1354,8.0938,8.1209,8.1305,8.1128,0.0,0.0,8.2251,8.3048,8.3845,8.4678,8.5475,8.5909,8.5909,8.5909,8.5909,8.5909,8.5909,8.5909,8.5909,8.5608,8.5339,0.0,0.0,0.0,0.0,8.461,8.461,8.461,8.4819,8.4738,8.461,8.4819,8.4738,8.461,0.0,0.0,0.0,0.0,0.0,0.0,0.0,4.3497,4.3497,4.3497,4.3497,4.3497,4.3497,4.3566,4.36,4.36,4.3667,0.0,0.0,0.0,0.0,0.0,0.0,0.0,0.0,4.9444,4.9967,5.0622,5.0913,5.153,5.2416,5.3263,5.4226,5.5172,5.5791,5.6117,0.0,0.0,0.0,0.0,0.0,6.3008,6.4219,0.0,0.0,0.0,0.0,0.0,0.0,0.0,0.0,0.0,0.0,0.0,0.0,6.922,7.0335,7.1255,7.3843,7.4345,7.4273,7.4703,7.4674,7.4091,7.2503,7.323,7.3775,7.2071,7.2716,7.3672,7.374,7.3715,7.395,7.4911,7.5453,7.6382,7.809,7.9389,8.0369,8.0867,8.1538,8.1782,8.1318,8.1368,8.1305,0.0,0.0,0.0,8.1454,8.2758,8.3845,8.4678,8.5475,8.5909,8.5909,8.5909,8.5909,8.5909,8.5909,8.5909,8.5909,8.5608,8.5417,0.0,0.0,0.0,0.0,8.461,8.4326,8.3869,8.3918,8.4003,8.4003,8.3367,8.3833,8.4738,0.0,0.0,0.0,0.0,0.0,0.0,0.0,4.3391,4.3497,4.3497,4.3497,4.3532,4.3532,4.3634,4.3701,4.3734,4.3897,0.0,0.0,0.0,0.0,0.0,0.0,0.0,4.8677,4.9064,4.9719,5.0663,5.0682,5.1145,5.2046,5.2587,5.3575,5.484,5.5423,5.5889,0.0,0.0,0.0,0.0,6.0858,6.2265,6.3711,0.0,0.0,0.0,0.0,0.0,0.0,0.0,0.0,0.0,0.0,0.0,0.0,0.0,6.8618,6.9479,7.1943,7.2696,7.2822,7.3168,7.3046,7.2659,7.1826,7.2654,7.3188,7.1952,7.2941,7.3961,7.3815,7.3715,7.3862,7.4763,7.5936,7.705,7.7924,7.9739,8.1067,8.1366,8.1544,8.1593,0.0,8.1375,0.0,0.0,0.0,0.0,8.1128,8.2613,8.3736,8.4207,8.533,8.5797,8.5531,8.5453,8.5375,8.5103,8.5103,8.5103,8.5103,8.5182,8.5103,0.0,0.0,0.0,0.0,8.3869,8.3489,8.3138,8.3191,8.3191,8.3191,8.2746,8.3103,8.3833,0.0,0.0,0.0,0.0,0.0,0.0,0.0,4.3214,4.3497,4.3497,4.3497,4.3532,4.36,4.3701,4.3837,4.3897,4.4162,0.0,0.0,0.0,0.0,0.0,0.0,0.0,4.7972,4.8817,4.9682,5.0587,5.0683,5.1162,5.2028,5.2105,5.3078,5.4824,5.4902,5.5483,0.0,0.0,0.0,0.0,6.0038,6.1445,0.0,0.0,0.0,0.0,0.0,0.0,0.0,0.0,0.0,0.0,0.0,0.0,0.0,0.0,0.0,0.0,0.0,7.1151,7.1888,7.2406,7.1672,7.1065,7.1819,7.1794,0.0,7.1719,7.2904,7.3886,7.3815,7.3715,7.3601,7.3684,7.627,7.7738,7.6162,7.9216,8.144,8.1012,8.0817,8.0947,8.1302,8.1375,0.0,0.0,0.0,0.0,8.1021,8.2613,8.3483,8.3335,8.4965,8.5531,8.4828,8.4711,8.4385,8.3798,8.3798,8.3798,8.3798,8.4467,8.4503,0.0,0.0,0.0,0.0,8.2691,8.2418,8.2291,8.2531,8.2531,8.2383,8.244,8.244,8.2383,0.0,0.0,0.0,0.0,0.0,0.0,0.0,0.0,0.0,0.0,4.3497,4.3532,4.36,4.3701,4.3865,0.0,0.0,0.0,0.0,0.0,0.0,0.0,0.0,0.0,4.7089,4.7934,4.8798,4.9702,5.0429,5.0935,5.1184,5.1967,5.2997,5.4173,5.4788,5.562,0.0,0.0,0.0,0.0,6.0077,6.1445,0.0,0.0,0.0,0.0,6.4357,6.5094,0.0,0.0,0.0,0.0,0.0,0.0,0.0,0.0,6.6453,6.6598,6.7552,0.0,6.978,7.0522,7.0155,6.9717,0.0,7.055,7.0968,7.1569,7.2323,7.3079,7.3665,7.3615,7.4056,7.5899,7.7385,7.8555,7.9237,8.0321,8.1158,8.1287,8.1323,8.1328,8.1163,8.1305,0.0,0.0,0.0,8.0876,8.0361,8.2357,8.3074,8.1987,8.4004,8.4988,8.4828,8.4302,8.3968,8.3798,8.3798,8.3798,8.3798,8.3968,8.3798,0.0,0.0,0.0,8.2691,8.2509,8.2048,8.1543,8.1638,8.1732,8.1732,8.1,8.1543,8.2531,0.0,0.0,0.0,0.0,0.0,0.0,0.0,0.0,0.0,0.0,4.3497,4.3566,4.3667,4.3771,4.3929,0.0,0.0,0.0,0.0,0.0,0.0,0.0,0.0,4.5841,4.68,4.7664,4.8529,4.9394,5.0383,5.0898,5.0972,5.1586,5.2589,5.4,5.5249,5.5855,0.0,0.0,0.0,5.9257,5.9687,0.0,0.0,0.0,0.0,0.0,6.4207,6.4804,0.0,6.6109,6.5953,6.5721,0.0,0.0,0.0,0.0,6.6165,6.629,6.7044,6.7744,6.8502,6.9167,6.9277,6.9246,6.9416,7.0272,7.1193,7.1516,7.2426,7.3205,7.3604,7.3527,7.393,7.5639,7.7218,7.8924,8.1094,8.1092,8.1102,8.1542,8.1547,8.1408,0.0,0.0,0.0,0.0,0.0,8.062,8.0584,8.2133,8.2732,8.1952,8.3483,8.4219,8.3883,8.354,8.3227,8.2906,8.2906,8.2906,8.2906,8.3015,8.2926,0.0,0.0,0.0,8.1861,8.1578,8.1131,8.0838,8.0838,8.0804,8.0902,8.0376,8.074,8.1448,0.0,0.0,0.0,0.0,0.0,0.0,0.0,0.0,0.0,0.0,0.0,0.0,0.0,0.0,0.0,0.0,0.0,0.0,0.0,0.0,0.0,0.0,4.5419,4.5879,4.6894,4.7586,4.8394,4.9413,5.0284,5.0801,5.102,5.1161,5.222,5.4068,5.5825,5.6185,5.5531,5.628,5.7612,5.9217,5.9218,0.0,0.0,0.0,0.0,0.0,0.0,0.0,0.0,6.5974,6.576,6.5296,6.5992,0.0,0.0,0.0,0.0,0.0,6.7563,6.7859,6.7969,6.8414,6.8847,6.916,6.916,7.0285,7.1329,7.1462,7.2481,7.3467,7.354,7.3476,7.3744,7.4784,7.6959,7.9431,8.2002,8.159,8.1249,8.1745,8.1583,0.0,0.0,0.0,0.0,0.0,0.0,8.0361,8.0803,8.1686,8.2084,8.1952,8.2962,8.3174,8.2635,8.2635,8.2396,8.181,8.181,8.181,8.181,8.2083,8.2141,8.1896,0.0,0.0,8.1097,8.0476,8.0209,8.0209,8.0209,8.0209,8.0209,8.0209,8.0209,8.0107,0.0,0.0,0.0,0.0,0.0,0.0,0.0,0.0,0.0,0.0,0.0,0.0,0.0,0.0,0.0,0.0,0.0,0.0,0.0,0.0,0.0,4.54,4.5438,4.5916,4.6894,4.7009,4.7874,4.9489,4.9682,5.0234,5.1092,5.1209,5.2259,5.4068,5.5833,5.6546,5.6398,5.6558,5.7616,5.9218,5.9219,0.0,0.0,0.0,0.0,0.0,0.0,0.0,0.0,6.6167,6.6108,6.6031,6.6147,0.0,0.0,0.0,0.0,0.0,6.8024,6.874,6.9043,6.9046,6.9047,6.9027,6.9027,6.9207,6.9714,7.106,7.1402,7.1938,7.3354,7.3476,7.4115,7.6344,7.9126,8.1305,8.2104,8.1776,8.1469,8.1478,0.0,0.0,0.0,0.0,0.0,0.0,0.0,0.0,7.9515,8.0252,8.0457,7.9977,8.1259,8.1938,8.1965,8.1965,8.1871,8.181,8.1585,8.1585,8.181,8.1585,8.1359,8.12,0.0,8.0774,8.0376,8.0309,8.0209,8.0209,8.0209,8.0209,8.0209,8.0209,8.0209,8.0107,0.0,0.0,0.0,0.0,0.0,0.0,0.0,0.0,0.0,0.0,0.0,0.0,0.0,0.0,0.0,0.0,0.0,0.0,0.0,0.0,4.5419,4.54,4.5514,4.576,4.6201,4.6663,4.7509,4.8739,4.9351,5.0131,5.107,5.2232,5.2957,5.3373,5.5602,5.6354,5.5934,5.6404,5.7617,5.9219,0.0,0.0,0.0,0.0,0.0,0.0,0.0,0.0,0.0,0.0,6.5528,6.5644,6.6069,0.0,0.0,0.0,0.0,0.0,6.7282,6.8109,6.8824,6.9398,7.0352,7.1268,7.1681,7.1845,7.1889,7.174,7.2397,7.2992,7.288,7.3447,7.4846,7.7567,7.9556,8.1132,8.2068,8.1586,8.1276,0.0,0.0,0.0,0.0,0.0,0.0,0.0,0.0,0.0,7.9196,7.9575,7.9843,8.0066,8.1066,8.1652,8.181,8.181,8.181,8.181,8.149,8.149,8.1585,8.1297,8.1005,8.0808,0.0,8.061,8.0209,8.0209,8.0209,8.0209,8.0209,8.0209,8.0209,8.0209,8.0107,7.9904,0.0,0.0,0.0,0.0,0.0,0.0,0.0,0.0,0.0,0.0,0.0,0.0,0.0,0.0,0.0,0.0,0.0,0.0,0.0,4.54,4.5419,4.54,4.5532,4.5701,4.5893,4.6565,4.7412,4.8431,4.9258,5.0118,5.1058,5.3078,5.3647,5.311,5.5531,5.6239,5.5662,5.6521,5.7772,5.9218,0.0,0.0,0.0,0.0,0.0,0.0,0.0,0.0,0.0,0.0,0.0,0.0,0.0,0.0,0.0,6.6185,6.6185,6.6234,6.6584,6.741,6.8569,7.0038,7.1476,7.2773,7.3709,7.3998,7.3848,7.2889,7.3654,7.4174,7.2964,7.4121,7.5976,7.8196,7.9744,8.1008,8.2003,8.1373,8.1094,0.0,0.0,0.0,0.0,0.0,0.0,0.0,0.0,0.0,7.8952,7.8932,7.9269,8.0245,8.0802,8.1331,8.181,8.181,8.181,8.181,8.149,8.1297,8.1393,8.1102,8.0808,8.061,8.061,8.041,8.0209,8.0209,8.0209,8.0209,8.0209,8.0209,8.0209,8.0209,8.0107,7.9801,0.0,0.0,0.0,0.0,0.0,0.0,0.0,0.0,0.0,0.0,0.0,0.0,0.0,0.0,0.0,0.0,0.0,0.0,0.0,4.5458,4.5457,4.54,4.5532,4.597,4.6778,4.687,4.7713,4.9423,4.9478,5.0061,5.1131,5.3085,5.3955,5.4005,5.5809,5.6554,5.6554,5.7457,5.8357,5.9255,5.9998,0.0,0.0,0.0,0.0,0.0,0.0,0.0,0.0,0.0,0.0,0.0,0.0,0.0,6.6185,6.6185,6.6144,6.6212,6.673,6.7467,6.8778,7.1519,7.1674,7.1479,7.2811,7.2958,7.3116,7.422,7.4418,7.4401,7.445,7.6273,7.7809,7.7894,8.0209,8.2039,8.1952,0.0,0.0,0.0,0.0,0.0,0.0,0.0,0.0,0.0,0.0,0.0,7.8287,7.7667,7.8072,7.9557,7.9661,8.0293,8.1776,8.181,8.181,8.181,8.1297,8.12,8.1393,8.0906,8.061,8.061,8.061,8.041,8.0209,8.0209,8.0209,8.0209,8.0209,8.0209,8.0209,8.0209,8.0209,8.0107,0.0,0.0,0.0,0.0,0.0,0.0,0.0,0.0,0.0,0.0,0.0,0.0,0.0,0.0,0.0,0.0,0.0,0.0,0.0,4.5438,4.5475,4.5457,4.555,4.5757,4.6138,4.6656,4.7465,4.8641,4.9838,5.0959,5.1958,5.3319,5.4307,5.4864,5.6077,5.6588,5.6671,5.7532,5.8395,5.9255,6.0076,6.0898,0.0,0.0,0.0,0.0,0.0,0.0,0.0,0.0,6.5799,6.6185,6.6185,6.6185,6.6185,6.6185,6.6165,6.6295,6.6846,6.7822,6.9145,7.121,7.1976,7.2897,7.5258,7.5445,7.5139,7.5234,7.5587,7.5755,7.5291,7.7456,7.903,7.8491,8.0551,8.2121,8.1952,0.0,0.0,0.0,0.0,0.0,0.0,0.0,0.0,0.0,0.0,0.0,0.0,7.7313,7.7913,7.9465,7.95,8.0258,8.1776,8.1585,8.149,8.149,8.12,8.1102,8.1102,8.0808,8.051,8.041,8.051,8.041,8.0209,8.0209,8.0209,8.0209,8.0209,8.0209,8.0209,8.0209,8.0209,8.0107,0.0,0.0,0.0,0.0,0.0,0.0,0.0,0.0,0.0,0.0,0.0,0.0,0.0,0.0,0.0,0.0,0.0,0.0,4.5438,4.5475,4.5532,4.5475,4.5586,4.5791,4.6078,4.6921,4.7615,4.8158,5.0106,5.1519,5.2466,5.3526,5.4467,5.5332,5.6192,5.6741,5.7059,5.7918,5.878,5.9645,6.0468,6.1091,0.0,0.0,0.0,0.0,0.0,0.0,0.0,0.0,6.5566,6.5876,6.6108,6.6185,6.6185,6.6165,6.6144,6.6174,6.637,6.7131,6.8291,6.9967,7.1312,7.3049,7.6181,7.6675,7.6532,7.644,7.6885,7.707,7.6383,7.8352,7.9891,7.9314,8.0855,8.2055,0.0,0.0,0.0,0.0,0.0,0.0,0.0,0.0,0.0,0.0,0.0,0.0,0.0,7.7223,7.7719,7.8994,7.9269,7.9934,8.1241,8.129,8.1297,8.1297,8.1005,8.0906,8.0906,8.061,8.041,8.0209,8.041,8.041,8.0209,8.0209,8.0209,8.0209,8.0209,8.0209,8.0209,8.0209,8.0209,8.0107,0.0,0.0,0.0,0.0,0.0,0.0,0.0,0.0,0.0,0.0,0.0,0.0,0.0,0.0,0.0,0.0,0.0,0.0,4.5532,4.5568,4.5568,4.5475,4.562,4.6078,4.6887,4.7835,4.833,4.833,5.0258,5.1667,5.2536,5.3537,5.4467,5.5332,5.6231,5.7051,5.7871,5.873,5.9595,6.0462,6.1289,6.1594,6.1573,0.0,0.0,0.0,0.0,0.0,0.0,0.0,6.5644,6.5141,6.5953,6.6185,6.6165,6.6123,6.6058,6.5856,6.5199,6.5213,6.5922,6.7904,6.936,7.1266,7.4805,7.5999,7.6742,7.8052,7.8276,7.8165,7.768,7.903,8.0198,8.0014,8.1057,0.0,0.0,0.0,0.0,0.0,0.0,0.0,0.0,0.0,0.0,0.0,0.0,0.0,0.0,7.7223,7.7478,7.7961,7.8716,7.9377,7.9843,8.0629,8.1005,8.1005,8.0709,8.061,8.061,8.0309,8.0209,8.0209,8.0209,8.0209,8.0209,8.0209,8.0209,8.0209,8.0209,8.0209,8.0209,8.0209,8.0209,8.0107,0.0,0.0,0.0,0.0,0.0,0.0,0.0,0.0,0.0,0.0,0.0,0.0,0.0,0.0,0.0,0.0,0.0,0.0,4.5568,4.5586,4.5586,4.5568,4.5676,4.6095,4.6937,4.8485,4.9606,5.0192,5.1396,5.2475,5.3432,5.4445,5.5365,5.6259,5.7086,5.7597,5.791,5.9361,6.0154,6.0466,6.1284,6.1564,6.1517,0.0,0.0,0.0,0.0,0.0,0.0,0.0,0.0,0.0,6.5257,6.5373,6.5334,6.5314,6.5252,6.535,6.6359,6.7407,6.8527,6.9838,7.1678,7.3647,7.5325,7.6324,7.7084,7.7905,7.838,7.8463,7.7873,7.9388,8.0551,8.0062,8.1057,0.0,0.0,0.0,0.0,0.0,0.0,0.0,0.0,0.0,0.0,0.0,0.0,0.0,0.0,7.7009,7.7262,7.7961,7.8494,7.9187,7.9843,8.0399,8.0709,8.0709,8.041,8.041,8.061,8.0309,8.0209,8.0209,8.0209,8.0209,8.0209,8.0209,8.0209,8.0209,8.0209,8.0209,8.0209,8.0209,8.0209,8.0209,0.0,0.0,0.0,0.0,0.0,0.0,0.0,0.0,0.0,0.0,4.4827,4.5125,0.0,0.0,0.0,0.0,0.0,0.0,4.5586,4.5603,4.562,4.5586,4.6001,4.6799,4.8044,4.9428,5.0657,5.1618,5.2103,5.2883,5.3904,5.4845,5.5755,5.6645,5.7438,5.7988,5.8421,5.9762,6.0546,6.0926,6.1373,6.1549,6.1489,0.0,0.0,0.0,0.0,0.0,0.0,0.0,0.0,0.0,6.487,6.4734,6.4482,6.4685,6.511,6.5743,6.6825,6.825,6.9652,7.0605,7.2518,7.4614,7.629,7.7107,7.7515,7.7826,7.8389,7.8786,7.8638,7.9952,0.0,8.0819,0.0,0.0,0.0,0.0,0.0,0.0,0.0,0.0,0.0,0.0,0.0,0.0,0.0,0.0,0.0,7.6736,7.685,7.7237,7.7767,7.8422,7.9109,7.9695,8.0105,8.041,8.0309,8.0309,8.041,8.0309,8.0209,8.0209,8.0209,8.0209,8.0209,8.0209,8.0209,8.0209,8.0209,8.0209,8.0209,8.0209,8.0209,8.0209,0.0,0.0,0.0,0.0,0.0,0.0,0.0,0.0,0.0,0.0,4.4777,4.508,0.0,0.0,0.0,0.0,0.0,0.0,0.0,4.5676,4.5676,4.5603,4.6574,4.7928,4.9668,5.0488,5.1421,5.2505,5.2582,5.312,5.4147,5.5005,5.5864,5.6723,5.7555,5.8421,5.928,6.0078,6.093,6.1701,6.1534,6.1549,6.1584,6.1376,0.0,0.0,0.0,0.0,0.0,0.0,0.0,0.0,6.4483,6.4173,6.3587,6.4166,6.535,6.6504,6.6825,6.8216,6.9863,7.0611,7.2373,7.4648,7.7385,7.7957,7.79,7.7643,7.8293,7.9067,7.968,8.0478,8.125,0.0,0.0,0.0,0.0,0.0,0.0,0.0,0.0,0.0,0.0,0.0,0.0,0.0,0.0,0.0,0.0,7.6495,7.6309,7.6122,7.6836,7.7392,7.7976,7.872,7.9464,8.0209,8.0209,8.0209,8.0209,8.0209,8.0209,8.0209,8.0209,8.0209,8.0209,8.0209,8.0209,8.0209,8.0209,8.0209,8.0209,8.0209,8.0209,8.0209,0.0,0.0,0.0,0.0,0.0,0.0,0.0,0.0,0.0,0.0,0.0,0.0,0.0,0.0,0.0,0.0,0.0,0.0,0.0,4.5693,4.5693,4.5693,4.7169,4.8546,4.9668,5.0503,5.1424,5.2494,5.3137,5.3978,5.5044,5.5911,5.677,5.7582,5.8421,5.9285,6.0186,6.0973,6.1803,6.2467,6.1705,6.1822,6.238,6.1578,6.1297,0.0,0.0,0.0,0.0,0.0,0.0,0.0,6.2838,6.272,6.2678,6.3461,6.455,6.581,6.7196,6.9245,7.1058,7.1266,7.328,7.5679,7.7456,7.7762,7.7643,7.762,7.7671,7.8063,7.9343,7.9847,8.0498,0.0,0.0,0.0,0.0,0.0,0.0,0.0,0.0,0.0,0.0,0.0,0.0,0.0,0.0,0.0,7.6495,7.6309,7.6122,7.6122,7.6679,7.7329,7.7976,7.872,7.9464,0.0,8.0209,8.0209,8.0209,8.0209,8.0209,8.0209,8.0209,8.0209,8.0209,8.0209,8.0209,8.0209,8.0209,8.0209,8.0209,8.0209,8.0209,8.0209,0.0,0.0,0.0,0.0,0.0,0.0,0.0,0.0,0.0,0.0,0.0,0.0,0.0,0.0,0.0,0.0,0.0,0.0,0.0,4.5742,4.6105,4.6915,4.8188,4.9319,5.0317,5.1189,5.2096,5.3104,5.397,5.4723,5.5326,5.6575,5.7395,5.7863,5.9165,5.9957,6.0468,6.1264,6.1804,6.2123,6.16,6.1641,6.1958,6.1452,6.1208,6.1268,6.1563,0.0,0.0,0.0,0.0,0.0,0.0,0.0,6.1758,6.2734,6.402,6.5612,6.7657,6.9783,7.1743,7.3217,7.4524,7.5939,7.7451,7.7643,7.7463,7.7463,7.7402,7.7756,7.9343,7.97,0.0,0.0,0.0,0.0,0.0,0.0,0.0,0.0,0.0,0.0,0.0,0.0,0.0,0.0,0.0,7.6216,7.6088,7.5994,7.5899,7.5899,7.6211,7.669,7.7468,7.8213,7.8957,7.9701,8.004,7.9972,7.9528,7.9972,8.0209,8.0209,8.0209,8.0209,8.0209,8.0209,8.0209,8.0209,7.9768,7.987,8.0209,7.9768,7.987,8.0209,0.0,0.0,0.0,0.0,0.0,0.0,0.0,0.0,0.0,0.0,0.0,0.0,0.0,0.0,0.0,0.0,0.0,0.0,0.0,0.0,0.0,4.8446,4.9148,5.0046,5.1199,5.202,5.2951,5.4025,5.4801,5.5382,5.5765,5.7161,5.7863,5.8108,5.968,6.0469,6.0652,6.1303,6.1625,6.1712,6.1486,6.1415,6.15,6.1247,6.1137,6.1176,6.1752,6.2,6.2138,6.2913,0.0,0.0,0.0,0.0,6.116,6.2231,6.3796,6.5684,6.8122,7.0219,7.2384,7.5097,7.5606,7.5826,7.7393,7.7487,7.7304,7.7304,7.7243,7.7719,7.9223,0.0,0.0,0.0,0.0,0.0,0.0,0.0,0.0,0.0,0.0,0.0,0.0,0.0,0.0,0.0,0.0,7.5899,7.5709,7.5709,7.5709,7.5709,7.5709,7.6082,7.6893,7.7638,7.8249,7.8892,7.9431,7.9321,7.8657,7.9425,7.9768,7.9768,7.9768,7.9768,7.9768,7.9768,7.9768,7.9665,7.9008,7.9113,7.9665,7.9113,7.9321,7.9972,0.0,0.0,0.0,0.0,0.0,0.0,0.0,0.0,0.0,0.0,4.4524,4.4605,0.0,0.0,0.0,0.0,0.0,0.0,0.0,0.0,0.0,4.9285,4.9512,5.0387,5.2104,5.2331,5.3224,5.4936,5.5093,5.602,5.7569,5.7718,5.8186,5.8975,5.996,6.0774,6.1433,6.1495,6.1928,6.2569,6.1662,6.174,6.2267,6.135,6.1022,6.1041,6.1134,6.1152,6.119,6.1306,6.1058,0.0,0.0,0.0,6.1279,6.2421,6.3941,6.5827,6.8366,7.104,7.3536,7.5179,7.5495,7.5769,7.7275,7.7463,7.7304,7.7304,7.7217,7.7348,0.0,0.0,0.0,0.0,0.0,0.0,0.0,0.0,0.0,0.0,0.0,0.0,0.0,0.0,0.0,0.0,7.5899,7.5709,7.5709,7.5709,7.5709,7.5709,7.5709,7.6082,7.6893,7.7638,7.805,7.794,7.7899,7.7938,7.7829,7.7905,7.7938,7.7938,7.7938,7.7938,7.7938,7.7938,7.7938,7.7938,7.7829,7.7829,7.8046,7.8657,7.8974,7.9217,0.0,0.0,0.0,0.0,0.0,0.0,0.0,0.0,0.0,0.0,0.0,4.4578,0.0,0.0,0.0,0.0,0.0,0.0,0.0,0.0,0.0,4.955,5.0069,5.0929,5.2288,5.288,5.3844,5.5152,5.5716,5.6634,5.7927,5.8317,5.8982,5.9804,6.0698,6.1534,6.2251,6.1666,6.1939,6.2652,6.2128,6.2409,6.3051,6.2586,6.2678,6.302,6.249,6.1897,6.1401,6.1426,6.093,6.0293,6.0468,0.0,0.0,0.0,6.3196,6.4932,6.8016,7.1342,7.4216,7.5199,7.5752,7.6243,7.7169,7.7341,7.7217,7.7217,7.7092,7.7185,0.0,0.0,0.0,0.0,0.0,0.0,0.0,0.0,0.0,0.0,0.0,0.0,0.0,0.0,0.0,0.0,7.5805,7.5709,7.5709,7.5709,7.5709,7.5709,7.5709,7.5879,7.6217,7.6537,7.6773,7.7033,7.6743,7.654,7.654,7.6002,7.6459,7.761,7.761,7.761,7.761,7.761,7.7467,7.7213,7.6766,7.6878,7.7324,7.718,7.7544,7.8337,0.0,0.0,0.0,0.0,0.0,0.0,0.0,0.0,0.0,0.0,0.0,0.0,0.0,0.0,0.0,0.0,0.0,0.0,0.0,0.0,0.0,5.0223,5.0858,5.1773,5.2923,5.3711,5.4546,5.551,5.6478,5.7383,5.8203,5.9021,5.9954,6.0959,6.1381,6.1992,6.2702,6.1758,6.1949,6.2865,6.276,6.3168,6.3882,6.3814,6.4147,6.4499,6.3372,6.2401,6.1666,6.1464,6.0771,5.9975,6.0327,6.0747,0.0,0.0,0.0,6.4665,6.7352,7.0562,7.3458,7.4515,7.5306,7.6052,7.7047,7.7118,7.7029,0.0,7.6902,0.0,0.0,0.0,0.0,0.0,0.0,0.0,0.0,0.0,0.0,0.0,0.0,0.0,0.0,0.0,0.0,0.0,7.5899,7.5805,7.5709,7.5709,7.5709,7.5709,7.5484,7.5388,7.5388,7.517,7.5431,7.6027,7.5502,7.5242,7.5242,7.4627,7.522,7.6686,7.6798,7.6911,7.6911,7.6911,7.6686,7.6313,7.5592,7.5855,7.6313,7.5823,7.6199,7.7245,0.0,0.0,0.0,0.0,0.0,0.0,0.0,0.0,0.0,0.0,0.0,0.0,4.518,4.5361,4.5457,4.5475,4.6497,4.7789,4.9412,4.9637,5.0387,5.1885,5.2089,0.0,5.4745,5.4868,5.5397,5.6329,5.734,5.8241,5.9062,5.9859,6.1101,6.2625,6.1846,6.1899,6.2549,6.1624,6.2102,6.3555,6.3534,6.3973,6.4663,6.4561,6.4526,6.4296,6.2644,6.1862,6.1478,6.0637,6.0,5.9688,6.0653,6.1093,6.1479,0.0,0.0,0.0,6.6165,6.806,7.0448,7.2519,7.3516,7.4559,7.6606,7.6966,7.6801,7.6801,0.0,0.0,0.0,0.0,0.0,0.0,0.0,0.0,0.0,0.0,0.0,0.0,0.0,0.0,0.0,0.0,0.0,0.0,7.6122,7.6028,7.5709,7.5709,7.5709,7.5709,7.4966,7.4572,7.4572,7.3955,7.406,7.4829,7.4249,7.4026,7.4026,7.3905,7.4026,7.4147,7.4747,7.5016,7.5016,7.5016,7.4897,7.4539,7.4539,7.4539,7.4659,7.507,7.5507,7.5938,0.0,0.0,0.0,0.0,0.0,0.0,0.0,0.0,0.0,0.0,0.0,0.0,0.0,4.586,4.6301,4.6337,4.7851,4.9243,5.0339,5.1022,5.1563,5.2078,5.2739,5.3689,5.4932,5.5077,5.5855,5.7282,5.7695,5.8589,5.9956,6.0773,6.1417,6.1909,6.1518,6.2082,6.3214,6.1772,6.1988,6.3399,6.3681,6.4489,6.5574,6.5988,6.6459,6.6654,6.5085,6.3731,0.0,0.0,0.0,0.0,6.0379,6.1195,6.2252,6.3115,6.4666,6.6044,6.5959,6.8062,7.0443,7.0956,7.2888,7.461,7.4493,7.5306,7.6036,7.5944,0.0,0.0,0.0,0.0,0.0,0.0,0.0,0.0,0.0,0.0,0.0,0.0,0.0,0.0,0.0,0.0,0.0,0.0,0.0,7.6028,7.5709,7.5709,7.5709,7.5709,7.5388,7.477,7.3665,7.3242,7.3115,7.3505,7.3146,7.3257,7.3905,7.3692,7.3601,7.3723,7.4057,7.4268,7.4268,7.4539,7.4299,7.3845,7.4057,7.3936,7.3845,7.4057,7.4268,7.4684,0.0,0.0,0.0,0.0,0.0,0.0,0.0,0.0,4.5283,4.5303,0.0,0.0,0.0,0.0,4.7117,4.7787,4.902,5.0105,5.0945,5.1852,5.2447,5.264,5.3569,5.449,5.5463,5.5567,5.6312,5.7807,5.8123,5.9163,6.0831,6.1268,6.1723,6.2147,6.1384,6.1849,6.311,6.185,6.2198,6.359,6.4283,6.5323,6.6402,6.6522,6.724,6.7882,0.0,0.0,0.0,0.0,0.0,0.0,6.1651,6.2166,6.294,6.3453,6.4382,6.5264,6.5345,6.7197,6.917,6.965,7.1561,7.3281,7.3093,7.4061,7.5079,7.5277,0.0,0.0,0.0,0.0,0.0,0.0,0.0,0.0,0.0,0.0,0.0,0.0,0.0,0.0,0.0,0.0,0.0,0.0,0.0,0.0,7.5709,7.5709,7.5614,7.5291,7.4966,7.4172,7.2835,7.2362,7.2217,7.2349,7.235,7.267,7.325,7.3384,7.3385,7.329,7.3599,7.3814,7.3905,7.4147,7.3936,7.3509,7.3723,7.3723,7.3509,7.3355,7.3478,7.3814,0.0,0.0,0.0,0.0,0.0,0.0,0.0,0.0,4.5512,4.5526,0.0,0.0,0.0,0.0,0.0,4.9839,4.9964,5.0314,5.1164,5.2044,5.2877,5.365,5.4554,5.5471,5.6397,5.6419,5.6905,5.7851,5.8702,5.9954,6.158,6.1417,6.2143,6.3511,6.1527,6.1204,6.2111,6.1876,6.2651,6.4211,6.5369,6.6368,6.7013,6.6144,6.6745,0.0,6.4482,6.4174,0.0,6.5023,0.0,0.0,6.4413,6.3907,6.3382,6.3557,6.3639,6.3779,0.0,0.0,0.0,6.8505,6.9449,7.0376,7.2535,0.0,7.4102,7.4899,0.0,0.0,0.0,0.0,0.0,0.0,0.0,0.0,0.0,0.0,0.0,0.0,0.0,0.0,0.0,0.0,0.0,0.0,7.6495,7.6309,7.5709,7.5709,7.5291,7.4572,7.3632,7.2835,7.2014,7.1502,7.1311,7.1342,7.1951,7.2173,7.1971,7.298,7.3228,7.288,7.3321,7.3601,7.3905,7.3905,7.3692,7.3509,7.3509,7.3509,7.3509,7.3107,7.3231,7.3386,0.0,0.0,0.0,0.0,0.0,4.453,4.55,4.5747,4.5854,0.0,0.0,0.0,4.7237,4.8413,4.9862,5.1632,5.1193,5.12,5.209,5.2968,5.3504,5.3639,5.5109,5.6328,5.7096,5.7226,5.7974,5.9451,5.9698,6.037,6.1379,6.1857,6.187,6.152,6.1464,6.1146,6.0704,6.0637,6.1073,6.1966,6.3727,6.4916,6.5721,6.6937,6.7699,0.0,0.0,6.6695,6.6489,0.0,6.5557,6.4483,0.0,6.3379,6.3242,6.3419,6.3826,6.4214,6.452,0.0,0.0,0.0,0.0,0.0,0.0,0.0,0.0,0.0,0.0,0.0,0.0,0.0,0.0,0.0,0.0,0.0,0.0,0.0,0.0,0.0,0.0,0.0,0.0,0.0,0.0,0.0,7.6587,7.6309,7.6028,7.5805,7.558,7.5388,7.3937,7.3116,7.2835,7.1076,7.0694,7.1686,7.0869,7.1371,7.2657,7.267,7.2767,7.2953,7.3416,7.3355,7.32,7.3478,7.3478,7.3107,7.3386,7.3355,7.3107,7.2983,7.3107,7.3107,0.0,0.0,4.3201,4.4614,4.4939,4.522,4.5777,4.5958,4.616,0.0,0.0,0.0,4.8337,4.9661,5.0886,5.1896,5.1833,5.1953,5.246,5.3632,5.4448,5.4713,5.6059,5.7154,5.7992,5.8024,5.8721,6.0074,6.0074,6.0617,6.1764,6.1697,6.146,6.1094,6.0961,6.0449,5.9744,6.0051,6.0626,6.1504,6.3771,6.4956,6.5413,6.6519,6.7377,0.0,0.0,0.0,6.7893,6.8345,6.7279,0.0,0.0,6.4156,6.3124,6.3648,6.4044,6.4414,6.5127,6.5999,6.6654,6.6826,0.0,0.0,6.9325,7.1029,0.0,0.0,0.0,0.0,0.0,0.0,0.0,0.0,0.0,0.0,0.0,0.0,0.0,0.0,0.0,0.0,0.0,7.7223,7.7133,7.6793,7.6736,7.6461,7.6122,7.5805,7.5709,7.5709,7.4038,7.322,7.322,7.1108,7.0494,7.1389,7.049,7.0658,7.1776,7.1982,7.2238,7.2489,7.261,7.2829,7.3231,7.2953,7.2861,7.2983,7.3231,7.3107,7.2983,7.2859,7.2859,7.2983,0.0,0.0,4.486,4.5686,4.603,4.6144,4.6144,4.6279,4.6683,0.0,4.7567,4.8216,4.9799,5.0767,5.1352,5.1557,5.2129,5.2589,5.2745,5.4168,5.5317,5.6085,5.6986,5.7884,5.8739,5.8764,5.9216,6.008,6.0065,6.0777,6.2124,6.1087,6.0866,6.1325,6.0178,5.947,5.9215,5.9956,6.0895,6.2067,6.4605,6.5705,0.0,0.0,6.6565,6.7741,6.6848,6.7561,6.9059,7.0082,6.9099,0.0,0.0,0.0,0.0,0.0,6.4352,6.4714,6.5983,6.6316,6.6464,6.7287,0.0,0.0,7.012,7.1065,7.2029,0.0,0.0,0.0,0.0,0.0,0.0,0.0,0.0,0.0,0.0,0.0,0.0,0.0,0.0,0.0,7.7223,7.7223,7.7099,7.6884,7.6793,7.6553,7.6122,7.5805,7.558,7.5484,7.3937,7.3116,7.3012,7.114,7.0419,7.0789,7.0442,7.0241,7.0318,7.0956,7.1459,7.179,7.1614,7.2238,7.32,7.2337,7.2368,7.2983,7.2983,7.2983,7.2983,7.2578,7.2734,7.2859,4.433,4.4638,4.4948,4.5802,4.6597,4.7118,4.7118,4.7801,4.8301,4.8423,4.9059,4.9571,4.9892,5.0641,5.171,5.3112,5.2784,5.303,5.4334,5.473,5.4956,5.5112,5.6543,5.765,5.8375,5.907,5.9801,6.0646,6.0364,6.0418,6.0712,6.0217,5.9912,5.9798,5.9472,5.9178,5.9054,6.0221,6.1248,6.2131,6.3907,6.5041,6.5854,6.7537,6.8036,6.7869,6.8318,6.8713,6.8988,6.8434,6.7939,6.7247,0.0,0.0,0.0,6.4391,0.0,0.0,6.6353,6.6647,0.0,0.0,0.0,0.0,6.7887,6.9486,7.0859,0.0,0.0,0.0,0.0,0.0,0.0,0.0,0.0,0.0,0.0,0.0,0.0,0.0,0.0,0.0,7.7223,7.7223,7.7223,7.7133,7.6771,7.6402,7.6122,7.5805,7.5291,7.434,7.3426,7.2485,7.1516,7.0243,6.9818,7.0419,6.9596,6.9759,7.0745,7.059,7.0756,7.1193,7.187,7.2272,7.2306,7.2029,7.2368,7.2983,7.2983,7.2983,7.2983,7.2578,7.2578,7.2608,4.5162,4.5724,4.6185,4.6605,4.7457,4.8084,4.8084,4.8475,4.89,4.9287,5.0048,5.0702,5.1064,5.1442,5.2173,5.3468,5.356,5.3824,5.4465,5.5264,5.5827,5.6104,5.729,5.8333,5.9025,5.9523,5.9955,6.0293,6.015,6.0061,6.0061,5.9744,5.947,5.9178,5.9513,5.9421,5.9146,6.0508,6.2118,6.3739,6.4462,0.0,6.6335,6.7607,6.7969,6.7932,6.8564,6.9087,6.9351,6.8925,6.8285,0.0,0.0,6.559,6.56,0.0,6.5736,6.6546,0.0,0.0,0.0,6.7097,0.0,0.0,0.0,6.9186,6.9926,0.0,0.0,0.0,0.0,0.0,0.0,0.0,0.0,0.0,0.0,0.0,0.0,0.0,0.0,0.0,7.7223,7.7223,7.7223,7.7223,7.6828,7.6553,7.6309,7.6028,7.5518,7.4671,7.3426,7.2485,7.1733,7.0243,6.9588,7.0047,6.924,6.9309,7.0085,6.9766,6.9901,7.0428,7.0887,7.1257,7.1231,7.1844,7.1845,7.1752,7.2337,7.2675,7.2983,7.2483,7.2357,7.2452,4.6469,4.7184,4.763,4.7657,4.8418,4.9021,4.9021,4.9118,4.9478,5.0314,5.1025,5.1774,5.2576,5.2546,5.2931,5.4125,5.4608,5.4871,5.4918,5.6,5.6872,5.7367,5.8182,5.8912,5.9526,5.9754,5.9804,5.9777,5.9862,5.9828,5.9677,5.9737,5.9477,5.9089,5.9887,5.9907,5.9443,6.1011,6.2891,6.4931,0.0,6.6131,6.7148,6.7393,6.7659,6.7898,6.8293,6.8854,6.9311,6.9104,6.8399,6.7553,6.6883,6.6179,0.0,0.0,0.0,0.0,0.0,0.0,0.0,0.0,0.0,6.6654,0.0,0.0,0.0,0.0,0.0,0.0,0.0,0.0,0.0,0.0,0.0,0.0,0.0,0.0,0.0,0.0,0.0,0.0,0.0,7.7154,7.7223,7.7223,7.6918,7.6736,7.6495,7.6216,7.5805,7.5097,7.3734,7.2697,7.2058,7.0438,6.9703,6.9703,6.9123,6.9123,6.9387,6.9006,6.9197,6.969,6.9843,7.0093,7.0282,7.123,7.1077,7.0526,7.1722,7.2429,7.2674,7.22,7.2104,7.2357,4.8415,4.8478,4.8582,4.8621,4.9287,4.982,4.9869,5.0392,5.1113,5.193,5.2442,5.3012,5.3913,5.3607,5.4258,5.6578,5.6177,5.6346,5.7731,5.7223,5.7,5.7294,5.7996,5.8424,5.8635,5.9365,5.9711,5.9711,6.0115,5.9928,5.9215,6.0435,6.0481,5.9603,6.0347,6.034,5.9939,6.2004,6.3081,0.0,6.5561,6.7139,0.0,6.835,6.8046,6.7561,6.7826,6.7856,6.7513,0.0,6.6371,6.7123,0.0,6.6063,6.7819,6.592,0.0,0.0,0.0,0.0,0.0,0.0,6.5439,0.0,0.0,0.0,0.0,0.0,0.0,0.0,0.0,0.0,0.0,0.0,0.0,0.0,0.0,0.0,0.0,0.0,0.0,0.0,0.0,7.6844,7.7223,7.7223,7.6918,7.6736,7.6495,7.6216,7.5484,7.424,7.3937,7.2842,7.0822,7.0599,7.0098,6.9472,6.9123,6.9123,6.9387,6.9006,6.892,6.9043,6.9628,6.9816,6.9517,6.9609,6.9824,7.0218,7.212,7.2552,7.2152,7.2017,7.2007,7.1977,4.8824,4.9179,4.9528,4.9517,5.0143,5.0835,5.1304,5.1901,5.2407,5.2627,5.267,5.2996,5.3836,5.4534,5.5404,5.6466,0.0,5.7602,0.0,0.0,5.7211,5.7516,5.7645,5.783,5.8151,5.8564,5.8791,5.8791,5.8958,5.8789,5.8238,5.9191,5.9237,5.8651,6.0215,6.0603,6.0304,6.2407,6.4008,0.0,0.0,0.0,0.0,6.8076,6.78,6.7669,6.7616,6.7557,6.7325,0.0,6.6719,0.0,0.0,0.0,0.0,0.0,0.0,0.0,0.0,0.0,0.0,0.0,0.0,0.0,6.5485,0.0,6.6319,0.0,0.0,0.0,0.0,0.0,0.0,0.0,6.7999,0.0,0.0,0.0,0.0,0.0,0.0,0.0,0.0,0.0,0.0,0.0,7.7009,7.6918,7.6645,7.6495,7.5899,7.4966,7.434,7.3496,7.2314,7.1123,7.0406,7.0098,6.9325,6.9006,6.9123,6.9006,6.8889,6.892,6.9597,6.9421,6.8697,6.9976,6.9824,6.8727,7.0951,7.1843,7.1752,7.1655,7.1769,7.1977,4.9505,4.977,5.0137,5.0569,5.1109,5.1696,5.2408,5.2988,5.3371,5.3388,5.34,5.3716,5.4585,5.5714,0.0,5.6899,5.7936,5.852,0.0,0.0,5.7825,5.8224,5.776,5.7665,5.8081,5.792,5.7794,5.7747,5.8187,5.8154,5.7715,5.8812,5.8986,5.841,6.0178,6.098,6.103,6.2923,6.4638,6.611,6.6048,6.6769,6.7911,6.7506,6.7443,6.7475,6.7394,6.7229,6.6995,6.6255,6.6558,0.0,6.6492,0.0,0.0,0.0,0.0,0.0,6.5826,0.0,0.0,0.0,0.0,0.0,0.0,0.0,0.0,0.0,0.0,0.0,0.0,0.0,0.0,6.6324,0.0,6.8102,0.0,0.0,0.0,0.0,0.0,0.0,0.0,0.0,0.0,7.5956,7.6169,7.6376,7.6484,7.6245,7.6071,7.5805,7.4868,7.4139,7.3599,7.1886,7.0822,7.0519,6.9441,6.8889,6.8889,6.8889,6.8889,6.892,6.9413,6.8995,6.8091,6.9763,6.9245,6.7486,6.9332,7.0368,7.0951,7.1103,7.1496,7.1722,5.1026,5.0364,5.0325,5.2028,5.2188,5.2236,5.2702,5.3302,5.3944,5.4629,0.0,0.0,0.0,0.0,0.0,0.0,0.0,5.9001,5.9767,0.0,5.9037,0.0,0.0,5.8232,0.0,5.7634,5.7065,5.6927,5.8445,5.8753,5.8015,6.0176,6.0747,5.991,6.0635,6.1476,6.222,6.3747,6.4701,6.5289,6.6792,6.6912,6.6268,0.0,6.7063,6.6812,6.6812,0.0,0.0,6.4488,6.5127,0.0,0.0,0.0,0.0,0.0,0.0,0.0,0.0,0.0,0.0,6.5465,0.0,0.0,0.0,0.0,6.4042,0.0,0.0,0.0,0.0,0.0,6.5635,6.491,6.4807,0.0,0.0,0.0,0.0,0.0,0.0,0.0,0.0,0.0,0.0,7.3843,7.3878,7.4446,7.566,7.5458,7.5525,7.6088,7.5518,7.4671,7.3599,7.242,7.1265,7.0212,6.9325,6.8889,6.8889,6.8889,6.8889,6.8889,6.892,6.8566,6.797,6.803,6.7668,6.6999,6.7426,6.8361,6.9692,7.023,7.0893,7.1435,5.0001,4.9745,4.9969,5.1886,5.1979,5.2162,5.3213,5.3716,0.0,0.0,0.0,0.0,0.0,5.7723,5.7989,0.0,0.0,5.8758,5.9348,5.838,0.0,0.0,0.0,5.8235,0.0,5.789,5.7275,5.6313,5.733,5.759,5.7127,5.8814,5.9338,5.8976,5.9934,6.0982,6.201,0.0,0.0,0.0,0.0,6.512,6.452,0.0,0.0,6.5293,6.4934,6.472,0.0,6.3865,6.4482,6.5514,6.5624,6.6201,6.6858,6.7588,6.7471,0.0,0.0,0.0,6.7301,6.5539,0.0,0.0,0.0,0.0,0.0,0.0,0.0,0.0,0.0,0.0,6.6161,6.5405,6.542,6.5393,0.0,0.0,0.0,0.0,0.0,0.0,0.0,0.0,0.0,7.383,7.4967,7.5605,7.5695,7.5903,7.589,7.5559,7.5534,7.4966,7.3937,7.2526,7.1484,7.0406,6.9441,6.8889,6.8889,6.8889,6.8889,6.8889,6.8654,6.8298,6.8,6.8213,6.7756,6.7029,6.7601,6.8174,6.8625,6.9816,7.0754,7.1307,5.0086,5.0061,5.0347,5.1703,0.0,5.2539,5.3596,0.0,0.0,0.0,5.6273,0.0,5.6641,0.0,5.7659,0.0,5.7243,5.8146,5.8737,5.7839,0.0,5.9771,5.8565,0.0,0.0,0.0,5.692,5.6055,5.6771,5.7183,5.7227,5.8293,5.8623,5.839,5.9564,6.0506,6.1369,6.3237,6.4525,0.0,0.0,6.3809,0.0,0.0,6.3947,6.3904,0.0,6.3609,6.3546,6.3388,6.3835,6.4756,6.5661,6.6133,6.6651,6.7992,6.8071,6.7791,6.7967,6.8358,0.0,6.6609,6.639,0.0,6.4778,0.0,0.0,0.0,0.0,0.0,0.0,0.0,0.0,6.5402,6.5122,6.5076,0.0,6.5462,0.0,0.0,0.0,0.0,0.0,0.0,7.2243,7.2799,7.3933,7.4693,7.4816,0.0,7.5798,7.5559,7.5473,7.5097,7.4373,7.2664,7.1484,7.0933,6.9526,6.8889,6.8772,6.8772,6.8772,6.8654,6.8417,6.8179,6.8,6.8061,6.7726,6.7029,6.7448,6.7777,6.8141,6.8934,6.9808,7.0547,5.1356,5.1307,0.0,0.0,5.257,0.0,0.0,0.0,5.5778,0.0,5.6689,5.7198,5.7178,5.7221,5.7017,5.6365,5.6821,5.7372,5.7959,5.7446,0.0,0.0,5.8026,5.7276,5.7604,0.0,0.0,5.6057,5.6679,5.7351,5.8144,5.8668,5.8667,5.8205,5.949,6.0114,6.0266,6.283,6.3768,6.3635,6.3638,6.2906,6.1598,6.177,6.217,6.2672,6.3226,6.3196,6.3004,6.2907,6.3287,6.3889,6.5675,6.655,6.7264,6.9151,6.9893,7.0082,7.0082,6.9236,6.8406,6.8517,0.0,0.0,0.0,0.0,6.6626,0.0,0.0,0.0,0.0,0.0,0.0,6.4903,6.3991,6.3761,6.4823,0.0,0.0,0.0,0.0,0.0,0.0,6.8854,6.891,7.0721,7.1097,7.1782,0.0,0.0,7.5306,7.6054,7.5325,7.4968,7.487,7.2591,7.1516,7.1406,6.9641,6.8772,6.8386,6.8386,6.8386,6.8417,6.8059,6.797,6.797,6.7608,6.7243,6.6999,6.6999,6.7358,6.7926,6.8016,6.8495,6.9243,5.2208,5.1722,5.1428,0.0,5.3904,5.5246,0.0,0.0,0.0,0.0,5.7324,5.7157,5.7153,5.7153,5.6718,5.55,5.5571,0.0,0.0,0.0,0.0,5.8621,5.8482,5.829,5.8199,5.8196,0.0,5.5788,5.6707,5.6998,5.666,5.733,5.7897,5.8287,5.8639,5.9231,5.9994,6.0684,6.0962,6.0981,6.1152,6.0676,0.0,0.0,6.0105,6.0315,6.0998,6.1144,6.1072,6.0866,6.1609,6.2643,6.3743,6.4816,6.5924,6.6965,6.7802,6.8403,6.8601,6.8989,6.9251,6.8302,6.7948,6.7468,0.0,0.0,0.0,0.0,0.0,0.0,0.0,0.0,0.0,6.5073,6.4357,6.4042,0.0,0.0,0.0,6.6583,0.0,0.0,0.0,6.8953,6.9833,7.1314,7.1362,7.2191,7.4412,0.0,0.0,7.4992,7.5152,7.4704,7.3665,7.2272,7.1186,7.055,6.9209,6.8505,6.8386,6.8179,6.809,6.8059,6.7729,6.7608,6.7608,6.7243,6.7121,6.6999,6.6999,6.7089,6.7418,6.8884,6.9542,6.9842,5.236,0.0,0.0,5.198,0.0,0.0,5.4245,0.0,0.0,5.7006,5.726,0.0,5.6792,5.6498,5.5942,5.5016,5.492,0.0,5.6076,0.0,0.0,5.8377,5.819,5.8097,5.8043,5.8195,0.0,5.6283,5.679,5.6872,5.662,5.7356,5.753,5.7354,5.8708,5.9018,5.8583,5.9459,5.9809,6.0011,6.0286,0.0,0.0,5.9448,5.9618,5.9679,5.994,6.0061,6.0197,5.9986,6.0806,6.2028,6.2716,6.3809,6.4969,6.5803,6.6428,6.695,6.7157,6.8104,6.8829,6.82,6.8506,6.8802,6.8059,6.7892,6.8126,0.0,0.0,0.0,0.0,0.0,0.0,0.0,0.0,0.0,0.0,0.0,0.0,0.0,6.6234,0.0,0.0,6.8344,6.922,7.0405,7.0507,7.105,0.0,0.0,0.0,7.3932,7.4594,7.4406,7.322,7.2058,7.1076,7.0243,6.8976,6.8298,6.8179,6.797,6.7729,6.7729,6.7487,6.7365,6.7487,6.7121,6.6999,6.6999,6.6999,6.6999,6.7178,6.8884,6.9333,6.9273,5.2227,0.0,0.0,0.0,0.0,0.0,0.0,5.5129,0.0,5.5858,0.0,5.7147,5.6224,5.5377,5.4781,5.4613,0.0,5.5048,5.6099,5.5697,5.6193,5.7964,5.7471,5.7273,5.7464,5.7427,5.7302,0.0,5.692,5.6857,5.6996,5.7663,5.7276,5.617,5.8833,5.8795,5.6933,5.8628,5.9408,5.9558,5.9983,5.9679,5.891,5.9637,5.988,5.988,5.9529,5.9667,5.988,5.988,6.0542,6.1629,6.2364,6.325,6.432,6.5094,6.553,6.5822,6.5822,6.6846,6.7871,6.7871,6.8732,6.967,6.9893,7.0082,7.0176,7.0176,6.9829,6.9161,0.0,0.0,0.0,0.0,0.0,0.0,0.0,0.0,0.0,0.0,0.0,0.0,0.0,0.0,6.8061,6.9335,6.9354,0.0,0.0,0.0,0.0,7.3312,7.4005,7.4037,7.3356,0.0,7.0965,7.0325,6.8976,6.8179,6.797,6.7608,6.7487,6.7487,6.7121,6.7121,6.7365,6.7121,6.6999,6.6999,6.6999,6.6999,6.7148,6.8405,6.8495,6.8256,0.0,0.0,0.0,0.0,0.0,5.2867,5.3754,5.5774,5.7055,5.6554,5.6216,5.5829,5.5328,5.4295,5.3577,5.3608,5.3489,0.0,0.0,0.0,0.0,5.5527,5.662,5.7149,5.718,5.7958,5.7835,5.6893,5.7066,5.6658,5.5733,5.5831,5.6076,5.6431,5.7119,5.7395,5.7339,5.7263,0.0,5.7825,5.8796,5.894,5.8595,5.9288,5.9422,5.9207,5.9207,5.9315,5.9529,5.9315,6.0106,6.1216,6.1327,6.2341,6.3394,6.3508,6.4045,6.4685,6.4844,6.5575,6.6459,6.6982,6.7802,6.8535,6.8797,6.9382,6.9893,6.9893,6.9982,6.9776,6.8951,0.0,0.0,0.0,0.0,0.0,0.0,0.0,0.0,0.0,0.0,6.8218,0.0,0.0,0.0,0.0,0.0,0.0,0.0,0.0,0.0,0.0,7.3871,0.0,0.0,0.0,7.0774,7.1296,6.9093,6.809,6.797,6.7365,6.7121,6.7121,6.6999,6.6999,6.7121,6.6999,6.6999,6.6999,6.6999,6.6999,6.7089,6.7867,6.8076,6.8256,0.0,0.0,0.0,0.0,0.0,0.0,0.0,5.5004,0.0,5.5799,5.5361,5.4806,5.4264,5.3196,5.2485,5.2426,5.2765,5.3034,5.3209,5.4131,5.48,5.4948,5.5664,0.0,5.6054,5.6541,5.6435,5.5857,5.5947,5.5748,5.5278,5.5467,5.5738,5.5954,5.6689,5.7246,5.7769,0.0,0.0,5.7971,5.8761,5.8941,5.8864,5.9195,5.9207,5.9099,5.9099,5.9207,5.9315,5.9099,5.9997,6.1104,6.1104,6.2032,6.3079,6.3079,6.3394,6.3736,6.3789,6.4543,6.539,6.5714,6.6638,6.7599,6.8236,6.8765,6.9285,6.9703,6.9893,6.9888,6.9743,6.8869,0.0,0.0,0.0,0.0,0.0,0.0,0.0,0.0,0.0,0.0,0.0,0.0,0.0,0.0,0.0,0.0,0.0,0.0,0.0,0.0,0.0,0.0,0.0,0.0,0.0,7.0098,6.8654,6.797,6.797,6.7365,6.6999,6.6999,6.6876,6.6876,6.6999,6.6999,6.6999,6.6999,6.6999,6.6999,6.7059,6.7717,6.7956,6.8166,0.0,5.1337,0.0,0.0,5.2382,0.0,5.3905,5.3931,5.4126,5.4761,5.4305,5.3647,5.3077,5.2002,5.1449,5.1349,5.2167,5.2732,5.3196,5.4021,5.4521,5.4624,5.4929,5.5029,5.4726,5.5078,5.5167,0.0,5.4884,5.4909,5.5048,5.5175,5.5375,5.562,5.6559,0.0,0.0,0.0,5.8836,5.87,5.8997,5.9099,5.9099,5.9099,5.9099,5.9099,5.9099,5.9099,5.9099,5.8991,5.9887,6.1104,6.1104,6.2032,6.3079,6.3079,6.3079,6.3079,6.3079,6.3706,6.4432,6.4432,6.5498,6.6669,6.7362,6.8036,6.8666,6.9285,6.9574,6.9893,7.0176,6.965,0.0,0.0,0.0,0.0,0.0,0.0,0.0,0.0,0.0,0.0,6.8513,0.0,0.0,0.0,0.0,6.941,7.1488,7.2586,7.2904,0.0,0.0,7.2197,7.1516,0.0,6.9672,0.0,6.8298,6.785,6.785,6.7243,6.6999,6.6999,6.6753,6.6753,6.6999,6.6999,6.6999,6.6999,6.6999,6.6999,6.7059,6.7567,6.7777,6.7837,0.0,0.0,0.0,0.0,0.0,0.0,0.0,5.3552,5.3588,5.3985,5.2931,5.2124,5.1911,5.0952,5.0485,5.0886,5.142,5.1889,5.2191,5.373,5.4245,5.3319,5.4684,5.4958,5.4038,5.5248,5.567,0.0,0.0,5.4613,5.4939,5.374,5.4286,5.634,0.0,0.0,0.0,5.8893,5.9002,5.9009,5.9069,5.9099,5.9099,5.9099,5.9099,5.9099,5.9099,5.9099,5.9099,5.8773,5.9776,6.1104,6.1104,6.2032,6.3079,6.3079,6.3079,6.3079,6.3079,6.3164,6.3279,6.3508,6.4209,6.5063,6.539,6.6846,6.8204,6.8204,6.9058,6.9893,7.0176,6.9921,6.9794,0.0,0.0,0.0,0.0,0.0,0.0,0.0,0.0,0.0,0.0,6.8884,0.0,0.0,7.0861,7.1555,7.3777,7.4201,7.404,7.3126,0.0,7.1625,7.1516,6.987,6.9209,6.9641,6.8148,6.7608,6.7487,6.6876,6.6753,6.6999,6.6999,6.6999,6.6999,6.6999,6.6999,6.6999,6.6999,6.6999,6.6999,6.7059,6.7089,6.7089,0.0,0.0,0.0,0.0,0.0,0.0,0.0,5.2793,5.1999,5.2033,5.1266,5.0639,5.0544,4.964,4.9194,4.9395,5.05,5.1116,5.1033,5.2607,5.3184,5.2573,5.3155,5.354,5.3518,5.3856,5.4226,0.0,0.0,5.3436,5.3996,5.2642,5.3107,0.0,0.0,5.6479,5.7331,5.7932,5.8149,5.8305,5.8882,5.9099,5.9099,5.9099,5.9099,5.9099,5.8882,5.8882,5.8773,5.8555,5.9398,6.0565,6.0731,6.1506,6.2311,6.2959,6.2963,6.2847,6.3079,6.2963,6.2847,6.2963,6.3249,6.3645,6.4178,6.525,6.6396,6.7362,6.8634,6.9607,6.9893,6.9893,6.9893,0.0,0.0,0.0,0.0,0.0,0.0,0.0,0.0,6.962,0.0,0.0,0.0,0.0,0.0,6.9783,7.1908,7.215,7.2077,7.1667,0.0,7.0519,7.0774,6.9294,6.8623,6.8592,6.7699,6.7121,6.6876,6.6629,6.6629,6.6753,6.6876,6.6876,6.6753,6.6876,6.6999,6.6999,6.6999,6.6999,6.6999,6.6999,6.6999,6.6999,5.4186,0.0,5.3432,0.0,5.3006,5.2348,5.2977,5.1999,5.0952,5.0258,4.9999,4.9611,4.9346,4.8781,4.8623,4.9019,5.0075,5.0862,5.1023,5.2088,5.2573,5.2221,5.2221,0.0,5.3074,5.3022,5.3385,5.43,5.3238,0.0,5.3816,5.2734,0.0,0.0,5.5343,5.5868,5.6384,5.7183,5.7387,5.7387,5.8085,5.8195,5.8166,5.8055,5.8055,5.8166,5.8085,5.8085,5.8225,5.7974,5.863,5.9577,6.0007,6.0808,6.1694,6.24,6.2582,6.2615,6.2731,6.2615,6.2498,6.2498,6.2468,6.2555,6.3189,6.3954,6.5032,6.695,6.8004,6.8634,6.9156,6.9058,6.8961,6.9349,0.0,0.0,0.0,0.0,0.0,0.0,6.9224,6.9084,6.886,6.8126,0.0,0.0,0.0,0.0,7.0121,7.0502,0.0,0.0,0.0,0.0,0.0,6.8741,6.8029,6.7668,6.6969,6.66,6.6382,6.6382,6.6382,6.6382,6.6629,6.6629,6.6506,6.6753,6.6876,6.6999,6.6999,6.6999,6.6999,6.6999,6.6999,6.6999,5.6872,5.6701,5.608,5.4589,5.3976,5.3108,5.1389,5.1139,5.0698,4.9079,4.9108,4.9108,4.8581,4.8481,4.8991,5.0266,5.0588,5.1337,5.2566,5.268,5.2573,0.0,0.0,5.2424,5.2686,5.3332,5.395,5.4569,0.0,0.0,5.497,0.0,5.4475,5.5654,5.53,5.5805,5.6764,5.6764,5.6708,5.6394,5.6394,5.6251,5.5876,5.5528,5.5644,5.5992,5.6194,5.6793,5.7303,5.7303,5.7751,5.8342,5.8991,6.0309,6.1605,6.1259,6.1878,6.2498,6.2234,6.2116,6.2116,6.2116,6.2116,6.2116,6.2116,6.2959,6.4562,6.7093,6.7022,6.6742,6.7871,6.7157,6.6742,6.7567,0.0,0.0,0.0,0.0,0.0,0.0,6.9574,6.9574,7.0176,0.0,0.0,0.0,0.0,0.0,0.0,0.0,0.0,6.9776,6.9984,0.0,6.8386,6.8029,6.7548,6.6999,6.6352,6.5978,6.6007,6.6007,6.6007,6.6007,6.6007,6.6257,6.6506,6.6506,6.6753,6.6999,6.6999,6.6999,6.6999,6.6999,6.6999,6.6999,5.515,5.5149,5.4685,5.3371,5.2575,5.1972,5.1203,5.0698,5.0057,4.9009,4.9108,4.9009,4.8308,4.8207,4.8545,0.0,4.9916,5.0614,0.0,5.1994,5.2329,5.2221,5.2646,5.3074,5.3696,5.4092,5.4597,5.5215,0.0,0.0,0.0,5.3048,5.3524,5.4268,5.3917,5.4138,5.4616,5.4825,5.4825,5.4852,5.544,5.5528,5.5239,5.5122,5.5004,5.5004,5.5732,5.5992,5.6107,5.6851,5.7107,5.7361,5.7565,5.8545,5.9791,6.0347,6.085,6.1351,6.1467,6.1645,6.1732,6.1732,6.1642,6.1552,6.1552,6.2409,6.3585,6.4751,6.5297,6.5728,6.6228,6.6185,6.6217,6.6533,6.6742,0.0,0.0,0.0,0.0,0.0,6.7523,6.7818,0.0,6.7552,0.0,0.0,0.0,0.0,0.0,0.0,0.0,0.0,6.8249,0.0,6.7819,6.7457,6.6969,6.6257,6.5853,6.5601,6.5601,6.5601,6.5756,6.6007,6.6007,6.6132,6.6506,6.6506,6.6753,6.6999,6.6999,6.6999,6.6999,6.6999,6.6999,6.6999,5.3796,5.375,5.3403,5.2215,5.1697,5.1139,5.0668,5.0346,4.9892,4.9009,4.9207,4.9108,4.8235,4.8331,0.0,4.9446,5.0065,5.0657,5.1384,5.1807,5.2004,5.2004,5.2625,5.3246,5.3895,0.0,0.0,5.5261,5.4506,5.3768,5.3275,5.3069,5.3243,5.3592,5.3105,5.2983,5.3227,5.3443,5.3416,5.3537,5.4112,5.4084,5.3697,5.3456,5.3335,5.3241,5.3937,5.4295,5.4442,5.5178,5.5556,5.5673,5.6049,5.6766,5.7772,5.9041,5.9915,6.0326,6.0442,6.0618,6.0793,6.0793,6.0586,6.0555,6.0758,6.1645,6.2698,6.3471,6.378,6.4117,6.4751,6.4672,6.4703,6.5142,6.5467,6.579,6.6217,0.0,0.0,0.0,0.0,0.0,0.0,6.6406,6.6309,0.0,0.0,0.0,0.0,0.0,0.0,6.7072,6.7245,0.0,6.7365,6.6876,6.6382,6.5756,6.5475,6.5348,6.5348,6.5348,6.5504,6.563,6.563,6.5882,6.6103,6.6257,6.6506,6.6876,6.6876,6.6876,6.6999,6.6753,6.6753,6.6999,5.2962,5.2695,0.0,0.0,5.1016,0.0,4.9863,5.0183,5.0086,4.9009,4.9375,4.9305,4.8291,4.8752,4.9446,5.0379,0.0,0.0,0.0,5.1896,5.1815,5.1843,5.2433,5.3079,5.3726,5.3971,5.4469,5.5026,5.4699,5.4699,5.4908,5.4074,5.3592,5.3592,5.2861,5.2588,5.2588,5.2588,5.2465,5.2465,5.2465,5.2094,5.1471,5.112,5.0994,5.0994,5.1419,5.1865,5.2508,5.2903,5.3268,5.3631,5.4616,5.506,5.5641,5.7686,5.8898,5.9538,5.9394,5.9306,5.9306,5.9364,5.9335,5.9451,6.0003,6.0821,6.1792,6.281,6.2523,6.2262,6.3388,6.2758,6.2438,6.3532,6.3954,6.4512,6.5607,0.0,0.0,0.0,0.0,0.0,0.0,6.6048,6.6091,0.0,0.0,0.0,0.0,0.0,6.5231,6.6849,6.6969,6.6876,6.6876,6.6257,6.5756,6.5475,6.5094,6.4996,6.4996,6.4996,6.4996,6.4996,6.4996,6.5222,6.5475,6.5882,6.6132,6.6506,6.6506,6.6629,6.6876,6.6257,6.6506,6.6999,0.0,0.0,5.1419,5.022,5.025,5.0154,4.9766,4.999,4.9892,4.9009,4.9207,4.918,4.8883,4.937,4.9988,5.0713,5.0882,5.114,5.1868,5.1787,5.2012,5.2461,5.3107,5.3612,5.3999,5.4497,5.4769,5.4699,5.4817,5.4671,5.4314,5.3833,5.347,5.3254,5.2492,5.2245,5.2245,5.197,5.1846,5.1846,5.1622,5.1246,5.0842,5.0487,5.0232,5.0078,5.1142,5.1518,5.1544,5.2658,5.3025,5.3146,5.3389,5.3752,5.435,5.6766,5.8,5.8754,5.9161,5.9306,5.9422,5.9858,5.9626,5.9335,5.948,5.9626,6.0092,6.0765,6.0764,6.0939,6.1644,6.1732,6.185,6.2057,6.2409,6.2758,6.3364,6.3219,0.0,0.0,6.4178,6.429,6.4954,6.4482,6.4371,0.0,0.0,0.0,0.0,6.3445,6.3801,6.5429,6.5991,6.6132,6.5853,6.5727,6.5475,6.5124,6.4996,6.4996,6.4996,6.4996,6.4996,6.4996,6.4996,6.5222,6.5475,6.5601,6.5882,6.6132,6.6132,6.6382,6.6629,6.6506,6.6629,6.6999,5.0793,5.0698,5.0508,4.9766,4.9766,4.9892,4.9669,4.9892,4.9795,4.9009,4.9108,4.9238,4.8977,4.9595,5.0213,5.0831,5.114,5.1421,5.1759,5.1787,5.1958,5.2491,5.3332,5.3723,5.3874,5.4484,5.4699,5.4341,5.4314,5.4194,5.3833,5.3349,5.2983,5.2615,5.2121,5.1846,5.1846,5.1721,5.1471,5.1346,5.112,5.0867,5.0359,5.0104,4.9847,4.9719,5.0436,5.0563,5.0588,5.1194,5.1445,5.1544,5.2139,5.2385,5.3052,5.5249,5.6475,5.7283,5.8523,5.861,5.8464,5.8784,5.8871,5.8842,5.8842,5.9074,5.9393,5.9713,5.98,5.9974,6.0613,6.0848,6.1144,6.1555,6.1732,6.1969,6.2351,6.2234,0.0,6.2989,6.2874,6.2989,6.3418,6.2959,6.2728,6.3273,0.0,0.0,6.2558,6.2432,6.3071,6.4729,6.5279,6.5504,6.5475,6.5348,6.5222,6.4996,6.4996,6.4996,6.4996,6.4996,6.4996,6.4996,6.4996,6.5124,6.5222,6.5475,6.5601,6.5756,6.5756,6.6007,6.6257,6.5882,6.6132,6.6506,5.0086,4.9892,4.9669,4.9669,4.9669,4.9669,4.9669,4.9892,4.9698,4.9009,4.9108,4.9166,4.8977,4.9595,5.0213,5.0831,5.1421,5.1787,5.1787,5.1787,5.2014,5.2407,5.3163,5.3664,5.3661,5.4185,5.4341,5.4074,5.3833,5.3592,5.347,5.2861,5.2342,5.1996,5.1721,5.1596,5.1596,5.1596,5.1346,5.112,5.0994,5.0614,5.0104,4.9976,4.9847,4.959,4.959,4.959,4.959,4.959,4.959,4.9847,5.0916,5.1268,5.1622,5.3449,5.443,5.5317,5.7512,5.7828,5.7419,5.7332,5.7739,5.8145,5.8145,5.8581,5.9016,5.9132,5.9161,5.9335,5.9945,6.0148,6.0499,6.1261,6.1348,6.1496,6.1969,0.0,6.188,6.1969,6.1998,6.1998,6.1998,6.1732,6.1494,6.1494,6.1284,6.1193,0.0,6.1774,6.2768,6.421,6.4629,6.5007,6.5475,6.5094,6.4996,6.4996,6.4996,6.4996,6.4996,6.4996,6.4996,6.4996,6.4996,6.4996,6.4996,6.5348,6.5475,6.5475,6.5475,6.5601,6.5882,6.5251,6.5504,6.6007,5.0086,4.9892,4.9669,4.9669,4.9502,4.9404,4.9669,4.9502,4.9305,4.8909,4.8909,4.8937,4.8977,4.9595,5.0213,5.0831,5.1421,5.1787,5.1787,5.1787,5.221,5.302,5.3159,5.3513,5.4029,5.4139,5.3954,5.3713,5.3954,5.3592,5.2711,5.2588,5.2218,5.1721,5.1596,5.1596,5.1596,5.1596,5.1346,5.112,5.0741,5.0487,5.0129,4.9719,4.959,4.959,4.959,4.959,4.959,4.959,4.959,4.959,4.9822,4.9822,5.0308,5.2223,5.2464,5.2845,5.64,5.7768,5.8,5.7448,5.739,5.7448,5.7448,5.7536,5.7768,5.8348,5.8464,5.8668,5.9306,5.9858,6.0235,6.0441,6.047,6.0763,6.1525,0.0,6.0763,6.1525,6.1523,6.1313,6.1313,6.1313,6.1313,6.1313,6.1193,6.1193,6.1193,6.1774,6.2441,6.3349,6.3864,6.4444,6.5094,6.4996,6.4996,6.4996,6.4996,6.4996,6.4996,6.4996,6.4996,6.4996,6.4996,6.4996,6.4996,6.5124,6.5124,6.5124,6.5124,6.5222,6.5601,6.5475,6.563,6.6007,4.9892,4.9766,4.9669,4.9669,4.96,4.96,4.9669,4.9571,4.9404,4.9009,4.8909,4.8937,4.8977,4.949,5.0107,5.0803,5.1341,5.1348,5.0851,5.143,5.2098,5.2686,5.2714,5.2955,5.3581,5.379,5.3713,5.3592,5.3713,5.347,5.2588,5.2588,5.2218,5.1596,5.1596,5.1596,5.1596,5.1596,5.1346,5.0867,5.0588,5.0359,4.9847,4.9719,4.959,4.959,4.959,4.959,4.959,4.959,4.959,4.959,4.959,4.959,4.9819,5.0997,5.2197,5.3482,5.5695,5.6528,5.6852,5.7249,5.7303,5.7303,5.7303,5.7303,5.739,5.771,5.7768,5.7971,5.8639,5.8987,5.9393,6.009,6.0206,0.0,0.0,6.1022,6.0845,6.1375,6.1313,6.1193,6.1193,6.1193,6.1193,6.1193,6.1193,6.1193,6.1193,6.1454,6.189,6.2529,6.3864,6.4706,6.4996,6.4996,6.4996,6.4996,6.4996,6.4996,6.4996,6.4996,6.4996,6.4996,6.4996,6.4996,6.4996,6.4996,6.4996,6.4996,6.4996,6.5124,6.5222,6.5222,6.5378,6.5504,4.9892,4.9766,4.9669,4.9571,4.9375,4.9277,4.9473,4.9277,4.905,4.8781,4.881,4.878,4.878,4.8924,4.9269,5.0062,5.046,5.0298,4.9711,5.0547,5.1128,5.1422,5.1866,5.241,5.3243,5.3468,5.3592,5.3592,5.3592,5.3227,5.2588,5.2588,5.2218,5.1596,5.1596,5.1596,5.1596,5.1471,5.1094,5.0487,5.0334,4.9976,4.9332,4.9461,4.9461,4.9461,4.959,4.959,4.959,4.959,4.959,4.959,4.959,4.959,4.9561,5.0092,5.1817,5.3685,5.479,5.5295,5.5644,5.6594,5.7078,5.7303,5.7303,5.7303,5.7303,5.7303,5.7303,5.7448,5.7971,5.8203,5.8668,5.98,0.0,0.0,0.0,6.1077,6.1019,6.1164,6.1193,6.1193,6.1193,6.1073,6.1073,6.1073,6.1073,6.1073,6.1073,6.1193,6.1542,6.2296,6.3922,6.4822,6.4996,6.4996,6.4996,6.4996,6.4996,6.4996,6.4996,6.4996,6.4996,6.4996,6.4996,6.4996,6.4996,6.4996,6.4996,6.4996,6.4996,6.4996,6.4996,6.4996,6.4996,6.5124,5.0086,4.9892,4.9571,4.9404,4.8453,4.8021,4.8781,4.805,4.7615,4.838,4.8481,4.8409,4.819,4.7736,4.7564,4.7965,4.8056,4.8435,4.9142,4.903,4.8839,4.8785,5.0484,5.2111,5.351,5.3565,5.3592,5.3592,5.3592,5.3227,5.2588,5.2588,5.2218,5.1596,5.1596,5.1596,5.1596,5.1246,5.0741,5.0104,4.9847,4.9227,4.8706,4.9072,4.9202,4.9202,4.9461,4.959,4.959,4.959,4.959,4.959,4.959,4.9332,4.9202,4.9898,5.0308,5.102,5.3389,5.4679,5.5412,5.5528,5.648,5.7303,5.7303,5.7303,5.7303,5.7303,5.7303,5.7332,5.7361,5.7884,5.8523,5.9248,0.0,0.0,6.1019,6.0671,6.0496,6.1135,6.1193,6.1193,6.1193,6.0952,6.0681,6.0681,6.0681,6.0681,6.0681,6.1073,6.1745,6.2993,6.3719,6.4386,6.4967,6.4996,6.4996,6.4996,6.4996,6.4996,6.4996,6.4996,6.4996,6.4996,6.4996,6.4996,6.4996,6.4996,6.4996,6.4996,6.4996,6.4996,6.4996,6.4996,6.4996,6.5124,5.0183,4.9892,4.96,4.9305,4.8453,4.792,4.805,4.728,4.666,4.6867,4.741,4.7438,4.6583,4.6916,4.7162,4.6732,4.6831,4.681,4.6342,4.6934,4.7433,4.7885,4.989,5.1136,5.1616,5.2971,5.3592,5.3592,5.3349,5.3105,5.2588,5.2368,5.197,5.1596,5.1596,5.1346,5.0968,5.112,5.0487,4.9461,4.959,4.9227,4.86,4.8706,4.8837,4.8837,4.8967,4.8967,4.8967,4.9202,4.9332,4.9332,4.9332,4.9202,4.9202,4.9461,4.9332,4.9461,5.0942,5.2139,5.3456,5.5295,5.5905,5.6337,5.7078,5.7303,5.7303,5.7303,5.7303,5.7303,5.7303,5.7422,5.7685,5.8205,0.0,5.8979,5.987,6.01,6.0272,6.0531,6.056,6.056,6.056,6.0438,6.0438,6.0438,6.0438,6.0438,6.0438,6.056,6.0962,6.1824,6.2486,6.3573,6.4967,6.4996,6.4711,6.4037,6.4711,6.4167,6.2697,6.4296,6.4425,6.3749,6.4583,6.4996,6.4996,6.4996,6.4996,6.4996,6.4996,6.4996,6.4996,6.4996,6.4996,6.5124,4.9698,4.9277,4.8753,4.8453,4.7717,4.7074,4.7102,4.6242,4.5714,4.5953,4.6374,4.6347,4.5608,4.5902,4.5925,4.5354,4.5389,4.514,4.4382,4.5654,4.6846,4.7548,4.8797,4.9782,5.0352,5.187,5.2661,5.2929,5.2877,5.2593,5.2199,5.2165,5.1872,5.1471,5.1471,5.1094,5.0487,5.0741,5.0104,4.8918,4.9202,4.8837,4.8313,4.8313,4.8445,4.8445,4.8576,4.86,4.86,4.8837,4.8942,4.8942,4.8942,4.9072,4.9072,4.8918,4.8812,4.8837,4.9461,5.0053,5.1268,5.3844,5.4679,5.5032,5.5876,5.6366,5.6594,5.6594,5.6851,5.6964,5.6964,5.6851,5.6967,5.7599,5.8026,5.8537,5.9165,5.9794,6.0194,6.0194,6.0316,6.0316,6.0194,6.0194,6.0194,6.0071,6.0071,6.0071,6.0194,6.0194,6.0479,6.1079,6.1565,6.2647,6.4422,6.4624,6.4196,6.3094,6.3908,6.3488,6.2164,6.3619,6.3879,6.3357,6.4554,6.4996,6.4996,6.4996,6.4996,6.4996,6.4996,6.4996,6.4996,6.4996,6.4996,6.4996,4.8581,4.7847,4.6998,4.6478,4.5635,4.5315,4.5901,4.502,4.4696,4.5795,4.5635,4.5502,4.5502,4.4453,4.3797,4.3797,4.327,4.3162,4.3714,4.5374,4.6707,4.7691,4.7091,4.7795,5.0326,5.0352,5.0738,5.1384,5.1922,5.1857,5.1276,5.1857,5.1747,5.112,5.112,5.0741,5.0129,5.0104,4.9461,4.8502,4.8576,4.8182,4.7497,4.7894,4.8026,4.8026,4.8445,4.86,4.86,4.86,4.86,4.86,4.86,4.8837,4.9072,4.8632,4.8787,4.9202,4.9461,4.9097,4.9072,5.1016,5.2508,5.3483,5.351,5.4231,5.497,5.497,5.5701,5.6394,5.6394,5.6394,5.6623,5.728,5.7908,5.8537,5.9165,5.9765,6.0165,6.0194,6.0438,6.056,6.0194,6.0194,6.0071,5.973,5.973,5.9825,6.0194,6.0194,6.0451,6.1079,6.1108,6.1708,6.2936,6.4009,6.3806,6.2298,6.2669,6.3225,6.3965,6.3225,6.3488,6.4483,6.4868,6.4996,6.4996,6.4996,6.4996,6.4996,6.4996,6.4996,6.4996,6.4996,6.4996,6.4996,4.8724,4.792,4.6998,4.6478,4.5635,4.5101,4.5046,4.4068,4.3628,4.4152,4.4479,4.4479,4.3823,4.4042,4.3713,4.2737,4.2425,4.2421,4.2501,4.3183,4.3793,4.4401,4.6552,4.7618,4.7403,4.8518,4.9567,5.0594,5.0506,5.0943,5.1857,5.1544,5.1246,5.112,5.0867,5.0232,4.9461,4.959,4.8942,4.7894,4.8026,4.7894,4.7497,4.763,4.763,4.763,4.7786,4.7786,4.7894,4.8026,4.8182,4.8182,4.8182,4.8026,4.7894,4.7894,4.7894,4.8026,4.842,4.8289,4.8657,5.0891,5.1642,5.2015,5.3241,5.3752,5.3992,5.3992,5.4231,5.4588,5.5323,5.544,5.5641,5.6333,5.6901,5.7525,5.7938,5.856,5.8974,5.9397,5.9578,5.9578,5.9454,5.9454,5.9454,5.9329,5.9329,5.9329,5.9454,5.9454,5.9261,5.8646,5.9062,5.9091,5.8767,6.1128,6.2305,6.2326,6.2431,6.2002,6.1356,6.3122,6.3647,6.299,6.4454,6.4996,6.4996,6.4996,6.4996,6.4996,6.4996,6.4996,6.4996,6.4996,6.4996,6.4996,4.7689,4.6895,4.6058,4.5449,4.502,4.4479,4.4287,4.3517,4.3073,4.3406,4.3628,4.3628,4.3098,4.3517,4.3406,4.2312,4.2086,4.1891,4.1629,4.2252,4.2544,4.2465,4.5083,4.6259,4.5625,4.6415,4.7355,4.8299,4.8156,4.8559,4.9314,4.9368,4.9469,4.9749,4.9849,4.9436,4.8942,4.9202,4.8682,4.7497,4.7894,4.7762,4.7497,4.7497,4.7497,4.7497,4.7497,4.7497,4.7497,4.7762,4.7762,4.7762,4.7762,4.763,4.7497,4.7497,4.7497,4.7497,4.7762,4.7762,4.8133,4.9772,5.0028,5.0308,5.1544,5.2041,5.2412,5.2535,5.2903,5.3295,5.3899,5.4019,5.4139,5.4643,5.5142,5.5816,5.6326,5.7132,5.8048,5.8812,5.9189,5.9329,5.9205,5.9329,5.9329,5.9205,5.9205,5.9205,5.9205,5.9205,5.8676,5.7606,5.7962,5.7743,5.6931,5.8294,5.9614,6.0864,6.1218,6.092,6.0012,6.2326,6.2725,6.1761,6.3908,6.4612,6.4454,6.4839,6.4996,6.4996,6.4996,6.4996,6.4996,6.4996,6.4996,6.4996,4.5901,4.5261,4.4531,4.401,4.3899,4.3764,4.3406,4.3184,4.3073,4.3406,4.3184,4.2986,4.2986,4.2986,4.2874,4.2513,4.1997,4.1565,4.1244,4.2166,4.2442,4.1845,4.312,4.4087,4.4521,4.4251,4.4497,4.5281,4.5378,4.5421,4.5392,4.6231,4.6948,4.7641,4.8133,4.8297,4.8371,4.8738,4.8371,4.7497,4.7894,4.7762,4.7497,4.7497,4.7497,4.7497,4.7497,4.7497,4.7497,4.7497,4.7497,4.7497,4.7497,4.7497,4.7497,4.7497,4.7497,4.7497,4.7497,4.7497,4.763,4.8026,4.8313,4.8576,4.8942,4.9694,5.0461,5.0816,5.1721,5.2342,5.2465,5.2465,5.2465,5.2588,5.3041,5.3788,5.4706,5.5811,5.6954,5.7908,5.8963,5.9329,5.908,5.9454,5.9482,5.908,5.908,5.908,5.8955,5.8955,5.8424,5.735,5.7322,5.7077,5.6718,5.5721,5.6321,5.8689,5.9472,5.9766,5.9595,6.0975,6.1247,6.0811,6.3254,6.3936,6.3225,6.4396,6.488,6.4752,6.4909,6.4909,6.4909,6.4839,6.4996,6.4996,4.6007,4.5154,4.4313,4.401,4.3653,4.3517,4.3381,4.3184,4.3073,4.3406,4.3184,4.2986,4.2986,4.2986,4.2874,4.2513,4.211,4.1914,4.1798,4.1686,4.17,4.1993,4.211,4.2288,4.2822,4.2799,4.3593,4.5524,4.4492,4.5007,4.6958,4.6038,4.5749,4.5878,4.6536,4.6827,4.6717,4.7653,4.7767,4.7497,4.763,4.7497,4.7497,4.7497,4.7497,4.7497,4.7497,4.7497,4.7497,4.7497,4.7497,4.7497,4.7497,4.7497,4.7497,4.7497,4.7497,4.7497,4.7762,4.7894,4.8026,4.8313,4.8313,4.8182,4.8576,4.8837,4.9097,4.9436,4.9694,5.0206,5.1194,5.1544,5.1917,5.2465,5.2914,5.3278,5.3761,5.4432,5.5176,5.5761,5.7095,5.7988,5.7988,5.8802,5.8955,5.8016,5.7988,5.7606,5.6861,5.6731,5.634,5.5153,5.5153,5.5072,5.5069,5.4449,5.5632,5.8689,5.8104,5.842,5.9595,6.0261,6.0372,6.0372,6.2242,6.2375,6.1409,6.3365,6.3549,6.262,6.3832,6.4241,6.4173,6.3866,6.4296,6.4996,4.5368,4.4856,4.4203,4.3899,4.3653,4.3406,4.3184,4.3073,4.3073,4.3184,4.3073,4.2986,4.2986,4.2874,4.265,4.2312,4.1898,4.1581,4.1348,4.1116,4.1051,4.1438,4.1568,4.1685,4.2061,4.1934,4.2431,4.3575,4.3067,4.3183,4.4078,4.4056,4.4067,4.4067,4.4713,4.4971,4.5122,4.5646,4.5942,4.6096,4.6357,4.6717,4.7161,4.7401,4.7497,4.7497,4.7497,4.7497,4.7497,4.7497,4.7497,4.7497,4.7497,4.7497,4.7497,4.7497,4.7497,4.7497,4.7762,4.7894,4.8026,4.805,4.8182,4.8313,4.8576,4.8445,4.8445,4.8837,4.8942,4.9332,5.0078,5.0436,5.0689,5.1094,5.132,5.1549,5.1988,5.2765,5.3572,5.4437,5.5639,5.6638,5.6807,5.7377,5.7505,5.6963,5.6834,5.6704,5.6078,5.6078,5.5551,5.4485,5.4511,5.4241,5.37,5.3457,5.429,5.6358,5.6902,5.7473,5.8044,5.9289,5.9429,5.8586,6.062,6.1301,6.1002,6.1865,6.2163,6.2163,6.2965,6.2965,6.2636,6.313,6.3777,6.4167,4.4531,4.4422,4.4094,4.3899,4.3543,4.3295,4.2986,4.2986,4.2986,4.2986,4.2986,4.2986,4.2986,4.2625,4.2312,4.2086,4.1402,4.0942,4.0687,4.055,4.0629,4.08,4.1397,4.1628,4.1783,4.1421,4.1293,4.1421,4.155,4.1164,4.0539,4.1566,4.2136,4.2181,4.2696,4.3185,4.3539,4.3671,4.3848,4.4117,4.4665,4.5225,4.6085,4.6513,4.6884,4.7088,4.7088,4.7293,4.7497,4.7497,4.7497,4.7497,4.7497,4.7497,4.7497,4.7497,4.7497,4.7497,4.763,4.7762,4.7894,4.7762,4.805,4.8445,4.8445,4.8313,4.8026,4.8445,4.8837,4.9072,4.9072,4.9332,4.959,4.959,4.959,4.9719,5.0206,5.1049,5.1949,5.2931,5.4103,5.5126,5.5867,5.6078,5.6078,5.5815,5.5815,5.5815,5.5551,5.5551,5.5153,5.4241,5.4241,5.3835,5.2929,5.2929,5.3181,5.3708,5.5599,5.6392,5.6068,5.8134,5.8186,5.6776,5.8736,5.9935,6.0183,6.0103,6.0601,6.1463,6.1948,6.1585,6.0899,6.2549,6.2962,6.283,4.401,4.401,4.3874,4.3517,4.3184,4.3098,4.2986,4.2986,4.2986,4.2986,4.2986,4.2986,4.2986,4.2513,4.2061,4.172,4.0803,4.0339,4.0223,4.0542,4.0755,4.0823,4.1468,4.1738,4.1806,4.1164,4.1271,4.2166,4.1035,4.0906,4.155,4.0583,4.0236,4.0627,4.1321,4.1696,4.1991,4.2883,4.3111,4.297,4.3038,4.3193,4.3348,4.3417,4.4267,4.5482,4.5482,4.6319,4.7497,4.7497,4.7497,4.7497,4.7497,4.7497,4.7497,4.7497,4.7497,4.7497,4.7894,4.8026,4.8026,4.8313,4.8313,4.8026,4.8026,4.8026,4.8026,4.8026,4.8445,4.8706,4.9072,4.9332,4.959,4.959,4.9332,4.9202,4.9332,4.952,4.976,4.9967,5.2037,5.3944,5.5472,5.592,5.5683,5.4753,5.4753,5.4376,5.3316,5.3316,5.3316,5.3042,5.3067,5.3067,5.2929,5.2929,5.3181,5.3708,5.3998,5.4603,5.5516,5.6283,5.6485,5.6314,5.7499,5.7266,5.6417,5.8536,5.8533,5.7384,6.0011,6.065,6.0187,6.1481,6.1383,6.0674,4.3932,4.3899,4.3764,4.3517,4.3184,4.2986,4.2986,4.2986,4.2986,4.2986,4.2986,4.2986,4.2762,4.2086,4.1378,4.0918,4.0363,4.0013,4.0013,4.037,4.0555,4.0555,4.1135,4.1421,4.1293,4.0906,4.0906,4.1164,4.1164,4.1035,4.0906,4.0777,4.0388,4.0018,4.0257,4.0236,4.0037,4.0694,4.0935,4.1133,4.1397,4.1905,4.2455,4.2725,4.3238,4.3841,4.3841,4.4665,4.587,4.6154,4.6645,4.7112,4.7401,4.7497,4.7497,4.7497,4.7497,4.7497,4.763,4.7894,4.8026,4.805,4.8182,4.8182,4.7762,4.7894,4.7894,4.7762,4.8026,4.8445,4.8706,4.9072,4.9332,4.959,4.9461,4.9202,4.8837,4.9035,4.9282,4.9446,5.0946,5.2261,5.319,5.3766,5.3971,5.3589,5.3452,5.3179,5.2654,5.2654,5.2515,5.2238,5.2654,5.2792,5.2654,5.2792,5.303,5.3281,5.3557,5.4285,5.539,5.5641,5.5917,5.6194,5.631,5.6662,5.6984,5.6745,5.6683,5.7033,5.8375,5.9238,5.9752,5.9586,5.9717,6.0261]}]]